<?xml version="1.0" encoding="UTF-8" standalone="no" ?>
<gpx xmlns="http://www.topografix.com/GPX/1/1" xmlns:xsi="http://www.w3.org/2001/XMLSchema-instance" xsi:schemaLocation="http://www.topografix.com/GPX/1/1 http://www.topografix.com/GPX/1/1/gpx.xsd" version="1.1" creator="VisuGPX - https://www.visugpx.com">
  <metadata>
    <name>Vosges-Juin2021</name>
  </metadata>
  <trk>
    <name><![CDATA[2021-06-18_08-43_Fri]]></name>
    <extensions>
      <line xmlns="http://www.topografix.com/GPX/gpx_style/0/2">
        <color>008888</color>
        <width>4</width>
      </line>
    </extensions>
    <trkseg>
      <trkpt lat="48.08606" lon="6.92539">
        <ele>749.79</ele>
        <time>2021-06-23T09:20:21Z</time>
      </trkpt>
      <trkpt lat="48.08606" lon="6.92539">
        <ele>749.79</ele>
        <time>2021-06-23T09:20:21Z</time>
      </trkpt>
      <trkpt lat="48.08589" lon="6.92528">
        <ele>747.19</ele>
        <time>2021-06-23T09:20:27Z</time>
      </trkpt>
      <trkpt lat="48.08555" lon="6.92534">
        <ele>743.43</ele>
        <time>2021-06-23T09:20:32Z</time>
      </trkpt>
      <trkpt lat="48.08482" lon="6.92561">
        <ele>739.02</ele>
        <time>2021-06-23T09:20:38Z</time>
      </trkpt>
      <trkpt lat="48.08473" lon="6.92568">
        <ele>738.06</ele>
        <time>2021-06-23T09:20:44Z</time>
      </trkpt>
      <trkpt lat="48.08462" lon="6.92582">
        <ele>736.5</ele>
        <time>2021-06-23T09:20:50Z</time>
      </trkpt>
      <trkpt lat="48.08458" lon="6.9259">
        <ele>735.16</ele>
        <time>2021-06-23T09:20:56Z</time>
      </trkpt>
      <trkpt lat="48.08457" lon="6.92599">
        <ele>733.86</ele>
        <time>2021-06-23T09:21:02Z</time>
      </trkpt>
      <trkpt lat="48.08459" lon="6.9261">
        <ele>732.73</ele>
        <time>2021-06-23T09:21:08Z</time>
      </trkpt>
      <trkpt lat="48.08476" lon="6.9263">
        <ele>732.3</ele>
        <time>2021-06-23T09:21:13Z</time>
      </trkpt>
      <trkpt lat="48.08479" lon="6.92636">
        <ele>731.81</ele>
        <time>2021-06-23T09:21:19Z</time>
      </trkpt>
      <trkpt lat="48.0848" lon="6.92644">
        <ele>731.57</ele>
        <time>2021-06-23T09:21:25Z</time>
      </trkpt>
      <trkpt lat="48.08478" lon="6.92652">
        <ele>731.41</ele>
        <time>2021-06-23T09:21:31Z</time>
      </trkpt>
      <trkpt lat="48.08474" lon="6.92658">
        <ele>731.13</ele>
        <time>2021-06-23T09:21:37Z</time>
      </trkpt>
      <trkpt lat="48.08468" lon="6.92661">
        <ele>730.8</ele>
        <time>2021-06-23T09:21:43Z</time>
      </trkpt>
      <trkpt lat="48.08433" lon="6.92655">
        <ele>728.55</ele>
        <time>2021-06-23T09:21:49Z</time>
      </trkpt>
      <trkpt lat="48.08328" lon="6.92649">
        <ele>719.13</ele>
        <time>2021-06-23T09:21:54Z</time>
      </trkpt>
      <trkpt lat="48.08153" lon="6.92631">
        <ele>721.25</ele>
        <time>2021-06-23T09:22:00Z</time>
      </trkpt>
      <trkpt lat="48.08152" lon="6.92704">
        <ele>723.85</ele>
        <time>2021-06-23T09:22:06Z</time>
      </trkpt>
      <trkpt lat="48.08154" lon="6.92731">
        <ele>723.32</ele>
        <time>2021-06-23T09:22:12Z</time>
      </trkpt>
      <trkpt lat="48.08157" lon="6.9276">
        <ele>722.76</ele>
        <time>2021-06-23T09:22:18Z</time>
      </trkpt>
      <trkpt lat="48.08177" lon="6.92859">
        <ele>722.77</ele>
        <time>2021-06-23T09:22:23Z</time>
      </trkpt>
      <trkpt lat="48.08181" lon="6.929">
        <ele>724.53</ele>
        <time>2021-06-23T09:22:29Z</time>
      </trkpt>
      <trkpt lat="48.08176" lon="6.93069">
        <ele>730.51</ele>
        <time>2021-06-23T09:22:35Z</time>
      </trkpt>
      <trkpt lat="48.08172" lon="6.93148">
        <ele>733.8</ele>
        <time>2021-06-23T09:22:41Z</time>
      </trkpt>
      <trkpt lat="48.08166" lon="6.93174">
        <ele>734.82</ele>
        <time>2021-06-23T09:22:46Z</time>
      </trkpt>
      <trkpt lat="48.08158" lon="6.93201">
        <ele>736.1</ele>
        <time>2021-06-23T09:22:52Z</time>
      </trkpt>
      <trkpt lat="48.08141" lon="6.93245">
        <ele>740.27</ele>
        <time>2021-06-23T09:22:58Z</time>
      </trkpt>
      <trkpt lat="48.08044" lon="6.93446">
        <ele>748.11</ele>
        <time>2021-06-23T09:23:04Z</time>
      </trkpt>
      <trkpt lat="48.08006" lon="6.93533">
        <ele>756.72</ele>
        <time>2021-06-23T09:23:09Z</time>
      </trkpt>
      <trkpt lat="48.07948" lon="6.93684">
        <ele>753.11</ele>
        <time>2021-06-23T09:23:15Z</time>
      </trkpt>
      <trkpt lat="48.07928" lon="6.93744">
        <ele>755.12</ele>
        <time>2021-06-23T09:23:21Z</time>
      </trkpt>
      <trkpt lat="48.07912" lon="6.93805">
        <ele>752.74</ele>
        <time>2021-06-23T09:23:27Z</time>
      </trkpt>
      <trkpt lat="48.07901" lon="6.93861">
        <ele>748.55</ele>
        <time>2021-06-23T09:23:33Z</time>
      </trkpt>
      <trkpt lat="48.07878" lon="6.93929">
        <ele>745.27</ele>
        <time>2021-06-23T09:23:38Z</time>
      </trkpt>
      <trkpt lat="48.07838" lon="6.94021">
        <ele>738.79</ele>
        <time>2021-06-23T09:23:44Z</time>
      </trkpt>
      <trkpt lat="48.0782" lon="6.94057">
        <ele>739.26</ele>
        <time>2021-06-23T09:23:50Z</time>
      </trkpt>
      <trkpt lat="48.07806" lon="6.94078">
        <ele>740.03</ele>
        <time>2021-06-23T09:23:56Z</time>
      </trkpt>
      <trkpt lat="48.07786" lon="6.941">
        <ele>745.58</ele>
        <time>2021-06-23T09:24:01Z</time>
      </trkpt>
      <trkpt lat="48.07718" lon="6.94166">
        <ele>751.22</ele>
        <time>2021-06-23T09:24:07Z</time>
      </trkpt>
      <trkpt lat="48.07603" lon="6.94269">
        <ele>752.59</ele>
        <time>2021-06-23T09:24:13Z</time>
      </trkpt>
      <trkpt lat="48.07569" lon="6.94293">
        <ele>751.61</ele>
        <time>2021-06-23T09:24:19Z</time>
      </trkpt>
      <trkpt lat="48.07472" lon="6.9434">
        <ele>752.86</ele>
        <time>2021-06-23T09:24:24Z</time>
      </trkpt>
      <trkpt lat="48.07406" lon="6.94368">
        <ele>758.24</ele>
        <time>2021-06-23T09:24:30Z</time>
      </trkpt>
      <trkpt lat="48.07318" lon="6.944">
        <ele>757.2</ele>
        <time>2021-06-23T09:24:36Z</time>
      </trkpt>
      <trkpt lat="48.07302" lon="6.94408">
        <ele>754.71</ele>
        <time>2021-06-23T09:24:42Z</time>
      </trkpt>
      <trkpt lat="48.07191" lon="6.94491">
        <ele>762.22</ele>
        <time>2021-06-23T09:24:47Z</time>
      </trkpt>
      <trkpt lat="48.07162" lon="6.94511">
        <ele>760.01</ele>
        <time>2021-06-23T09:24:53Z</time>
      </trkpt>
      <trkpt lat="48.07077" lon="6.94554">
        <ele>753.11</ele>
        <time>2021-06-23T09:24:59Z</time>
      </trkpt>
      <trkpt lat="48.07048" lon="6.94582">
        <ele>753.58</ele>
        <time>2021-06-23T09:25:05Z</time>
      </trkpt>
      <trkpt lat="48.06979" lon="6.94665">
        <ele>750.49</ele>
        <time>2021-06-23T09:25:10Z</time>
      </trkpt>
      <trkpt lat="48.06941" lon="6.94706">
        <ele>747.02</ele>
        <time>2021-06-23T09:25:16Z</time>
      </trkpt>
      <trkpt lat="48.06918" lon="6.94723">
        <ele>744.86</ele>
        <time>2021-06-23T09:25:22Z</time>
      </trkpt>
      <trkpt lat="48.06749" lon="6.94819">
        <ele>748.18</ele>
        <time>2021-06-23T09:25:28Z</time>
      </trkpt>
      <trkpt lat="48.06619" lon="6.94979">
        <ele>750.72</ele>
        <time>2021-06-23T09:25:34Z</time>
      </trkpt>
      <trkpt lat="48.06534" lon="6.95093">
        <ele>751.79</ele>
        <time>2021-06-23T09:25:39Z</time>
      </trkpt>
      <trkpt lat="48.065" lon="6.9516">
        <ele>752.12</ele>
        <time>2021-06-23T09:25:45Z</time>
      </trkpt>
      <trkpt lat="48.06422" lon="6.95296">
        <ele>753.53</ele>
        <time>2021-06-23T09:25:51Z</time>
      </trkpt>
      <trkpt lat="48.06361" lon="6.95394">
        <ele>755.72</ele>
        <time>2021-06-23T09:25:57Z</time>
      </trkpt>
      <trkpt lat="48.06344" lon="6.95435">
        <ele>752.8</ele>
        <time>2021-06-23T09:26:02Z</time>
      </trkpt>
      <trkpt lat="48.06344" lon="6.95435">
        <ele>752.8</ele>
        <time>2021-06-23T09:26:02Z</time>
      </trkpt>
      <trkpt lat="48.06326" lon="6.95484">
        <ele>749.08</ele>
        <time>2021-06-23T09:26:05Z</time>
      </trkpt>
      <trkpt lat="48.06322" lon="6.95518">
        <ele>749.09</ele>
        <time>2021-06-23T09:26:08Z</time>
      </trkpt>
      <trkpt lat="48.06321" lon="6.95574">
        <ele>747.05</ele>
        <time>2021-06-23T09:26:11Z</time>
      </trkpt>
      <trkpt lat="48.06359" lon="6.95834">
        <ele>735.13</ele>
        <time>2021-06-23T09:26:14Z</time>
      </trkpt>
      <trkpt lat="48.06361" lon="6.95878">
        <ele>735.6</ele>
        <time>2021-06-23T09:26:17Z</time>
      </trkpt>
      <trkpt lat="48.06359" lon="6.95909">
        <ele>736</ele>
        <time>2021-06-23T09:26:20Z</time>
      </trkpt>
      <trkpt lat="48.06353" lon="6.95949">
        <ele>736.29</ele>
        <time>2021-06-23T09:26:23Z</time>
      </trkpt>
      <trkpt lat="48.06349" lon="6.95964">
        <ele>737.11</ele>
        <time>2021-06-23T09:26:26Z</time>
      </trkpt>
      <trkpt lat="48.06335" lon="6.96004">
        <ele>738.24</ele>
        <time>2021-06-23T09:26:29Z</time>
      </trkpt>
      <trkpt lat="48.06235" lon="6.96182">
        <ele>740.66</ele>
        <time>2021-06-23T09:26:32Z</time>
      </trkpt>
      <trkpt lat="48.06227" lon="6.962">
        <ele>739.75</ele>
        <time>2021-06-23T09:26:34Z</time>
      </trkpt>
      <trkpt lat="48.06218" lon="6.96224">
        <ele>739.38</ele>
        <time>2021-06-23T09:26:37Z</time>
      </trkpt>
      <trkpt lat="48.06208" lon="6.96262">
        <ele>739.63</ele>
        <time>2021-06-23T09:26:40Z</time>
      </trkpt>
      <trkpt lat="48.06205" lon="6.96299">
        <ele>739.5</ele>
        <time>2021-06-23T09:26:43Z</time>
      </trkpt>
      <trkpt lat="48.06208" lon="6.96345">
        <ele>738.09</ele>
        <time>2021-06-23T09:26:46Z</time>
      </trkpt>
      <trkpt lat="48.06214" lon="6.96376">
        <ele>738</ele>
        <time>2021-06-23T09:26:49Z</time>
      </trkpt>
      <trkpt lat="48.06226" lon="6.96411">
        <ele>739.73</ele>
        <time>2021-06-23T09:26:52Z</time>
      </trkpt>
      <trkpt lat="48.06238" lon="6.96436">
        <ele>741.24</ele>
        <time>2021-06-23T09:26:55Z</time>
      </trkpt>
      <trkpt lat="48.06247" lon="6.96451">
        <ele>741.67</ele>
        <time>2021-06-23T09:26:58Z</time>
      </trkpt>
      <trkpt lat="48.06262" lon="6.96471">
        <ele>742.28</ele>
        <time>2021-06-23T09:27:01Z</time>
      </trkpt>
      <trkpt lat="48.06282" lon="6.96505">
        <ele>746.23</ele>
        <time>2021-06-23T09:27:04Z</time>
      </trkpt>
      <trkpt lat="48.06289" lon="6.96541">
        <ele>750.17</ele>
        <time>2021-06-23T09:27:06Z</time>
      </trkpt>
      <trkpt lat="48.06289" lon="6.96608">
        <ele>753.43</ele>
        <time>2021-06-23T09:27:09Z</time>
      </trkpt>
      <trkpt lat="48.06295" lon="6.96681">
        <ele>756.09</ele>
        <time>2021-06-23T09:27:12Z</time>
      </trkpt>
      <trkpt lat="48.06295" lon="6.96707">
        <ele>757.6</ele>
        <time>2021-06-23T09:27:15Z</time>
      </trkpt>
      <trkpt lat="48.06284" lon="6.96799">
        <ele>756.12</ele>
        <time>2021-06-23T09:27:18Z</time>
      </trkpt>
      <trkpt lat="48.0628" lon="6.96825">
        <ele>756.78</ele>
        <time>2021-06-23T09:27:20Z</time>
      </trkpt>
      <trkpt lat="48.06272" lon="6.96855">
        <ele>756.97</ele>
        <time>2021-06-23T09:27:23Z</time>
      </trkpt>
      <trkpt lat="48.06243" lon="6.96937">
        <ele>757.12</ele>
        <time>2021-06-23T09:27:26Z</time>
      </trkpt>
      <trkpt lat="48.062" lon="6.97049">
        <ele>762.13</ele>
        <time>2021-06-23T09:27:29Z</time>
      </trkpt>
      <trkpt lat="48.06178" lon="6.97116">
        <ele>763.91</ele>
        <time>2021-06-23T09:27:32Z</time>
      </trkpt>
      <trkpt lat="48.06171" lon="6.97144">
        <ele>764.89</ele>
        <time>2021-06-23T09:27:34Z</time>
      </trkpt>
      <trkpt lat="48.06166" lon="6.97185">
        <ele>764.75</ele>
        <time>2021-06-23T09:27:37Z</time>
      </trkpt>
      <trkpt lat="48.06159" lon="6.97283">
        <ele>768.1</ele>
        <time>2021-06-23T09:27:40Z</time>
      </trkpt>
      <trkpt lat="48.06152" lon="6.97363">
        <ele>775.43</ele>
        <time>2021-06-23T09:27:43Z</time>
      </trkpt>
      <trkpt lat="48.06155" lon="6.97428">
        <ele>774.84</ele>
        <time>2021-06-23T09:27:46Z</time>
      </trkpt>
      <trkpt lat="48.06154" lon="6.97493">
        <ele>775.03</ele>
        <time>2021-06-23T09:27:48Z</time>
      </trkpt>
      <trkpt lat="48.06151" lon="6.97517">
        <ele>773.89</ele>
        <time>2021-06-23T09:27:51Z</time>
      </trkpt>
      <trkpt lat="48.06145" lon="6.9754">
        <ele>772.36</ele>
        <time>2021-06-23T09:27:54Z</time>
      </trkpt>
      <trkpt lat="48.06122" lon="6.97614">
        <ele>772.58</ele>
        <time>2021-06-23T09:27:57Z</time>
      </trkpt>
      <trkpt lat="48.06116" lon="6.97647">
        <ele>772.04</ele>
        <time>2021-06-23T09:28:00Z</time>
      </trkpt>
      <trkpt lat="48.06113" lon="6.97682">
        <ele>770.9</ele>
        <time>2021-06-23T09:28:02Z</time>
      </trkpt>
      <trkpt lat="48.06113" lon="6.97732">
        <ele>768.81</ele>
        <time>2021-06-23T09:28:05Z</time>
      </trkpt>
      <trkpt lat="48.0611" lon="6.97782">
        <ele>769.07</ele>
        <time>2021-06-23T09:28:08Z</time>
      </trkpt>
      <trkpt lat="48.06106" lon="6.97813">
        <ele>770.85</ele>
        <time>2021-06-23T09:28:11Z</time>
      </trkpt>
      <trkpt lat="48.061" lon="6.97844">
        <ele>771.07</ele>
        <time>2021-06-23T09:28:13Z</time>
      </trkpt>
      <trkpt lat="48.06078" lon="6.97913">
        <ele>771.74</ele>
        <time>2021-06-23T09:28:16Z</time>
      </trkpt>
      <trkpt lat="48.06058" lon="6.9802">
        <ele>781.69</ele>
        <time>2021-06-23T09:28:19Z</time>
      </trkpt>
      <trkpt lat="48.06058" lon="6.9802">
        <ele>781.69</ele>
        <time>2021-06-23T09:28:19Z</time>
      </trkpt>
      <trkpt lat="48.06052" lon="6.98045">
        <ele>783.54</ele>
        <time>2021-06-23T09:28:21Z</time>
      </trkpt>
      <trkpt lat="48.06043" lon="6.98061">
        <ele>784.41</ele>
        <time>2021-06-23T09:28:23Z</time>
      </trkpt>
      <trkpt lat="48.06034" lon="6.98073">
        <ele>784.13</ele>
        <time>2021-06-23T09:28:25Z</time>
      </trkpt>
      <trkpt lat="48.05991" lon="6.9811">
        <ele>783.19</ele>
        <time>2021-06-23T09:28:27Z</time>
      </trkpt>
      <trkpt lat="48.0598" lon="6.98132">
        <ele>786.02</ele>
        <time>2021-06-23T09:28:29Z</time>
      </trkpt>
      <trkpt lat="48.05968" lon="6.98161">
        <ele>789.64</ele>
        <time>2021-06-23T09:28:31Z</time>
      </trkpt>
      <trkpt lat="48.05944" lon="6.98202">
        <ele>794.37</ele>
        <time>2021-06-23T09:28:33Z</time>
      </trkpt>
      <trkpt lat="48.05928" lon="6.98219">
        <ele>794.65</ele>
        <time>2021-06-23T09:28:36Z</time>
      </trkpt>
      <trkpt lat="48.05892" lon="6.98242">
        <ele>788.96</ele>
        <time>2021-06-23T09:28:38Z</time>
      </trkpt>
      <trkpt lat="48.05882" lon="6.98255">
        <ele>789.33</ele>
        <time>2021-06-23T09:28:40Z</time>
      </trkpt>
      <trkpt lat="48.05877" lon="6.98272">
        <ele>790.26</ele>
        <time>2021-06-23T09:28:42Z</time>
      </trkpt>
      <trkpt lat="48.05878" lon="6.98282">
        <ele>790.68</ele>
        <time>2021-06-23T09:28:44Z</time>
      </trkpt>
      <trkpt lat="48.0588" lon="6.9829">
        <ele>791</ele>
        <time>2021-06-23T09:28:46Z</time>
      </trkpt>
      <trkpt lat="48.05907" lon="6.98327">
        <ele>793.34</ele>
        <time>2021-06-23T09:28:48Z</time>
      </trkpt>
      <trkpt lat="48.05912" lon="6.9834">
        <ele>793.86</ele>
        <time>2021-06-23T09:28:50Z</time>
      </trkpt>
      <trkpt lat="48.05914" lon="6.98352">
        <ele>793.74</ele>
        <time>2021-06-23T09:28:52Z</time>
      </trkpt>
      <trkpt lat="48.05915" lon="6.98366">
        <ele>793.53</ele>
        <time>2021-06-23T09:28:54Z</time>
      </trkpt>
      <trkpt lat="48.05913" lon="6.9839">
        <ele>793.22</ele>
        <time>2021-06-23T09:28:56Z</time>
      </trkpt>
      <trkpt lat="48.05909" lon="6.98411">
        <ele>794.01</ele>
        <time>2021-06-23T09:28:58Z</time>
      </trkpt>
      <trkpt lat="48.05905" lon="6.98428">
        <ele>794.7</ele>
        <time>2021-06-23T09:29:00Z</time>
      </trkpt>
      <trkpt lat="48.05898" lon="6.98446">
        <ele>795.08</ele>
        <time>2021-06-23T09:29:02Z</time>
      </trkpt>
      <trkpt lat="48.05864" lon="6.98493">
        <ele>789.93</ele>
        <time>2021-06-23T09:29:04Z</time>
      </trkpt>
      <trkpt lat="48.05846" lon="6.98514">
        <ele>787.01</ele>
        <time>2021-06-23T09:29:06Z</time>
      </trkpt>
      <trkpt lat="48.05825" lon="6.98536">
        <ele>786.16</ele>
        <time>2021-06-23T09:29:08Z</time>
      </trkpt>
      <trkpt lat="48.05775" lon="6.9858">
        <ele>782.42</ele>
        <time>2021-06-23T09:29:11Z</time>
      </trkpt>
      <trkpt lat="48.05731" lon="6.98624">
        <ele>783.68</ele>
        <time>2021-06-23T09:29:13Z</time>
      </trkpt>
      <trkpt lat="48.05695" lon="6.98663">
        <ele>784.46</ele>
        <time>2021-06-23T09:29:15Z</time>
      </trkpt>
      <trkpt lat="48.05649" lon="6.98704">
        <ele>791.68</ele>
        <time>2021-06-23T09:29:17Z</time>
      </trkpt>
      <trkpt lat="48.05606" lon="6.98747">
        <ele>797.73</ele>
        <time>2021-06-23T09:29:19Z</time>
      </trkpt>
      <trkpt lat="48.05582" lon="6.98757">
        <ele>797.57</ele>
        <time>2021-06-23T09:29:21Z</time>
      </trkpt>
      <trkpt lat="48.05538" lon="6.98758">
        <ele>795.9</ele>
        <time>2021-06-23T09:29:23Z</time>
      </trkpt>
      <trkpt lat="48.05518" lon="6.98761">
        <ele>795.07</ele>
        <time>2021-06-23T09:29:25Z</time>
      </trkpt>
      <trkpt lat="48.05505" lon="6.98766">
        <ele>794.76</ele>
        <time>2021-06-23T09:29:27Z</time>
      </trkpt>
      <trkpt lat="48.05493" lon="6.98776">
        <ele>795.49</ele>
        <time>2021-06-23T09:29:29Z</time>
      </trkpt>
      <trkpt lat="48.05474" lon="6.98796">
        <ele>800.24</ele>
        <time>2021-06-23T09:29:31Z</time>
      </trkpt>
      <trkpt lat="48.05425" lon="6.98861">
        <ele>810.15</ele>
        <time>2021-06-23T09:29:33Z</time>
      </trkpt>
      <trkpt lat="48.05408" lon="6.98877">
        <ele>810.99</ele>
        <time>2021-06-23T09:29:35Z</time>
      </trkpt>
      <trkpt lat="48.05378" lon="6.98894">
        <ele>813.17</ele>
        <time>2021-06-23T09:29:37Z</time>
      </trkpt>
      <trkpt lat="48.0535" lon="6.98899">
        <ele>815.42</ele>
        <time>2021-06-23T09:29:39Z</time>
      </trkpt>
      <trkpt lat="48.05269" lon="6.98899">
        <ele>821.36</ele>
        <time>2021-06-23T09:29:41Z</time>
      </trkpt>
      <trkpt lat="48.05269" lon="6.98899">
        <ele>821.36</ele>
        <time>2021-06-23T09:29:41Z</time>
      </trkpt>
      <trkpt lat="48.05256" lon="6.98893">
        <ele>821.9</ele>
        <time>2021-06-23T09:29:44Z</time>
      </trkpt>
      <trkpt lat="48.05246" lon="6.98884">
        <ele>822.05</ele>
        <time>2021-06-23T09:29:46Z</time>
      </trkpt>
      <trkpt lat="48.05223" lon="6.98857">
        <ele>821.67</ele>
        <time>2021-06-23T09:29:48Z</time>
      </trkpt>
      <trkpt lat="48.05205" lon="6.98835">
        <ele>824.39</ele>
        <time>2021-06-23T09:29:50Z</time>
      </trkpt>
      <trkpt lat="48.05197" lon="6.98815">
        <ele>826.46</ele>
        <time>2021-06-23T09:29:52Z</time>
      </trkpt>
      <trkpt lat="48.05191" lon="6.98793">
        <ele>828.85</ele>
        <time>2021-06-23T09:29:54Z</time>
      </trkpt>
      <trkpt lat="48.05189" lon="6.98768">
        <ele>830.34</ele>
        <time>2021-06-23T09:29:56Z</time>
      </trkpt>
      <trkpt lat="48.05189" lon="6.98717">
        <ele>830.29</ele>
        <time>2021-06-23T09:29:59Z</time>
      </trkpt>
      <trkpt lat="48.05186" lon="6.98697">
        <ele>831.27</ele>
        <time>2021-06-23T09:30:01Z</time>
      </trkpt>
      <trkpt lat="48.05173" lon="6.98642">
        <ele>837.28</ele>
        <time>2021-06-23T09:30:03Z</time>
      </trkpt>
      <trkpt lat="48.05165" lon="6.98587">
        <ele>839.06</ele>
        <time>2021-06-23T09:30:05Z</time>
      </trkpt>
      <trkpt lat="48.05159" lon="6.98508">
        <ele>850.84</ele>
        <time>2021-06-23T09:30:07Z</time>
      </trkpt>
      <trkpt lat="48.0516" lon="6.98428">
        <ele>851.42</ele>
        <time>2021-06-23T09:30:09Z</time>
      </trkpt>
      <trkpt lat="48.05163" lon="6.9841">
        <ele>851.06</ele>
        <time>2021-06-23T09:30:11Z</time>
      </trkpt>
      <trkpt lat="48.05172" lon="6.9838">
        <ele>850.77</ele>
        <time>2021-06-23T09:30:14Z</time>
      </trkpt>
      <trkpt lat="48.05176" lon="6.98362">
        <ele>850.34</ele>
        <time>2021-06-23T09:30:16Z</time>
      </trkpt>
      <trkpt lat="48.05179" lon="6.98335">
        <ele>852.08</ele>
        <time>2021-06-23T09:30:18Z</time>
      </trkpt>
      <trkpt lat="48.05182" lon="6.98229">
        <ele>853.65</ele>
        <time>2021-06-23T09:30:20Z</time>
      </trkpt>
      <trkpt lat="48.05192" lon="6.98141">
        <ele>855.26</ele>
        <time>2021-06-23T09:30:22Z</time>
      </trkpt>
      <trkpt lat="48.05193" lon="6.98112">
        <ele>855.25</ele>
        <time>2021-06-23T09:30:24Z</time>
      </trkpt>
      <trkpt lat="48.05181" lon="6.98032">
        <ele>855.5</ele>
        <time>2021-06-23T09:30:26Z</time>
      </trkpt>
      <trkpt lat="48.0518" lon="6.98011">
        <ele>857.24</ele>
        <time>2021-06-23T09:30:29Z</time>
      </trkpt>
      <trkpt lat="48.05186" lon="6.97974">
        <ele>860.31</ele>
        <time>2021-06-23T09:30:31Z</time>
      </trkpt>
      <trkpt lat="48.05202" lon="6.97924">
        <ele>863.93</ele>
        <time>2021-06-23T09:30:33Z</time>
      </trkpt>
      <trkpt lat="48.05202" lon="6.97913">
        <ele>866.18</ele>
        <time>2021-06-23T09:30:35Z</time>
      </trkpt>
      <trkpt lat="48.05199" lon="6.97898">
        <ele>869.91</ele>
        <time>2021-06-23T09:30:37Z</time>
      </trkpt>
      <trkpt lat="48.05199" lon="6.97898">
        <ele>869.91</ele>
        <time>2021-06-23T09:30:37Z</time>
      </trkpt>
      <trkpt lat="48.05194" lon="6.97892">
        <ele>872.16</ele>
        <time>2021-06-23T09:30:39Z</time>
      </trkpt>
      <trkpt lat="48.05181" lon="6.97893">
        <ele>873.72</ele>
        <time>2021-06-23T09:30:41Z</time>
      </trkpt>
      <trkpt lat="48.05175" lon="6.97898">
        <ele>872.59</ele>
        <time>2021-06-23T09:30:42Z</time>
      </trkpt>
      <trkpt lat="48.0517" lon="6.97908">
        <ele>869.71</ele>
        <time>2021-06-23T09:30:44Z</time>
      </trkpt>
      <trkpt lat="48.05129" lon="6.98018">
        <ele>874.18</ele>
        <time>2021-06-23T09:30:46Z</time>
      </trkpt>
      <trkpt lat="48.05091" lon="6.98169">
        <ele>890.76</ele>
        <time>2021-06-23T09:30:48Z</time>
      </trkpt>
      <trkpt lat="48.05086" lon="6.9821">
        <ele>891.83</ele>
        <time>2021-06-23T09:30:50Z</time>
      </trkpt>
      <trkpt lat="48.05086" lon="6.98287">
        <ele>888.59</ele>
        <time>2021-06-23T09:30:51Z</time>
      </trkpt>
      <trkpt lat="48.05083" lon="6.98314">
        <ele>888.11</ele>
        <time>2021-06-23T09:30:53Z</time>
      </trkpt>
      <trkpt lat="48.05074" lon="6.98343">
        <ele>893.27</ele>
        <time>2021-06-23T09:30:55Z</time>
      </trkpt>
      <trkpt lat="48.05054" lon="6.98383">
        <ele>905.08</ele>
        <time>2021-06-23T09:30:57Z</time>
      </trkpt>
      <trkpt lat="48.05047" lon="6.98405">
        <ele>910.06</ele>
        <time>2021-06-23T09:30:58Z</time>
      </trkpt>
      <trkpt lat="48.05042" lon="6.98427">
        <ele>912.66</ele>
        <time>2021-06-23T09:31:00Z</time>
      </trkpt>
      <trkpt lat="48.0504" lon="6.98444">
        <ele>913.54</ele>
        <time>2021-06-23T09:31:02Z</time>
      </trkpt>
      <trkpt lat="48.05042" lon="6.98484">
        <ele>906.93</ele>
        <time>2021-06-23T09:31:04Z</time>
      </trkpt>
      <trkpt lat="48.05041" lon="6.98497">
        <ele>905.96</ele>
        <time>2021-06-23T09:31:06Z</time>
      </trkpt>
      <trkpt lat="48.05037" lon="6.98514">
        <ele>906.83</ele>
        <time>2021-06-23T09:31:07Z</time>
      </trkpt>
      <trkpt lat="48.05026" lon="6.9854">
        <ele>911.91</ele>
        <time>2021-06-23T09:31:09Z</time>
      </trkpt>
      <trkpt lat="48.05022" lon="6.98562">
        <ele>914.55</ele>
        <time>2021-06-23T09:31:11Z</time>
      </trkpt>
      <trkpt lat="48.05017" lon="6.98617">
        <ele>917.06</ele>
        <time>2021-06-23T09:31:13Z</time>
      </trkpt>
      <trkpt lat="48.05012" lon="6.98646">
        <ele>918.17</ele>
        <time>2021-06-23T09:31:14Z</time>
      </trkpt>
      <trkpt lat="48.05012" lon="6.98665">
        <ele>916.62</ele>
        <time>2021-06-23T09:31:16Z</time>
      </trkpt>
      <trkpt lat="48.05014" lon="6.98688">
        <ele>913.43</ele>
        <time>2021-06-23T09:31:18Z</time>
      </trkpt>
      <trkpt lat="48.05013" lon="6.98701">
        <ele>912.4</ele>
        <time>2021-06-23T09:31:20Z</time>
      </trkpt>
      <trkpt lat="48.05013" lon="6.98701">
        <ele>912.4</ele>
        <time>2021-06-23T09:31:20Z</time>
      </trkpt>
      <trkpt lat="48.05011" lon="6.9871">
        <ele>912.28</ele>
        <time>2021-06-23T09:31:20Z</time>
      </trkpt>
      <trkpt lat="48.05006" lon="6.98716">
        <ele>912.84</ele>
        <time>2021-06-23T09:31:21Z</time>
      </trkpt>
      <trkpt lat="48.05002" lon="6.98719">
        <ele>913.92</ele>
        <time>2021-06-23T09:31:21Z</time>
      </trkpt>
      <trkpt lat="48.04995" lon="6.98719">
        <ele>917.57</ele>
        <time>2021-06-23T09:31:21Z</time>
      </trkpt>
      <trkpt lat="48.04991" lon="6.98716">
        <ele>921.07</ele>
        <time>2021-06-23T09:31:22Z</time>
      </trkpt>
      <trkpt lat="48.04995" lon="6.98689">
        <ele>923.49</ele>
        <time>2021-06-23T09:31:24Z</time>
      </trkpt>
      <trkpt lat="48.05004" lon="6.98552">
        <ele>929.08</ele>
        <time>2021-06-23T09:31:27Z</time>
      </trkpt>
      <trkpt lat="48.05012" lon="6.98503">
        <ele>925.12</ele>
        <time>2021-06-23T09:31:29Z</time>
      </trkpt>
      <trkpt lat="48.05012" lon="6.98485">
        <ele>926.31</ele>
        <time>2021-06-23T09:31:32Z</time>
      </trkpt>
      <trkpt lat="48.05007" lon="6.98442">
        <ele>937.31</ele>
        <time>2021-06-23T09:31:35Z</time>
      </trkpt>
      <trkpt lat="48.05007" lon="6.9842">
        <ele>940.9</ele>
        <time>2021-06-23T09:31:37Z</time>
      </trkpt>
      <trkpt lat="48.05012" lon="6.98385">
        <ele>937.27</ele>
        <time>2021-06-23T09:31:40Z</time>
      </trkpt>
      <trkpt lat="48.05022" lon="6.98349">
        <ele>929.3</ele>
        <time>2021-06-23T09:31:42Z</time>
      </trkpt>
      <trkpt lat="48.05026" lon="6.98327">
        <ele>926.85</ele>
        <time>2021-06-23T09:31:45Z</time>
      </trkpt>
      <trkpt lat="48.05027" lon="6.98299">
        <ele>925.51</ele>
        <time>2021-06-23T09:31:47Z</time>
      </trkpt>
      <trkpt lat="48.05022" lon="6.98264">
        <ele>928.18</ele>
        <time>2021-06-23T09:31:50Z</time>
      </trkpt>
      <trkpt lat="48.04996" lon="6.98154">
        <ele>942.18</ele>
        <time>2021-06-23T09:31:52Z</time>
      </trkpt>
      <trkpt lat="48.04992" lon="6.98107">
        <ele>941.76</ele>
        <time>2021-06-23T09:31:55Z</time>
      </trkpt>
      <trkpt lat="48.04989" lon="6.98085">
        <ele>941.12</ele>
        <time>2021-06-23T09:31:57Z</time>
      </trkpt>
      <trkpt lat="48.04983" lon="6.98058">
        <ele>941.65</ele>
        <time>2021-06-23T09:32:00Z</time>
      </trkpt>
      <trkpt lat="48.04946" lon="6.97934">
        <ele>944.42</ele>
        <time>2021-06-23T09:32:03Z</time>
      </trkpt>
      <trkpt lat="48.04926" lon="6.97888">
        <ele>946.71</ele>
        <time>2021-06-23T09:32:05Z</time>
      </trkpt>
      <trkpt lat="48.04874" lon="6.97798">
        <ele>957.53</ele>
        <time>2021-06-23T09:32:08Z</time>
      </trkpt>
      <trkpt lat="48.04849" lon="6.977">
        <ele>956.74</ele>
        <time>2021-06-23T09:32:10Z</time>
      </trkpt>
      <trkpt lat="48.04849" lon="6.977">
        <ele>956.74</ele>
        <time>2021-06-23T09:32:10Z</time>
      </trkpt>
      <trkpt lat="48.04838" lon="6.97677">
        <ele>959.04</ele>
        <time>2021-06-23T09:32:12Z</time>
      </trkpt>
      <trkpt lat="48.04813" lon="6.97638">
        <ele>966.35</ele>
        <time>2021-06-23T09:32:14Z</time>
      </trkpt>
      <trkpt lat="48.04786" lon="6.97601">
        <ele>962.11</ele>
        <time>2021-06-23T09:32:16Z</time>
      </trkpt>
      <trkpt lat="48.04777" lon="6.97591">
        <ele>960.11</ele>
        <time>2021-06-23T09:32:18Z</time>
      </trkpt>
      <trkpt lat="48.04761" lon="6.9758">
        <ele>957.5</ele>
        <time>2021-06-23T09:32:20Z</time>
      </trkpt>
      <trkpt lat="48.04736" lon="6.97569">
        <ele>955.87</ele>
        <time>2021-06-23T09:32:22Z</time>
      </trkpt>
      <trkpt lat="48.04711" lon="6.97564">
        <ele>954.52</ele>
        <time>2021-06-23T09:32:24Z</time>
      </trkpt>
      <trkpt lat="48.04698" lon="6.97565">
        <ele>953.96</ele>
        <time>2021-06-23T09:32:26Z</time>
      </trkpt>
      <trkpt lat="48.04633" lon="6.97588">
        <ele>954.76</ele>
        <time>2021-06-23T09:32:28Z</time>
      </trkpt>
      <trkpt lat="48.04531" lon="6.97611">
        <ele>954.23</ele>
        <time>2021-06-23T09:32:30Z</time>
      </trkpt>
      <trkpt lat="48.04446" lon="6.97613">
        <ele>949.05</ele>
        <time>2021-06-23T09:32:32Z</time>
      </trkpt>
      <trkpt lat="48.04334" lon="6.97618">
        <ele>954.65</ele>
        <time>2021-06-23T09:32:34Z</time>
      </trkpt>
      <trkpt lat="48.04311" lon="6.97617">
        <ele>954.7</ele>
        <time>2021-06-23T09:32:36Z</time>
      </trkpt>
      <trkpt lat="48.0429" lon="6.97613">
        <ele>957.93</ele>
        <time>2021-06-23T09:32:38Z</time>
      </trkpt>
      <trkpt lat="48.04229" lon="6.97581">
        <ele>947.41</ele>
        <time>2021-06-23T09:32:40Z</time>
      </trkpt>
      <trkpt lat="48.04146" lon="6.97545">
        <ele>940.42</ele>
        <time>2021-06-23T09:32:42Z</time>
      </trkpt>
      <trkpt lat="48.04111" lon="6.97534">
        <ele>941.42</ele>
        <time>2021-06-23T09:32:43Z</time>
      </trkpt>
      <trkpt lat="48.04075" lon="6.9752">
        <ele>944.36</ele>
        <time>2021-06-23T09:32:45Z</time>
      </trkpt>
      <trkpt lat="48.04051" lon="6.97504">
        <ele>940.78</ele>
        <time>2021-06-23T09:32:47Z</time>
      </trkpt>
      <trkpt lat="48.04024" lon="6.9748">
        <ele>934.62</ele>
        <time>2021-06-23T09:32:49Z</time>
      </trkpt>
      <trkpt lat="48.04004" lon="6.97455">
        <ele>929.21</ele>
        <time>2021-06-23T09:32:51Z</time>
      </trkpt>
      <trkpt lat="48.03987" lon="6.97423">
        <ele>926.79</ele>
        <time>2021-06-23T09:32:53Z</time>
      </trkpt>
      <trkpt lat="48.03979" lon="6.97398">
        <ele>926.43</ele>
        <time>2021-06-23T09:32:55Z</time>
      </trkpt>
      <trkpt lat="48.03975" lon="6.97376">
        <ele>927.67</ele>
        <time>2021-06-23T09:32:57Z</time>
      </trkpt>
      <trkpt lat="48.03976" lon="6.97363">
        <ele>928.3</ele>
        <time>2021-06-23T09:32:59Z</time>
      </trkpt>
      <trkpt lat="48.03975" lon="6.97357">
        <ele>928.59</ele>
        <time>2021-06-23T09:33:00Z</time>
      </trkpt>
      <trkpt lat="48.03962" lon="6.97338">
        <ele>927.61</ele>
        <time>2021-06-23T09:33:02Z</time>
      </trkpt>
      <trkpt lat="48.03953" lon="6.97305">
        <ele>923.25</ele>
        <time>2021-06-23T09:33:03Z</time>
      </trkpt>
      <trkpt lat="48.03949" lon="6.9728">
        <ele>920.67</ele>
        <time>2021-06-23T09:33:05Z</time>
      </trkpt>
      <trkpt lat="48.03942" lon="6.9726">
        <ele>919.62</ele>
        <time>2021-06-23T09:33:06Z</time>
      </trkpt>
      <trkpt lat="48.03933" lon="6.97243">
        <ele>918.97</ele>
        <time>2021-06-23T09:33:08Z</time>
      </trkpt>
      <trkpt lat="48.03913" lon="6.97216">
        <ele>918.53</ele>
        <time>2021-06-23T09:33:09Z</time>
      </trkpt>
      <trkpt lat="48.03835" lon="6.97151">
        <ele>914.24</ele>
        <time>2021-06-23T09:33:10Z</time>
      </trkpt>
      <trkpt lat="48.03814" lon="6.97127">
        <ele>910.59</ele>
        <time>2021-06-23T09:33:12Z</time>
      </trkpt>
      <trkpt lat="48.03782" lon="6.97074">
        <ele>907.28</ele>
        <time>2021-06-23T09:33:13Z</time>
      </trkpt>
      <trkpt lat="48.03758" lon="6.97025">
        <ele>904.19</ele>
        <time>2021-06-23T09:33:15Z</time>
      </trkpt>
      <trkpt lat="48.03724" lon="6.9697">
        <ele>898.65</ele>
        <time>2021-06-23T09:33:16Z</time>
      </trkpt>
      <trkpt lat="48.03677" lon="6.96903">
        <ele>892.55</ele>
        <time>2021-06-23T09:33:18Z</time>
      </trkpt>
      <trkpt lat="48.03676" lon="6.96896">
        <ele>892.28</ele>
        <time>2021-06-23T09:33:22Z</time>
      </trkpt>
      <trkpt lat="48.03672" lon="6.96886">
        <ele>891.63</ele>
        <time>2021-06-23T09:33:26Z</time>
      </trkpt>
      <trkpt lat="48.03662" lon="6.96881">
        <ele>891.59</ele>
        <time>2021-06-23T09:33:29Z</time>
      </trkpt>
      <trkpt lat="48.03653" lon="6.9687">
        <ele>891.82</ele>
        <time>2021-06-23T09:33:33Z</time>
      </trkpt>
      <trkpt lat="48.03627" lon="6.9683">
        <ele>891.25</ele>
        <time>2021-06-23T09:33:37Z</time>
      </trkpt>
      <trkpt lat="48.03612" lon="6.968">
        <ele>890.79</ele>
        <time>2021-06-23T09:33:41Z</time>
      </trkpt>
      <trkpt lat="48.03563" lon="6.9669">
        <ele>889.15</ele>
        <time>2021-06-23T09:33:45Z</time>
      </trkpt>
      <trkpt lat="48.03529" lon="6.96618">
        <ele>890.32</ele>
        <time>2021-06-23T09:33:48Z</time>
      </trkpt>
      <trkpt lat="48.03468" lon="6.96527">
        <ele>886.5</ele>
        <time>2021-06-23T09:33:52Z</time>
      </trkpt>
      <trkpt lat="48.03438" lon="6.96493">
        <ele>887.76</ele>
        <time>2021-06-23T09:33:56Z</time>
      </trkpt>
      <trkpt lat="48.03386" lon="6.96449">
        <ele>883.95</ele>
        <time>2021-06-23T09:34:00Z</time>
      </trkpt>
      <trkpt lat="48.03307" lon="6.96371">
        <ele>888.81</ele>
        <time>2021-06-23T09:34:04Z</time>
      </trkpt>
      <trkpt lat="48.03239" lon="6.96321">
        <ele>888.38</ele>
        <time>2021-06-23T09:34:07Z</time>
      </trkpt>
      <trkpt lat="48.03101" lon="6.96243">
        <ele>888.2</ele>
        <time>2021-06-23T09:34:11Z</time>
      </trkpt>
      <trkpt lat="48.03051" lon="6.96212">
        <ele>883.79</ele>
        <time>2021-06-23T09:34:15Z</time>
      </trkpt>
      <trkpt lat="48.02917" lon="6.96173">
        <ele>873.88</ele>
        <time>2021-06-23T09:34:19Z</time>
      </trkpt>
      <trkpt lat="48.02846" lon="6.96149">
        <ele>870.73</ele>
        <time>2021-06-23T09:34:23Z</time>
      </trkpt>
      <trkpt lat="48.02819" lon="6.96137">
        <ele>870.36</ele>
        <time>2021-06-23T09:34:27Z</time>
      </trkpt>
      <trkpt lat="48.02772" lon="6.96098">
        <ele>862.78</ele>
        <time>2021-06-23T09:34:30Z</time>
      </trkpt>
      <trkpt lat="48.02715" lon="6.96064">
        <ele>859.56</ele>
        <time>2021-06-23T09:34:34Z</time>
      </trkpt>
      <trkpt lat="48.02693" lon="6.96048">
        <ele>855.54</ele>
        <time>2021-06-23T09:34:38Z</time>
      </trkpt>
      <trkpt lat="48.02646" lon="6.96008">
        <ele>849.05</ele>
        <time>2021-06-23T09:34:42Z</time>
      </trkpt>
      <trkpt lat="48.02599" lon="6.95983">
        <ele>848.49</ele>
        <time>2021-06-23T09:34:46Z</time>
      </trkpt>
      <trkpt lat="48.0252" lon="6.95956">
        <ele>840.76</ele>
        <time>2021-06-23T09:34:49Z</time>
      </trkpt>
      <trkpt lat="48.0252" lon="6.95956">
        <ele>840.76</ele>
        <time>2021-06-23T09:34:49Z</time>
      </trkpt>
      <trkpt lat="48.02496" lon="6.95938">
        <ele>839.67</ele>
        <time>2021-06-23T09:34:53Z</time>
      </trkpt>
      <trkpt lat="48.02471" lon="6.95912">
        <ele>838.55</ele>
        <time>2021-06-23T09:34:57Z</time>
      </trkpt>
      <trkpt lat="48.02439" lon="6.95863">
        <ele>831.32</ele>
        <time>2021-06-23T09:35:01Z</time>
      </trkpt>
      <trkpt lat="48.0242" lon="6.95827">
        <ele>831.35</ele>
        <time>2021-06-23T09:35:05Z</time>
      </trkpt>
      <trkpt lat="48.02392" lon="6.95745">
        <ele>831.88</ele>
        <time>2021-06-23T09:35:08Z</time>
      </trkpt>
      <trkpt lat="48.0234" lon="6.95617">
        <ele>822.07</ele>
        <time>2021-06-23T09:35:12Z</time>
      </trkpt>
      <trkpt lat="48.02324" lon="6.95573">
        <ele>819.83</ele>
        <time>2021-06-23T09:35:16Z</time>
      </trkpt>
      <trkpt lat="48.02291" lon="6.95435">
        <ele>814.17</ele>
        <time>2021-06-23T09:35:20Z</time>
      </trkpt>
      <trkpt lat="48.02278" lon="6.95398">
        <ele>813.31</ele>
        <time>2021-06-23T09:35:24Z</time>
      </trkpt>
      <trkpt lat="48.02254" lon="6.95355">
        <ele>808.43</ele>
        <time>2021-06-23T09:35:27Z</time>
      </trkpt>
      <trkpt lat="48.02195" lon="6.95291">
        <ele>798.51</ele>
        <time>2021-06-23T09:35:31Z</time>
      </trkpt>
      <trkpt lat="48.0218" lon="6.9527">
        <ele>797.92</ele>
        <time>2021-06-23T09:35:35Z</time>
      </trkpt>
      <trkpt lat="48.02169" lon="6.95248">
        <ele>798.3</ele>
        <time>2021-06-23T09:35:39Z</time>
      </trkpt>
      <trkpt lat="48.02153" lon="6.95208">
        <ele>800.27</ele>
        <time>2021-06-23T09:35:43Z</time>
      </trkpt>
      <trkpt lat="48.02127" lon="6.95107">
        <ele>795.06</ele>
        <time>2021-06-23T09:35:46Z</time>
      </trkpt>
      <trkpt lat="48.02117" lon="6.95082">
        <ele>794.36</ele>
        <time>2021-06-23T09:35:50Z</time>
      </trkpt>
      <trkpt lat="48.02105" lon="6.95055">
        <ele>796.33</ele>
        <time>2021-06-23T09:35:54Z</time>
      </trkpt>
      <trkpt lat="48.02094" lon="6.95039">
        <ele>796.47</ele>
        <time>2021-06-23T09:35:58Z</time>
      </trkpt>
      <trkpt lat="48.02027" lon="6.94963">
        <ele>790.68</ele>
        <time>2021-06-23T09:36:02Z</time>
      </trkpt>
      <trkpt lat="48.02012" lon="6.94941">
        <ele>790.56</ele>
        <time>2021-06-23T09:36:05Z</time>
      </trkpt>
      <trkpt lat="48.01987" lon="6.94898">
        <ele>789.19</ele>
        <time>2021-06-23T09:36:09Z</time>
      </trkpt>
      <trkpt lat="48.01942" lon="6.94811">
        <ele>783.09</ele>
        <time>2021-06-23T09:36:13Z</time>
      </trkpt>
      <trkpt lat="48.0192" lon="6.94776">
        <ele>782.99</ele>
        <time>2021-06-23T09:36:17Z</time>
      </trkpt>
      <trkpt lat="48.01897" lon="6.94747">
        <ele>783.18</ele>
        <time>2021-06-23T09:36:20Z</time>
      </trkpt>
      <trkpt lat="48.01869" lon="6.94717">
        <ele>779.09</ele>
        <time>2021-06-23T09:36:24Z</time>
      </trkpt>
      <trkpt lat="48.01676" lon="6.94517">
        <ele>774.91</ele>
        <time>2021-06-23T09:36:28Z</time>
      </trkpt>
      <trkpt lat="48.01676" lon="6.94517">
        <ele>774.91</ele>
        <time>2021-06-23T09:36:28Z</time>
      </trkpt>
      <trkpt lat="48.01346" lon="6.94171">
        <ele>762.29</ele>
        <time>2021-06-23T09:36:36Z</time>
      </trkpt>
      <trkpt lat="48.01309" lon="6.94136">
        <ele>758.03</ele>
        <time>2021-06-23T09:36:44Z</time>
      </trkpt>
      <trkpt lat="48.01147" lon="6.9403">
        <ele>752.9</ele>
        <time>2021-06-23T09:36:52Z</time>
      </trkpt>
      <trkpt lat="48.01111" lon="6.93995">
        <ele>754.64</ele>
        <time>2021-06-23T09:37:00Z</time>
      </trkpt>
      <trkpt lat="48.01056" lon="6.93937">
        <ele>755.05</ele>
        <time>2021-06-23T09:37:08Z</time>
      </trkpt>
      <trkpt lat="48.01012" lon="6.93894">
        <ele>751.95</ele>
        <time>2021-06-23T09:37:15Z</time>
      </trkpt>
      <trkpt lat="48.00958" lon="6.93855">
        <ele>752.55</ele>
        <time>2021-06-23T09:37:23Z</time>
      </trkpt>
      <trkpt lat="48.00896" lon="6.93818">
        <ele>743.04</ele>
        <time>2021-06-23T09:37:31Z</time>
      </trkpt>
      <trkpt lat="48.00831" lon="6.9377">
        <ele>742.87</ele>
        <time>2021-06-23T09:37:39Z</time>
      </trkpt>
      <trkpt lat="48.00721" lon="6.9366">
        <ele>738.2</ele>
        <time>2021-06-23T09:37:47Z</time>
      </trkpt>
      <trkpt lat="48.00685" lon="6.9362">
        <ele>737.9</ele>
        <time>2021-06-23T09:37:55Z</time>
      </trkpt>
      <trkpt lat="48.0065" lon="6.93563">
        <ele>735.76</ele>
        <time>2021-06-23T09:38:03Z</time>
      </trkpt>
      <trkpt lat="48.00601" lon="6.9347">
        <ele>740.03</ele>
        <time>2021-06-23T09:38:11Z</time>
      </trkpt>
      <trkpt lat="48.00587" lon="6.93429">
        <ele>738.63</ele>
        <time>2021-06-23T09:38:19Z</time>
      </trkpt>
      <trkpt lat="48.00558" lon="6.9332">
        <ele>739.8</ele>
        <time>2021-06-23T09:38:27Z</time>
      </trkpt>
      <trkpt lat="48.00545" lon="6.9328">
        <ele>740.52</ele>
        <time>2021-06-23T09:38:34Z</time>
      </trkpt>
      <trkpt lat="48.00434" lon="6.93052">
        <ele>738.4</ele>
        <time>2021-06-23T09:38:42Z</time>
      </trkpt>
      <trkpt lat="48.0041" lon="6.92996">
        <ele>736.95</ele>
        <time>2021-06-23T09:38:50Z</time>
      </trkpt>
      <trkpt lat="48.00381" lon="6.92903">
        <ele>733.4</ele>
        <time>2021-06-23T09:38:58Z</time>
      </trkpt>
      <trkpt lat="48.00372" lon="6.92909">
        <ele>731.69</ele>
        <time>2021-06-23T09:39:01Z</time>
      </trkpt>
      <trkpt lat="48.00364" lon="6.92917">
        <ele>730.28</ele>
        <time>2021-06-23T09:39:04Z</time>
      </trkpt>
      <trkpt lat="48.0032" lon="6.92988">
        <ele>726.69</ele>
        <time>2021-06-23T09:39:07Z</time>
      </trkpt>
      <trkpt lat="48.0032" lon="6.92988">
        <ele>726.69</ele>
        <time>2021-06-23T09:39:07Z</time>
      </trkpt>
      <trkpt lat="48.00303" lon="6.93022">
        <ele>726.61</ele>
        <time>2021-06-23T09:39:11Z</time>
      </trkpt>
      <trkpt lat="48.0029" lon="6.93057">
        <ele>729.16</ele>
        <time>2021-06-23T09:39:15Z</time>
      </trkpt>
      <trkpt lat="48.00284" lon="6.93082">
        <ele>734.04</ele>
        <time>2021-06-23T09:39:20Z</time>
      </trkpt>
      <trkpt lat="48.00278" lon="6.93118">
        <ele>738.06</ele>
        <time>2021-06-23T09:39:24Z</time>
      </trkpt>
      <trkpt lat="48.00276" lon="6.9316">
        <ele>737.79</ele>
        <time>2021-06-23T09:39:28Z</time>
      </trkpt>
      <trkpt lat="48.00278" lon="6.93274">
        <ele>744.32</ele>
        <time>2021-06-23T09:39:32Z</time>
      </trkpt>
      <trkpt lat="48.00283" lon="6.93361">
        <ele>742.23</ele>
        <time>2021-06-23T09:39:36Z</time>
      </trkpt>
      <trkpt lat="48.00291" lon="6.93407">
        <ele>744.61</ele>
        <time>2021-06-23T09:39:41Z</time>
      </trkpt>
      <trkpt lat="48.00312" lon="6.93501">
        <ele>747.91</ele>
        <time>2021-06-23T09:39:45Z</time>
      </trkpt>
      <trkpt lat="48.00325" lon="6.9355">
        <ele>753.2</ele>
        <time>2021-06-23T09:39:49Z</time>
      </trkpt>
      <trkpt lat="48.00357" lon="6.93637">
        <ele>755.07</ele>
        <time>2021-06-23T09:39:53Z</time>
      </trkpt>
      <trkpt lat="48.00366" lon="6.93675">
        <ele>753.97</ele>
        <time>2021-06-23T09:39:58Z</time>
      </trkpt>
      <trkpt lat="48.00375" lon="6.93744">
        <ele>764.57</ele>
        <time>2021-06-23T09:40:02Z</time>
      </trkpt>
      <trkpt lat="48.00375" lon="6.93744">
        <ele>764.57</ele>
        <time>2021-06-23T09:40:02Z</time>
      </trkpt>
      <trkpt lat="48.0039" lon="6.93782">
        <ele>763.69</ele>
        <time>2021-06-23T09:40:05Z</time>
      </trkpt>
      <trkpt lat="48.00402" lon="6.93798">
        <ele>764.99</ele>
        <time>2021-06-23T09:40:07Z</time>
      </trkpt>
      <trkpt lat="48.00417" lon="6.93816">
        <ele>766.45</ele>
        <time>2021-06-23T09:40:10Z</time>
      </trkpt>
      <trkpt lat="48.00436" lon="6.93829">
        <ele>767.86</ele>
        <time>2021-06-23T09:40:12Z</time>
      </trkpt>
      <trkpt lat="48.00477" lon="6.9385">
        <ele>765.45</ele>
        <time>2021-06-23T09:40:15Z</time>
      </trkpt>
      <trkpt lat="48.00493" lon="6.93864">
        <ele>765.34</ele>
        <time>2021-06-23T09:40:18Z</time>
      </trkpt>
      <trkpt lat="48.00512" lon="6.93894">
        <ele>768.03</ele>
        <time>2021-06-23T09:40:20Z</time>
      </trkpt>
      <trkpt lat="48.00548" lon="6.93968">
        <ele>768.91</ele>
        <time>2021-06-23T09:40:23Z</time>
      </trkpt>
      <trkpt lat="48.00617" lon="6.94121">
        <ele>775.07</ele>
        <time>2021-06-23T09:40:26Z</time>
      </trkpt>
      <trkpt lat="48.00638" lon="6.94159">
        <ele>778.02</ele>
        <time>2021-06-23T09:40:28Z</time>
      </trkpt>
      <trkpt lat="48.00659" lon="6.94183">
        <ele>779.45</ele>
        <time>2021-06-23T09:40:31Z</time>
      </trkpt>
      <trkpt lat="48.00698" lon="6.94206">
        <ele>780.95</ele>
        <time>2021-06-23T09:40:34Z</time>
      </trkpt>
      <trkpt lat="48.00741" lon="6.94256">
        <ele>792.69</ele>
        <time>2021-06-23T09:40:36Z</time>
      </trkpt>
      <trkpt lat="48.0076" lon="6.9427">
        <ele>795.17</ele>
        <time>2021-06-23T09:40:39Z</time>
      </trkpt>
      <trkpt lat="48.00808" lon="6.94295">
        <ele>795.1</ele>
        <time>2021-06-23T09:40:41Z</time>
      </trkpt>
      <trkpt lat="48.00844" lon="6.94321">
        <ele>793.42</ele>
        <time>2021-06-23T09:40:44Z</time>
      </trkpt>
      <trkpt lat="48.00924" lon="6.94396">
        <ele>811</ele>
        <time>2021-06-23T09:40:47Z</time>
      </trkpt>
      <trkpt lat="48.00997" lon="6.94434">
        <ele>813.09</ele>
        <time>2021-06-23T09:40:49Z</time>
      </trkpt>
      <trkpt lat="48.01146" lon="6.94559">
        <ele>823.68</ele>
        <time>2021-06-23T09:40:52Z</time>
      </trkpt>
      <trkpt lat="48.01197" lon="6.94604">
        <ele>824.27</ele>
        <time>2021-06-23T09:40:55Z</time>
      </trkpt>
      <trkpt lat="48.01229" lon="6.94638">
        <ele>827.4</ele>
        <time>2021-06-23T09:40:57Z</time>
      </trkpt>
      <trkpt lat="48.01277" lon="6.94699">
        <ele>832.19</ele>
        <time>2021-06-23T09:41:00Z</time>
      </trkpt>
      <trkpt lat="48.01312" lon="6.94737">
        <ele>835.79</ele>
        <time>2021-06-23T09:41:03Z</time>
      </trkpt>
      <trkpt lat="48.01315" lon="6.94747">
        <ele>838.18</ele>
        <time>2021-06-23T09:41:05Z</time>
      </trkpt>
      <trkpt lat="48.01314" lon="6.94753">
        <ele>839.42</ele>
        <time>2021-06-23T09:41:08Z</time>
      </trkpt>
      <trkpt lat="48.01312" lon="6.94756">
        <ele>840.2</ele>
        <time>2021-06-23T09:41:10Z</time>
      </trkpt>
      <trkpt lat="48.01308" lon="6.94758">
        <ele>841.56</ele>
        <time>2021-06-23T09:41:13Z</time>
      </trkpt>
      <trkpt lat="48.01299" lon="6.94754">
        <ele>846.5</ele>
        <time>2021-06-23T09:41:16Z</time>
      </trkpt>
      <trkpt lat="48.01299" lon="6.94754">
        <ele>846.5</ele>
        <time>2021-06-23T09:41:16Z</time>
      </trkpt>
      <trkpt lat="48.01222" lon="6.94691">
        <ele>850.01</ele>
        <time>2021-06-23T09:41:18Z</time>
      </trkpt>
      <trkpt lat="48.01196" lon="6.94673">
        <ele>851.02</ele>
        <time>2021-06-23T09:41:21Z</time>
      </trkpt>
      <trkpt lat="48.01178" lon="6.94665">
        <ele>852.64</ele>
        <time>2021-06-23T09:41:24Z</time>
      </trkpt>
      <trkpt lat="48.01094" lon="6.9465">
        <ele>863.13</ele>
        <time>2021-06-23T09:41:27Z</time>
      </trkpt>
      <trkpt lat="48.0099" lon="6.94609">
        <ele>871.79</ele>
        <time>2021-06-23T09:41:29Z</time>
      </trkpt>
      <trkpt lat="48.00939" lon="6.94593">
        <ele>877.56</ele>
        <time>2021-06-23T09:41:32Z</time>
      </trkpt>
      <trkpt lat="48.00835" lon="6.94569">
        <ele>891.24</ele>
        <time>2021-06-23T09:41:35Z</time>
      </trkpt>
      <trkpt lat="48.00776" lon="6.94552">
        <ele>893.91</ele>
        <time>2021-06-23T09:41:38Z</time>
      </trkpt>
      <trkpt lat="48.00746" lon="6.94547">
        <ele>896.06</ele>
        <time>2021-06-23T09:41:40Z</time>
      </trkpt>
      <trkpt lat="48.00729" lon="6.94549">
        <ele>898.74</ele>
        <time>2021-06-23T09:41:43Z</time>
      </trkpt>
      <trkpt lat="48.00729" lon="6.94558">
        <ele>902.18</ele>
        <time>2021-06-23T09:41:44Z</time>
      </trkpt>
      <trkpt lat="48.00731" lon="6.94563">
        <ele>904.28</ele>
        <time>2021-06-23T09:41:44Z</time>
      </trkpt>
      <trkpt lat="48.00736" lon="6.94567">
        <ele>905.6</ele>
        <time>2021-06-23T09:41:45Z</time>
      </trkpt>
      <trkpt lat="48.00753" lon="6.9457">
        <ele>904.89</ele>
        <time>2021-06-23T09:41:46Z</time>
      </trkpt>
      <trkpt lat="48.00753" lon="6.9457">
        <ele>904.89</ele>
        <time>2021-06-23T09:41:46Z</time>
      </trkpt>
      <trkpt lat="48.00765" lon="6.94572">
        <ele>904.17</ele>
        <time>2021-06-23T09:41:48Z</time>
      </trkpt>
      <trkpt lat="48.00789" lon="6.94585">
        <ele>903.78</ele>
        <time>2021-06-23T09:41:50Z</time>
      </trkpt>
      <trkpt lat="48.00805" lon="6.94599">
        <ele>904.83</ele>
        <time>2021-06-23T09:41:52Z</time>
      </trkpt>
      <trkpt lat="48.00827" lon="6.94623">
        <ele>908.53</ele>
        <time>2021-06-23T09:41:54Z</time>
      </trkpt>
      <trkpt lat="48.0086" lon="6.94645">
        <ele>909.01</ele>
        <time>2021-06-23T09:41:57Z</time>
      </trkpt>
      <trkpt lat="48.00883" lon="6.9467">
        <ele>910.39</ele>
        <time>2021-06-23T09:41:59Z</time>
      </trkpt>
      <trkpt lat="48.00942" lon="6.9474">
        <ele>914.73</ele>
        <time>2021-06-23T09:42:01Z</time>
      </trkpt>
      <trkpt lat="48.00989" lon="6.94779">
        <ele>918.28</ele>
        <time>2021-06-23T09:42:03Z</time>
      </trkpt>
      <trkpt lat="48.0105" lon="6.94849">
        <ele>926.33</ele>
        <time>2021-06-23T09:42:05Z</time>
      </trkpt>
      <trkpt lat="48.01055" lon="6.94857">
        <ele>927.25</ele>
        <time>2021-06-23T09:42:08Z</time>
      </trkpt>
      <trkpt lat="48.0106" lon="6.94873">
        <ele>928.5</ele>
        <time>2021-06-23T09:42:10Z</time>
      </trkpt>
      <trkpt lat="48.01063" lon="6.94892">
        <ele>929.64</ele>
        <time>2021-06-23T09:42:12Z</time>
      </trkpt>
      <trkpt lat="48.01064" lon="6.94908">
        <ele>930.06</ele>
        <time>2021-06-23T09:42:14Z</time>
      </trkpt>
      <trkpt lat="48.01061" lon="6.94927">
        <ele>931.95</ele>
        <time>2021-06-23T09:42:16Z</time>
      </trkpt>
      <trkpt lat="48.01055" lon="6.94943">
        <ele>935.4</ele>
        <time>2021-06-23T09:42:19Z</time>
      </trkpt>
      <trkpt lat="48.01021" lon="6.94999">
        <ele>948.53</ele>
        <time>2021-06-23T09:42:21Z</time>
      </trkpt>
      <trkpt lat="48.0097" lon="6.951">
        <ele>964.68</ele>
        <time>2021-06-23T09:42:23Z</time>
      </trkpt>
      <trkpt lat="48.00955" lon="6.95162">
        <ele>968.62</ele>
        <time>2021-06-23T09:42:25Z</time>
      </trkpt>
      <trkpt lat="48.00955" lon="6.95247">
        <ele>965.48</ele>
        <time>2021-06-23T09:42:27Z</time>
      </trkpt>
      <trkpt lat="48.00957" lon="6.95322">
        <ele>973.63</ele>
        <time>2021-06-23T09:42:30Z</time>
      </trkpt>
      <trkpt lat="48.00984" lon="6.95444">
        <ele>971.44</ele>
        <time>2021-06-23T09:42:32Z</time>
      </trkpt>
      <trkpt lat="48.00984" lon="6.95541">
        <ele>975.89</ele>
        <time>2021-06-23T09:42:34Z</time>
      </trkpt>
      <trkpt lat="48.01001" lon="6.9562">
        <ele>974.38</ele>
        <time>2021-06-23T09:42:36Z</time>
      </trkpt>
      <trkpt lat="48.01011" lon="6.95652">
        <ele>977.43</ele>
        <time>2021-06-23T09:42:38Z</time>
      </trkpt>
      <trkpt lat="48.01013" lon="6.9566">
        <ele>978.29</ele>
        <time>2021-06-23T09:42:40Z</time>
      </trkpt>
      <trkpt lat="48.01012" lon="6.95677">
        <ele>979.74</ele>
        <time>2021-06-23T09:42:43Z</time>
      </trkpt>
      <trkpt lat="48.01008" lon="6.95699">
        <ele>980.86</ele>
        <time>2021-06-23T09:42:45Z</time>
      </trkpt>
      <trkpt lat="48.00997" lon="6.95728">
        <ele>982.66</ele>
        <time>2021-06-23T09:42:47Z</time>
      </trkpt>
      <trkpt lat="48.00973" lon="6.95772">
        <ele>985.43</ele>
        <time>2021-06-23T09:42:49Z</time>
      </trkpt>
      <trkpt lat="48.00969" lon="6.95783">
        <ele>986.74</ele>
        <time>2021-06-23T09:42:51Z</time>
      </trkpt>
      <trkpt lat="48.00961" lon="6.95843">
        <ele>991.04</ele>
        <time>2021-06-23T09:42:54Z</time>
      </trkpt>
      <trkpt lat="48.00956" lon="6.95935">
        <ele>990.45</ele>
        <time>2021-06-23T09:42:56Z</time>
      </trkpt>
      <trkpt lat="48.00957" lon="6.95958">
        <ele>990.67</ele>
        <time>2021-06-23T09:42:58Z</time>
      </trkpt>
      <trkpt lat="48.00958" lon="6.95968">
        <ele>991</ele>
        <time>2021-06-23T09:43:00Z</time>
      </trkpt>
      <trkpt lat="48.00963" lon="6.95974">
        <ele>991.61</ele>
        <time>2021-06-23T09:43:02Z</time>
      </trkpt>
      <trkpt lat="48.00973" lon="6.95974">
        <ele>993.14</ele>
        <time>2021-06-23T09:43:05Z</time>
      </trkpt>
      <trkpt lat="48.00987" lon="6.95971">
        <ele>996.8</ele>
        <time>2021-06-23T09:43:07Z</time>
      </trkpt>
      <trkpt lat="48.01001" lon="6.95964">
        <ele>1000.23</ele>
        <time>2021-06-23T09:43:09Z</time>
      </trkpt>
      <trkpt lat="48.01011" lon="6.95957">
        <ele>1002.66</ele>
        <time>2021-06-23T09:43:11Z</time>
      </trkpt>
      <trkpt lat="48.01031" lon="6.95929">
        <ele>1007.16</ele>
        <time>2021-06-23T09:43:13Z</time>
      </trkpt>
      <trkpt lat="48.01055" lon="6.95908">
        <ele>1011.01</ele>
        <time>2021-06-23T09:43:16Z</time>
      </trkpt>
      <trkpt lat="48.01086" lon="6.9587">
        <ele>1014.66</ele>
        <time>2021-06-23T09:43:18Z</time>
      </trkpt>
      <trkpt lat="48.01133" lon="6.95806">
        <ele>1018.81</ele>
        <time>2021-06-23T09:43:20Z</time>
      </trkpt>
      <trkpt lat="48.0115" lon="6.95751">
        <ele>1020.19</ele>
        <time>2021-06-23T09:43:22Z</time>
      </trkpt>
      <trkpt lat="48.01155" lon="6.95741">
        <ele>1021.56</ele>
        <time>2021-06-23T09:43:24Z</time>
      </trkpt>
      <trkpt lat="48.01158" lon="6.9574">
        <ele>1022.31</ele>
        <time>2021-06-23T09:43:27Z</time>
      </trkpt>
      <trkpt lat="48.01163" lon="6.95741">
        <ele>1023.57</ele>
        <time>2021-06-23T09:43:29Z</time>
      </trkpt>
      <trkpt lat="48.01166" lon="6.95746">
        <ele>1024.71</ele>
        <time>2021-06-23T09:43:31Z</time>
      </trkpt>
      <trkpt lat="48.01168" lon="6.95754">
        <ele>1025.57</ele>
        <time>2021-06-23T09:43:33Z</time>
      </trkpt>
      <trkpt lat="48.01161" lon="6.95783">
        <ele>1024.62</ele>
        <time>2021-06-23T09:43:35Z</time>
      </trkpt>
      <trkpt lat="48.0114" lon="6.95851">
        <ele>1027.68</ele>
        <time>2021-06-23T09:43:37Z</time>
      </trkpt>
      <trkpt lat="48.01133" lon="6.95902">
        <ele>1032.35</ele>
        <time>2021-06-23T09:43:40Z</time>
      </trkpt>
      <trkpt lat="48.01134" lon="6.9593">
        <ele>1034.66</ele>
        <time>2021-06-23T09:43:42Z</time>
      </trkpt>
      <trkpt lat="48.01137" lon="6.95944">
        <ele>1036.2</ele>
        <time>2021-06-23T09:43:44Z</time>
      </trkpt>
      <trkpt lat="48.01143" lon="6.9596">
        <ele>1039.11</ele>
        <time>2021-06-23T09:43:46Z</time>
      </trkpt>
      <trkpt lat="48.01146" lon="6.95975">
        <ele>1040.52</ele>
        <time>2021-06-23T09:43:48Z</time>
      </trkpt>
      <trkpt lat="48.01145" lon="6.96001">
        <ele>1041.44</ele>
        <time>2021-06-23T09:43:51Z</time>
      </trkpt>
      <trkpt lat="48.01145" lon="6.96001">
        <ele>1041.44</ele>
        <time>2021-06-23T09:43:51Z</time>
      </trkpt>
      <trkpt lat="48.01145" lon="6.96034">
        <ele>1042.36</ele>
        <time>2021-06-23T09:43:53Z</time>
      </trkpt>
      <trkpt lat="48.01142" lon="6.96059">
        <ele>1042.46</ele>
        <time>2021-06-23T09:43:55Z</time>
      </trkpt>
      <trkpt lat="48.0113" lon="6.96096">
        <ele>1041.25</ele>
        <time>2021-06-23T09:43:57Z</time>
      </trkpt>
      <trkpt lat="48.01128" lon="6.96144">
        <ele>1046.74</ele>
        <time>2021-06-23T09:44:00Z</time>
      </trkpt>
      <trkpt lat="48.01122" lon="6.96188">
        <ele>1050.83</ele>
        <time>2021-06-23T09:44:02Z</time>
      </trkpt>
      <trkpt lat="48.01102" lon="6.96261">
        <ele>1056.65</ele>
        <time>2021-06-23T09:44:04Z</time>
      </trkpt>
      <trkpt lat="48.01055" lon="6.96391">
        <ele>1062.17</ele>
        <time>2021-06-23T09:44:06Z</time>
      </trkpt>
      <trkpt lat="48.01048" lon="6.96417">
        <ele>1063.24</ele>
        <time>2021-06-23T09:44:08Z</time>
      </trkpt>
      <trkpt lat="48.01046" lon="6.96461">
        <ele>1064.97</ele>
        <time>2021-06-23T09:44:11Z</time>
      </trkpt>
      <trkpt lat="48.01059" lon="6.96593">
        <ele>1072.23</ele>
        <time>2021-06-23T09:44:13Z</time>
      </trkpt>
      <trkpt lat="48.01063" lon="6.96677">
        <ele>1074.94</ele>
        <time>2021-06-23T09:44:15Z</time>
      </trkpt>
      <trkpt lat="48.01062" lon="6.96703">
        <ele>1077.53</ele>
        <time>2021-06-23T09:44:17Z</time>
      </trkpt>
      <trkpt lat="48.01055" lon="6.96747">
        <ele>1079.78</ele>
        <time>2021-06-23T09:44:20Z</time>
      </trkpt>
      <trkpt lat="48.01054" lon="6.96778">
        <ele>1083.75</ele>
        <time>2021-06-23T09:44:22Z</time>
      </trkpt>
      <trkpt lat="48.01049" lon="6.96792">
        <ele>1085.54</ele>
        <time>2021-06-23T09:44:24Z</time>
      </trkpt>
      <trkpt lat="48.00971" lon="6.96869">
        <ele>1095.7</ele>
        <time>2021-06-23T09:44:26Z</time>
      </trkpt>
      <trkpt lat="48.00933" lon="6.969">
        <ele>1094.96</ele>
        <time>2021-06-23T09:44:28Z</time>
      </trkpt>
      <trkpt lat="48.00898" lon="6.96919">
        <ele>1095.47</ele>
        <time>2021-06-23T09:44:31Z</time>
      </trkpt>
      <trkpt lat="48.00888" lon="6.96928">
        <ele>1097.66</ele>
        <time>2021-06-23T09:44:33Z</time>
      </trkpt>
      <trkpt lat="48.00883" lon="6.96936">
        <ele>1099.9</ele>
        <time>2021-06-23T09:44:35Z</time>
      </trkpt>
      <trkpt lat="48.00884" lon="6.96948">
        <ele>1102.54</ele>
        <time>2021-06-23T09:44:37Z</time>
      </trkpt>
      <trkpt lat="48.0089" lon="6.96957">
        <ele>1104.25</ele>
        <time>2021-06-23T09:44:40Z</time>
      </trkpt>
      <trkpt lat="48.01024" lon="6.96976">
        <ele>1116.92</ele>
        <time>2021-06-23T09:44:42Z</time>
      </trkpt>
      <trkpt lat="48.01053" lon="6.9697">
        <ele>1116.56</ele>
        <time>2021-06-23T09:44:44Z</time>
      </trkpt>
      <trkpt lat="48.01081" lon="6.96954">
        <ele>1118.12</ele>
        <time>2021-06-23T09:44:46Z</time>
      </trkpt>
      <trkpt lat="48.01093" lon="6.96942">
        <ele>1118.06</ele>
        <time>2021-06-23T09:44:48Z</time>
      </trkpt>
      <trkpt lat="48.01105" lon="6.96916">
        <ele>1115.13</ele>
        <time>2021-06-23T09:44:51Z</time>
      </trkpt>
      <trkpt lat="48.01114" lon="6.96905">
        <ele>1114.23</ele>
        <time>2021-06-23T09:44:53Z</time>
      </trkpt>
      <trkpt lat="48.0112" lon="6.96904">
        <ele>1114.77</ele>
        <time>2021-06-23T09:44:55Z</time>
      </trkpt>
      <trkpt lat="48.01127" lon="6.96907">
        <ele>1116.02</ele>
        <time>2021-06-23T09:44:57Z</time>
      </trkpt>
      <trkpt lat="48.01134" lon="6.96913">
        <ele>1118.49</ele>
        <time>2021-06-23T09:45:00Z</time>
      </trkpt>
      <trkpt lat="48.01138" lon="6.96922">
        <ele>1120.6</ele>
        <time>2021-06-23T09:45:02Z</time>
      </trkpt>
      <trkpt lat="48.0114" lon="6.9693">
        <ele>1122.03</ele>
        <time>2021-06-23T09:45:04Z</time>
      </trkpt>
      <trkpt lat="48.01139" lon="6.96939">
        <ele>1123.29</ele>
        <time>2021-06-23T09:45:06Z</time>
      </trkpt>
      <trkpt lat="48.01133" lon="6.96956">
        <ele>1124.68</ele>
        <time>2021-06-23T09:45:09Z</time>
      </trkpt>
      <trkpt lat="48.01026" lon="6.97068">
        <ele>1136.68</ele>
        <time>2021-06-23T09:45:11Z</time>
      </trkpt>
      <trkpt lat="48.00942" lon="6.97113">
        <ele>1140.65</ele>
        <time>2021-06-23T09:45:13Z</time>
      </trkpt>
      <trkpt lat="48.00884" lon="6.97131">
        <ele>1147.59</ele>
        <time>2021-06-23T09:45:15Z</time>
      </trkpt>
      <trkpt lat="48.00837" lon="6.97142">
        <ele>1154.2</ele>
        <time>2021-06-23T09:45:17Z</time>
      </trkpt>
      <trkpt lat="48.00762" lon="6.97149">
        <ele>1155.09</ele>
        <time>2021-06-23T09:45:20Z</time>
      </trkpt>
      <trkpt lat="48.00755" lon="6.97153">
        <ele>1155.56</ele>
        <time>2021-06-23T09:45:22Z</time>
      </trkpt>
      <trkpt lat="48.00742" lon="6.97175">
        <ele>1156.98</ele>
        <time>2021-06-23T09:45:24Z</time>
      </trkpt>
      <trkpt lat="48.0073" lon="6.97198">
        <ele>1157.37</ele>
        <time>2021-06-23T09:45:26Z</time>
      </trkpt>
      <trkpt lat="48.00727" lon="6.97209">
        <ele>1157.39</ele>
        <time>2021-06-23T09:45:29Z</time>
      </trkpt>
      <trkpt lat="48.00728" lon="6.97219">
        <ele>1157.99</ele>
        <time>2021-06-23T09:45:31Z</time>
      </trkpt>
      <trkpt lat="48.0073" lon="6.9723">
        <ele>1158.73</ele>
        <time>2021-06-23T09:45:33Z</time>
      </trkpt>
      <trkpt lat="48.00738" lon="6.97249">
        <ele>1160.95</ele>
        <time>2021-06-23T09:45:35Z</time>
      </trkpt>
      <trkpt lat="48.00748" lon="6.97261">
        <ele>1163.47</ele>
        <time>2021-06-23T09:45:37Z</time>
      </trkpt>
      <trkpt lat="48.0075" lon="6.97267">
        <ele>1164.08</ele>
        <time>2021-06-23T09:45:40Z</time>
      </trkpt>
      <trkpt lat="48.00751" lon="6.97275">
        <ele>1164.26</ele>
        <time>2021-06-23T09:45:42Z</time>
      </trkpt>
      <trkpt lat="48.0075" lon="6.97288">
        <ele>1163.91</ele>
        <time>2021-06-23T09:45:44Z</time>
      </trkpt>
      <trkpt lat="48.00746" lon="6.97309">
        <ele>1162.7</ele>
        <time>2021-06-23T09:45:46Z</time>
      </trkpt>
      <trkpt lat="48.00754" lon="6.9736">
        <ele>1168.03</ele>
        <time>2021-06-23T09:45:49Z</time>
      </trkpt>
      <trkpt lat="48.00753" lon="6.97402">
        <ele>1169.1</ele>
        <time>2021-06-23T09:45:51Z</time>
      </trkpt>
      <trkpt lat="48.00755" lon="6.97429">
        <ele>1169.84</ele>
        <time>2021-06-23T09:45:53Z</time>
      </trkpt>
      <trkpt lat="48.00759" lon="6.97451">
        <ele>1172.12</ele>
        <time>2021-06-23T09:45:55Z</time>
      </trkpt>
      <trkpt lat="48.00759" lon="6.97466">
        <ele>1173.8</ele>
        <time>2021-06-23T09:45:57Z</time>
      </trkpt>
      <trkpt lat="48.00755" lon="6.97476">
        <ele>1173.7</ele>
        <time>2021-06-23T09:46:00Z</time>
      </trkpt>
      <trkpt lat="48.00738" lon="6.97493">
        <ele>1172.03</ele>
        <time>2021-06-23T09:46:02Z</time>
      </trkpt>
      <trkpt lat="48.00731" lon="6.97505">
        <ele>1172.56</ele>
        <time>2021-06-23T09:46:04Z</time>
      </trkpt>
      <trkpt lat="48.00715" lon="6.97545">
        <ele>1177.16</ele>
        <time>2021-06-23T09:46:06Z</time>
      </trkpt>
      <trkpt lat="48.00701" lon="6.97592">
        <ele>1181.49</ele>
        <time>2021-06-23T09:46:09Z</time>
      </trkpt>
      <trkpt lat="48.00693" lon="6.97628">
        <ele>1182.04</ele>
        <time>2021-06-23T09:46:11Z</time>
      </trkpt>
      <trkpt lat="48.00679" lon="6.97714">
        <ele>1188.38</ele>
        <time>2021-06-23T09:46:13Z</time>
      </trkpt>
      <trkpt lat="48.00666" lon="6.97766">
        <ele>1191.98</ele>
        <time>2021-06-23T09:46:15Z</time>
      </trkpt>
      <trkpt lat="48.00666" lon="6.97775">
        <ele>1193.5</ele>
        <time>2021-06-23T09:46:17Z</time>
      </trkpt>
      <trkpt lat="48.00669" lon="6.97782">
        <ele>1195.2</ele>
        <time>2021-06-23T09:46:20Z</time>
      </trkpt>
      <trkpt lat="48.00665" lon="6.97788">
        <ele>1194.03</ele>
        <time>2021-06-23T09:46:20Z</time>
      </trkpt>
      <trkpt lat="48.00665" lon="6.97788">
        <ele>1194.03</ele>
        <time>2021-06-23T09:46:20Z</time>
      </trkpt>
      <trkpt lat="48.00652" lon="6.97811">
        <ele>1192.87</ele>
        <time>2021-06-23T09:46:23Z</time>
      </trkpt>
      <trkpt lat="48.00632" lon="6.97841">
        <ele>1189.86</ele>
        <time>2021-06-23T09:46:27Z</time>
      </trkpt>
      <trkpt lat="48.00617" lon="6.97857">
        <ele>1187.46</ele>
        <time>2021-06-23T09:46:30Z</time>
      </trkpt>
      <trkpt lat="48.00603" lon="6.97868">
        <ele>1186.15</ele>
        <time>2021-06-23T09:46:33Z</time>
      </trkpt>
      <trkpt lat="48.0059" lon="6.97873">
        <ele>1185.63</ele>
        <time>2021-06-23T09:46:37Z</time>
      </trkpt>
      <trkpt lat="48.00565" lon="6.97877">
        <ele>1185.89</ele>
        <time>2021-06-23T09:46:40Z</time>
      </trkpt>
      <trkpt lat="48.00523" lon="6.97868">
        <ele>1190.56</ele>
        <time>2021-06-23T09:46:43Z</time>
      </trkpt>
      <trkpt lat="48.00503" lon="6.97857">
        <ele>1194.17</ele>
        <time>2021-06-23T09:46:47Z</time>
      </trkpt>
      <trkpt lat="48.00479" lon="6.9784">
        <ele>1193.66</ele>
        <time>2021-06-23T09:46:50Z</time>
      </trkpt>
      <trkpt lat="48.00384" lon="6.97761">
        <ele>1197.11</ele>
        <time>2021-06-23T09:46:53Z</time>
      </trkpt>
      <trkpt lat="48.00338" lon="6.97708">
        <ele>1201.82</ele>
        <time>2021-06-23T09:46:56Z</time>
      </trkpt>
      <trkpt lat="48.00315" lon="6.97686">
        <ele>1201.98</ele>
        <time>2021-06-23T09:47:00Z</time>
      </trkpt>
      <trkpt lat="48.00291" lon="6.97668">
        <ele>1204.43</ele>
        <time>2021-06-23T09:47:03Z</time>
      </trkpt>
      <trkpt lat="48.00257" lon="6.97654">
        <ele>1209.96</ele>
        <time>2021-06-23T09:47:06Z</time>
      </trkpt>
      <trkpt lat="48.00158" lon="6.97633">
        <ele>1218.19</ele>
        <time>2021-06-23T09:47:10Z</time>
      </trkpt>
      <trkpt lat="48.00073" lon="6.97622">
        <ele>1225.41</ele>
        <time>2021-06-23T09:47:13Z</time>
      </trkpt>
      <trkpt lat="48.00049" lon="6.97613">
        <ele>1225.62</ele>
        <time>2021-06-23T09:47:16Z</time>
      </trkpt>
      <trkpt lat="47.99987" lon="6.97571">
        <ele>1223.8</ele>
        <time>2021-06-23T09:47:20Z</time>
      </trkpt>
      <trkpt lat="47.99964" lon="6.97564">
        <ele>1223.12</ele>
        <time>2021-06-23T09:47:23Z</time>
      </trkpt>
      <trkpt lat="47.99949" lon="6.97565">
        <ele>1224.2</ele>
        <time>2021-06-23T09:47:26Z</time>
      </trkpt>
      <trkpt lat="47.99893" lon="6.97576">
        <ele>1227.71</ele>
        <time>2021-06-23T09:47:30Z</time>
      </trkpt>
      <trkpt lat="47.99877" lon="6.97584">
        <ele>1228.31</ele>
        <time>2021-06-23T09:47:33Z</time>
      </trkpt>
      <trkpt lat="47.99868" lon="6.97591">
        <ele>1228.76</ele>
        <time>2021-06-23T09:47:36Z</time>
      </trkpt>
      <trkpt lat="47.99856" lon="6.97606">
        <ele>1229.27</ele>
        <time>2021-06-23T09:47:40Z</time>
      </trkpt>
      <trkpt lat="47.99832" lon="6.97661">
        <ele>1228.48</ele>
        <time>2021-06-23T09:47:43Z</time>
      </trkpt>
      <trkpt lat="47.99782" lon="6.97755">
        <ele>1233.04</ele>
        <time>2021-06-23T09:47:46Z</time>
      </trkpt>
      <trkpt lat="47.99776" lon="6.97764">
        <ele>1233.95</ele>
        <time>2021-06-23T09:47:50Z</time>
      </trkpt>
      <trkpt lat="47.9976" lon="6.97775">
        <ele>1234.74</ele>
        <time>2021-06-23T09:47:53Z</time>
      </trkpt>
      <trkpt lat="47.99722" lon="6.97789">
        <ele>1234.95</ele>
        <time>2021-06-23T09:47:56Z</time>
      </trkpt>
      <trkpt lat="47.99697" lon="6.97791">
        <ele>1231.77</ele>
        <time>2021-06-23T09:47:59Z</time>
      </trkpt>
      <trkpt lat="47.99656" lon="6.97789">
        <ele>1228.02</ele>
        <time>2021-06-23T09:48:03Z</time>
      </trkpt>
      <trkpt lat="47.99612" lon="6.97795">
        <ele>1233.91</ele>
        <time>2021-06-23T09:48:06Z</time>
      </trkpt>
      <trkpt lat="47.99474" lon="6.97787">
        <ele>1228.23</ele>
        <time>2021-06-23T09:48:09Z</time>
      </trkpt>
      <trkpt lat="47.99378" lon="6.97798">
        <ele>1223.09</ele>
        <time>2021-06-23T09:48:13Z</time>
      </trkpt>
      <trkpt lat="47.99249" lon="6.9784">
        <ele>1227.19</ele>
        <time>2021-06-23T09:48:16Z</time>
      </trkpt>
      <trkpt lat="47.991" lon="6.97917">
        <ele>1222.43</ele>
        <time>2021-06-23T09:48:19Z</time>
      </trkpt>
      <trkpt lat="47.99064" lon="6.9793">
        <ele>1220.78</ele>
        <time>2021-06-23T09:48:23Z</time>
      </trkpt>
      <trkpt lat="47.99031" lon="6.97933">
        <ele>1218.87</ele>
        <time>2021-06-23T09:48:26Z</time>
      </trkpt>
      <trkpt lat="47.98998" lon="6.97929">
        <ele>1217.16</ele>
        <time>2021-06-23T09:48:29Z</time>
      </trkpt>
      <trkpt lat="47.98891" lon="6.97903">
        <ele>1220.57</ele>
        <time>2021-06-23T09:48:33Z</time>
      </trkpt>
      <trkpt lat="47.98865" lon="6.9789">
        <ele>1218.94</ele>
        <time>2021-06-23T09:48:36Z</time>
      </trkpt>
      <trkpt lat="47.98837" lon="6.9788">
        <ele>1218.74</ele>
        <time>2021-06-23T09:48:39Z</time>
      </trkpt>
      <trkpt lat="47.98811" lon="6.9788">
        <ele>1218.84</ele>
        <time>2021-06-23T09:48:43Z</time>
      </trkpt>
      <trkpt lat="47.9874" lon="6.97895">
        <ele>1223.26</ele>
        <time>2021-06-23T09:48:46Z</time>
      </trkpt>
      <trkpt lat="47.98711" lon="6.97904">
        <ele>1222.44</ele>
        <time>2021-06-23T09:48:49Z</time>
      </trkpt>
      <trkpt lat="47.98711" lon="6.97904">
        <ele>1222.44</ele>
        <time>2021-06-23T09:48:49Z</time>
      </trkpt>
      <trkpt lat="47.98627" lon="6.97931">
        <ele>1221.62</ele>
        <time>2021-06-23T09:48:53Z</time>
      </trkpt>
      <trkpt lat="47.98537" lon="6.9795">
        <ele>1219.72</ele>
        <time>2021-06-23T09:48:57Z</time>
      </trkpt>
      <trkpt lat="47.98508" lon="6.97964">
        <ele>1218.09</ele>
        <time>2021-06-23T09:49:01Z</time>
      </trkpt>
      <trkpt lat="47.98485" lon="6.97983">
        <ele>1214.94</ele>
        <time>2021-06-23T09:49:04Z</time>
      </trkpt>
      <trkpt lat="47.98423" lon="6.98058">
        <ele>1209.94</ele>
        <time>2021-06-23T09:49:08Z</time>
      </trkpt>
      <trkpt lat="47.98375" lon="6.98113">
        <ele>1210.15</ele>
        <time>2021-06-23T09:49:12Z</time>
      </trkpt>
      <trkpt lat="47.98319" lon="6.98156">
        <ele>1209.23</ele>
        <time>2021-06-23T09:49:16Z</time>
      </trkpt>
      <trkpt lat="47.9827" lon="6.98205">
        <ele>1207.48</ele>
        <time>2021-06-23T09:49:20Z</time>
      </trkpt>
      <trkpt lat="47.98231" lon="6.9824">
        <ele>1203.31</ele>
        <time>2021-06-23T09:49:23Z</time>
      </trkpt>
      <trkpt lat="47.98209" lon="6.98249">
        <ele>1200.5</ele>
        <time>2021-06-23T09:49:27Z</time>
      </trkpt>
      <trkpt lat="47.98139" lon="6.98261">
        <ele>1196.56</ele>
        <time>2021-06-23T09:49:31Z</time>
      </trkpt>
      <trkpt lat="47.98091" lon="6.98279">
        <ele>1192.13</ele>
        <time>2021-06-23T09:49:35Z</time>
      </trkpt>
      <trkpt lat="47.98065" lon="6.98296">
        <ele>1190.94</ele>
        <time>2021-06-23T09:49:38Z</time>
      </trkpt>
      <trkpt lat="47.98027" lon="6.98334">
        <ele>1188.87</ele>
        <time>2021-06-23T09:49:42Z</time>
      </trkpt>
      <trkpt lat="47.97998" lon="6.98355">
        <ele>1185.43</ele>
        <time>2021-06-23T09:49:46Z</time>
      </trkpt>
      <trkpt lat="47.97946" lon="6.98384">
        <ele>1178.43</ele>
        <time>2021-06-23T09:49:50Z</time>
      </trkpt>
      <trkpt lat="47.97909" lon="6.98397">
        <ele>1178.94</ele>
        <time>2021-06-23T09:49:54Z</time>
      </trkpt>
      <trkpt lat="47.97878" lon="6.98403">
        <ele>1181.96</ele>
        <time>2021-06-23T09:49:57Z</time>
      </trkpt>
      <trkpt lat="47.97853" lon="6.98404">
        <ele>1183.31</ele>
        <time>2021-06-23T09:50:01Z</time>
      </trkpt>
      <trkpt lat="47.97789" lon="6.984">
        <ele>1181.06</ele>
        <time>2021-06-23T09:50:05Z</time>
      </trkpt>
      <trkpt lat="47.9776" lon="6.98403">
        <ele>1181.44</ele>
        <time>2021-06-23T09:50:09Z</time>
      </trkpt>
      <trkpt lat="47.97686" lon="6.9842">
        <ele>1184.56</ele>
        <time>2021-06-23T09:50:13Z</time>
      </trkpt>
      <trkpt lat="47.97629" lon="6.98441">
        <ele>1180.98</ele>
        <time>2021-06-23T09:50:16Z</time>
      </trkpt>
      <trkpt lat="47.97594" lon="6.98468">
        <ele>1180.05</ele>
        <time>2021-06-23T09:50:20Z</time>
      </trkpt>
      <trkpt lat="47.97564" lon="6.98503">
        <ele>1179.73</ele>
        <time>2021-06-23T09:50:24Z</time>
      </trkpt>
      <trkpt lat="47.97488" lon="6.98608">
        <ele>1181.24</ele>
        <time>2021-06-23T09:50:28Z</time>
      </trkpt>
      <trkpt lat="47.97378" lon="6.9874">
        <ele>1182.58</ele>
        <time>2021-06-23T09:50:31Z</time>
      </trkpt>
      <trkpt lat="47.9734" lon="6.98778">
        <ele>1182.06</ele>
        <time>2021-06-23T09:50:35Z</time>
      </trkpt>
      <trkpt lat="47.97311" lon="6.98793">
        <ele>1182.94</ele>
        <time>2021-06-23T09:50:39Z</time>
      </trkpt>
      <trkpt lat="47.97228" lon="6.98826">
        <ele>1175.5</ele>
        <time>2021-06-23T09:50:43Z</time>
      </trkpt>
      <trkpt lat="47.97149" lon="6.98862">
        <ele>1176.1</ele>
        <time>2021-06-23T09:50:47Z</time>
      </trkpt>
      <trkpt lat="47.97082" lon="6.98869">
        <ele>1177.35</ele>
        <time>2021-06-23T09:50:50Z</time>
      </trkpt>
      <trkpt lat="47.97055" lon="6.98878">
        <ele>1176.85</ele>
        <time>2021-06-23T09:50:54Z</time>
      </trkpt>
      <trkpt lat="47.9703" lon="6.9889">
        <ele>1174.86</ele>
        <time>2021-06-23T09:50:58Z</time>
      </trkpt>
      <trkpt lat="47.96985" lon="6.98917">
        <ele>1176.78</ele>
        <time>2021-06-23T09:51:02Z</time>
      </trkpt>
      <trkpt lat="47.96933" lon="6.98927">
        <ele>1174.26</ele>
        <time>2021-06-23T09:51:06Z</time>
      </trkpt>
      <trkpt lat="47.96902" lon="6.98924">
        <ele>1172.44</ele>
        <time>2021-06-23T09:51:09Z</time>
      </trkpt>
      <trkpt lat="47.96829" lon="6.98898">
        <ele>1165.96</ele>
        <time>2021-06-23T09:51:13Z</time>
      </trkpt>
      <trkpt lat="47.96779" lon="6.98901">
        <ele>1166.94</ele>
        <time>2021-06-23T09:51:17Z</time>
      </trkpt>
      <trkpt lat="47.9675" lon="6.98897">
        <ele>1167.07</ele>
        <time>2021-06-23T09:51:21Z</time>
      </trkpt>
      <trkpt lat="47.96702" lon="6.98895">
        <ele>1168.56</ele>
        <time>2021-06-23T09:51:25Z</time>
      </trkpt>
      <trkpt lat="47.96647" lon="6.98901">
        <ele>1167.69</ele>
        <time>2021-06-23T09:51:28Z</time>
      </trkpt>
      <trkpt lat="47.96647" lon="6.98901">
        <ele>1167.69</ele>
        <time>2021-06-23T09:51:28Z</time>
      </trkpt>
      <trkpt lat="47.96617" lon="6.98909">
        <ele>1164.87</ele>
        <time>2021-06-23T09:51:32Z</time>
      </trkpt>
      <trkpt lat="47.96591" lon="6.98928">
        <ele>1163.46</ele>
        <time>2021-06-23T09:51:36Z</time>
      </trkpt>
      <trkpt lat="47.96585" lon="6.98942">
        <ele>1163.99</ele>
        <time>2021-06-23T09:51:39Z</time>
      </trkpt>
      <trkpt lat="47.96583" lon="6.98962">
        <ele>1164.38</ele>
        <time>2021-06-23T09:51:43Z</time>
      </trkpt>
      <trkpt lat="47.96584" lon="6.98979">
        <ele>1164.72</ele>
        <time>2021-06-23T09:51:47Z</time>
      </trkpt>
      <trkpt lat="47.96589" lon="6.98996">
        <ele>1164.94</ele>
        <time>2021-06-23T09:51:50Z</time>
      </trkpt>
      <trkpt lat="47.96602" lon="6.99026">
        <ele>1165.46</ele>
        <time>2021-06-23T09:51:54Z</time>
      </trkpt>
      <trkpt lat="47.96632" lon="6.99086">
        <ele>1167.5</ele>
        <time>2021-06-23T09:51:58Z</time>
      </trkpt>
      <trkpt lat="47.96652" lon="6.99132">
        <ele>1166</ele>
        <time>2021-06-23T09:52:02Z</time>
      </trkpt>
      <trkpt lat="47.96668" lon="6.9918">
        <ele>1167.38</ele>
        <time>2021-06-23T09:52:05Z</time>
      </trkpt>
      <trkpt lat="47.96683" lon="6.99235">
        <ele>1172.54</ele>
        <time>2021-06-23T09:52:09Z</time>
      </trkpt>
      <trkpt lat="47.96692" lon="6.99283">
        <ele>1168.41</ele>
        <time>2021-06-23T09:52:13Z</time>
      </trkpt>
      <trkpt lat="47.96695" lon="6.99321">
        <ele>1168.17</ele>
        <time>2021-06-23T09:52:16Z</time>
      </trkpt>
      <trkpt lat="47.96694" lon="6.99349">
        <ele>1169.95</ele>
        <time>2021-06-23T09:52:20Z</time>
      </trkpt>
      <trkpt lat="47.96689" lon="6.99369">
        <ele>1170.81</ele>
        <time>2021-06-23T09:52:24Z</time>
      </trkpt>
      <trkpt lat="47.96675" lon="6.99393">
        <ele>1170.59</ele>
        <time>2021-06-23T09:52:27Z</time>
      </trkpt>
      <trkpt lat="47.96658" lon="6.9941">
        <ele>1169.22</ele>
        <time>2021-06-23T09:52:31Z</time>
      </trkpt>
      <trkpt lat="47.96591" lon="6.99464">
        <ele>1168.19</ele>
        <time>2021-06-23T09:52:35Z</time>
      </trkpt>
      <trkpt lat="47.96537" lon="6.99491">
        <ele>1167.49</ele>
        <time>2021-06-23T09:52:38Z</time>
      </trkpt>
      <trkpt lat="47.96366" lon="6.99569">
        <ele>1173.84</ele>
        <time>2021-06-23T09:52:42Z</time>
      </trkpt>
      <trkpt lat="47.9621" lon="6.99652">
        <ele>1175.83</ele>
        <time>2021-06-23T09:52:46Z</time>
      </trkpt>
      <trkpt lat="47.96186" lon="6.99669">
        <ele>1176.49</ele>
        <time>2021-06-23T09:52:50Z</time>
      </trkpt>
      <trkpt lat="47.96171" lon="6.99695">
        <ele>1175.2</ele>
        <time>2021-06-23T09:52:53Z</time>
      </trkpt>
      <trkpt lat="47.96155" lon="6.99735">
        <ele>1176.6</ele>
        <time>2021-06-23T09:52:57Z</time>
      </trkpt>
      <trkpt lat="47.96127" lon="6.99857">
        <ele>1183.17</ele>
        <time>2021-06-23T09:53:01Z</time>
      </trkpt>
      <trkpt lat="47.96099" lon="7.00005">
        <ele>1182.58</ele>
        <time>2021-06-23T09:53:04Z</time>
      </trkpt>
      <trkpt lat="47.96069" lon="7.00106">
        <ele>1183.23</ele>
        <time>2021-06-23T09:53:08Z</time>
      </trkpt>
      <trkpt lat="47.96009" lon="7.00202">
        <ele>1183.61</ele>
        <time>2021-06-23T09:53:12Z</time>
      </trkpt>
      <trkpt lat="47.95938" lon="7.00285">
        <ele>1180.96</ele>
        <time>2021-06-23T09:53:15Z</time>
      </trkpt>
      <trkpt lat="47.95885" lon="7.00328">
        <ele>1182.1</ele>
        <time>2021-06-23T09:53:19Z</time>
      </trkpt>
      <trkpt lat="47.95813" lon="7.00367">
        <ele>1178.81</ele>
        <time>2021-06-23T09:53:23Z</time>
      </trkpt>
      <trkpt lat="47.9576" lon="7.00411">
        <ele>1182.8</ele>
        <time>2021-06-23T09:53:26Z</time>
      </trkpt>
      <trkpt lat="47.95709" lon="7.00464">
        <ele>1179.78</ele>
        <time>2021-06-23T09:53:30Z</time>
      </trkpt>
      <trkpt lat="47.95665" lon="7.00506">
        <ele>1179.02</ele>
        <time>2021-06-23T09:53:34Z</time>
      </trkpt>
      <trkpt lat="47.95623" lon="7.00523">
        <ele>1179.34</ele>
        <time>2021-06-23T09:53:38Z</time>
      </trkpt>
      <trkpt lat="47.95545" lon="7.00541">
        <ele>1176.86</ele>
        <time>2021-06-23T09:53:41Z</time>
      </trkpt>
      <trkpt lat="47.95524" lon="7.00553">
        <ele>1178.13</ele>
        <time>2021-06-23T09:53:45Z</time>
      </trkpt>
      <trkpt lat="47.95508" lon="7.00571">
        <ele>1174.37</ele>
        <time>2021-06-23T09:53:49Z</time>
      </trkpt>
      <trkpt lat="47.95496" lon="7.00588">
        <ele>1171.96</ele>
        <time>2021-06-23T09:53:52Z</time>
      </trkpt>
      <trkpt lat="47.95488" lon="7.00611">
        <ele>1170.7</ele>
        <time>2021-06-23T09:53:56Z</time>
      </trkpt>
      <trkpt lat="47.95479" lon="7.00657">
        <ele>1171.43</ele>
        <time>2021-06-23T09:54:00Z</time>
      </trkpt>
      <trkpt lat="47.95472" lon="7.00722">
        <ele>1172.82</ele>
        <time>2021-06-23T09:54:03Z</time>
      </trkpt>
      <trkpt lat="47.95452" lon="7.00855">
        <ele>1171.63</ele>
        <time>2021-06-23T09:54:07Z</time>
      </trkpt>
      <trkpt lat="47.95443" lon="7.00952">
        <ele>1172.64</ele>
        <time>2021-06-23T09:54:11Z</time>
      </trkpt>
      <trkpt lat="47.95437" lon="7.01047">
        <ele>1171.78</ele>
        <time>2021-06-23T09:54:14Z</time>
      </trkpt>
      <trkpt lat="47.95426" lon="7.01137">
        <ele>1174.61</ele>
        <time>2021-06-23T09:54:18Z</time>
      </trkpt>
      <trkpt lat="47.95361" lon="7.01383">
        <ele>1168.81</ele>
        <time>2021-06-23T09:54:22Z</time>
      </trkpt>
      <trkpt lat="47.95355" lon="7.01421">
        <ele>1170.74</ele>
        <time>2021-06-23T09:54:26Z</time>
      </trkpt>
      <trkpt lat="47.9535" lon="7.01459">
        <ele>1173.77</ele>
        <time>2021-06-23T09:54:29Z</time>
      </trkpt>
      <trkpt lat="47.95344" lon="7.01617">
        <ele>1175.99</ele>
        <time>2021-06-23T09:54:33Z</time>
      </trkpt>
      <trkpt lat="47.9534" lon="7.01659">
        <ele>1178.67</ele>
        <time>2021-06-23T09:54:37Z</time>
      </trkpt>
      <trkpt lat="47.95334" lon="7.01684">
        <ele>1180.81</ele>
        <time>2021-06-23T09:54:40Z</time>
      </trkpt>
      <trkpt lat="47.95266" lon="7.01845">
        <ele>1175.63</ele>
        <time>2021-06-23T09:54:44Z</time>
      </trkpt>
      <trkpt lat="47.95258" lon="7.01859">
        <ele>1175.94</ele>
        <time>2021-06-23T09:54:48Z</time>
      </trkpt>
      <trkpt lat="47.95241" lon="7.01882">
        <ele>1176.64</ele>
        <time>2021-06-23T09:54:51Z</time>
      </trkpt>
      <trkpt lat="47.95176" lon="7.01935">
        <ele>1182.76</ele>
        <time>2021-06-23T09:54:55Z</time>
      </trkpt>
      <trkpt lat="47.95176" lon="7.01935">
        <ele>1182.76</ele>
        <time>2021-06-23T09:54:55Z</time>
      </trkpt>
      <trkpt lat="47.95157" lon="7.0195">
        <ele>1183.82</ele>
        <time>2021-06-23T09:54:57Z</time>
      </trkpt>
      <trkpt lat="47.95135" lon="7.01962">
        <ele>1184.24</ele>
        <time>2021-06-23T09:55:00Z</time>
      </trkpt>
      <trkpt lat="47.95121" lon="7.01965">
        <ele>1183.66</ele>
        <time>2021-06-23T09:55:02Z</time>
      </trkpt>
      <trkpt lat="47.95047" lon="7.01951">
        <ele>1188.62</ele>
        <time>2021-06-23T09:55:05Z</time>
      </trkpt>
      <trkpt lat="47.95015" lon="7.0195">
        <ele>1189.15</ele>
        <time>2021-06-23T09:55:07Z</time>
      </trkpt>
      <trkpt lat="47.94999" lon="7.01953">
        <ele>1191.29</ele>
        <time>2021-06-23T09:55:10Z</time>
      </trkpt>
      <trkpt lat="47.94927" lon="7.01984">
        <ele>1198.51</ele>
        <time>2021-06-23T09:55:12Z</time>
      </trkpt>
      <trkpt lat="47.94863" lon="7.02">
        <ele>1200.17</ele>
        <time>2021-06-23T09:55:15Z</time>
      </trkpt>
      <trkpt lat="47.94833" lon="7.02014">
        <ele>1202.57</ele>
        <time>2021-06-23T09:55:17Z</time>
      </trkpt>
      <trkpt lat="47.94773" lon="7.0206">
        <ele>1208.94</ele>
        <time>2021-06-23T09:55:19Z</time>
      </trkpt>
      <trkpt lat="47.9475" lon="7.02074">
        <ele>1211.7</ele>
        <time>2021-06-23T09:55:22Z</time>
      </trkpt>
      <trkpt lat="47.94692" lon="7.021">
        <ele>1214.77</ele>
        <time>2021-06-23T09:55:24Z</time>
      </trkpt>
      <trkpt lat="47.94657" lon="7.0211">
        <ele>1216.44</ele>
        <time>2021-06-23T09:55:27Z</time>
      </trkpt>
      <trkpt lat="47.94639" lon="7.0211">
        <ele>1217.89</ele>
        <time>2021-06-23T09:55:29Z</time>
      </trkpt>
      <trkpt lat="47.94631" lon="7.02107">
        <ele>1218.79</ele>
        <time>2021-06-23T09:55:32Z</time>
      </trkpt>
      <trkpt lat="47.94624" lon="7.02101">
        <ele>1218.98</ele>
        <time>2021-06-23T09:55:34Z</time>
      </trkpt>
      <trkpt lat="47.94571" lon="7.0203">
        <ele>1221.03</ele>
        <time>2021-06-23T09:55:36Z</time>
      </trkpt>
      <trkpt lat="47.94544" lon="7.01998">
        <ele>1222.68</ele>
        <time>2021-06-23T09:55:39Z</time>
      </trkpt>
      <trkpt lat="47.94479" lon="7.01929">
        <ele>1225.61</ele>
        <time>2021-06-23T09:55:41Z</time>
      </trkpt>
      <trkpt lat="47.94464" lon="7.01919">
        <ele>1225.51</ele>
        <time>2021-06-23T09:55:44Z</time>
      </trkpt>
      <trkpt lat="47.94457" lon="7.01916">
        <ele>1225.5</ele>
        <time>2021-06-23T09:55:46Z</time>
      </trkpt>
      <trkpt lat="47.94431" lon="7.01917">
        <ele>1226.06</ele>
        <time>2021-06-23T09:55:49Z</time>
      </trkpt>
      <trkpt lat="47.94415" lon="7.01921">
        <ele>1226.68</ele>
        <time>2021-06-23T09:55:51Z</time>
      </trkpt>
      <trkpt lat="47.94396" lon="7.01931">
        <ele>1228.39</ele>
        <time>2021-06-23T09:55:53Z</time>
      </trkpt>
      <trkpt lat="47.94338" lon="7.01973">
        <ele>1228.8</ele>
        <time>2021-06-23T09:55:56Z</time>
      </trkpt>
      <trkpt lat="47.94316" lon="7.01997">
        <ele>1227.27</ele>
        <time>2021-06-23T09:55:58Z</time>
      </trkpt>
      <trkpt lat="47.9427" lon="7.02058">
        <ele>1223.57</ele>
        <time>2021-06-23T09:56:01Z</time>
      </trkpt>
      <trkpt lat="47.94257" lon="7.02089">
        <ele>1222.67</ele>
        <time>2021-06-23T09:56:03Z</time>
      </trkpt>
      <trkpt lat="47.94218" lon="7.02196">
        <ele>1220.2</ele>
        <time>2021-06-23T09:56:06Z</time>
      </trkpt>
      <trkpt lat="47.94195" lon="7.02269">
        <ele>1217.06</ele>
        <time>2021-06-23T09:56:08Z</time>
      </trkpt>
      <trkpt lat="47.94189" lon="7.02282">
        <ele>1216.25</ele>
        <time>2021-06-23T09:56:10Z</time>
      </trkpt>
      <trkpt lat="47.94175" lon="7.023">
        <ele>1214.65</ele>
        <time>2021-06-23T09:56:13Z</time>
      </trkpt>
      <trkpt lat="47.94167" lon="7.02305">
        <ele>1214.03</ele>
        <time>2021-06-23T09:56:15Z</time>
      </trkpt>
      <trkpt lat="47.94158" lon="7.02309">
        <ele>1213.4</ele>
        <time>2021-06-23T09:56:18Z</time>
      </trkpt>
      <trkpt lat="47.94143" lon="7.02309">
        <ele>1212.39</ele>
        <time>2021-06-23T09:56:20Z</time>
      </trkpt>
      <trkpt lat="47.94132" lon="7.02305">
        <ele>1212.7</ele>
        <time>2021-06-23T09:56:23Z</time>
      </trkpt>
      <trkpt lat="47.94132" lon="7.02305">
        <ele>1212.7</ele>
        <time>2021-06-23T09:56:23Z</time>
      </trkpt>
      <trkpt lat="47.94119" lon="7.02291">
        <ele>1213.55</ele>
        <time>2021-06-23T09:56:25Z</time>
      </trkpt>
      <trkpt lat="47.94114" lon="7.02283">
        <ele>1213.32</ele>
        <time>2021-06-23T09:56:28Z</time>
      </trkpt>
      <trkpt lat="47.94082" lon="7.02221">
        <ele>1208.97</ele>
        <time>2021-06-23T09:56:31Z</time>
      </trkpt>
      <trkpt lat="47.9407" lon="7.02204">
        <ele>1208.65</ele>
        <time>2021-06-23T09:56:34Z</time>
      </trkpt>
      <trkpt lat="47.94057" lon="7.02188">
        <ele>1210.09</ele>
        <time>2021-06-23T09:56:37Z</time>
      </trkpt>
      <trkpt lat="47.93985" lon="7.02121">
        <ele>1209.75</ele>
        <time>2021-06-23T09:56:40Z</time>
      </trkpt>
      <trkpt lat="47.93965" lon="7.02112">
        <ele>1209.61</ele>
        <time>2021-06-23T09:56:43Z</time>
      </trkpt>
      <trkpt lat="47.93946" lon="7.02111">
        <ele>1208.08</ele>
        <time>2021-06-23T09:56:46Z</time>
      </trkpt>
      <trkpt lat="47.9393" lon="7.02113">
        <ele>1206.28</ele>
        <time>2021-06-23T09:56:48Z</time>
      </trkpt>
      <trkpt lat="47.93911" lon="7.02123">
        <ele>1205.24</ele>
        <time>2021-06-23T09:56:51Z</time>
      </trkpt>
      <trkpt lat="47.93825" lon="7.02202">
        <ele>1205.89</ele>
        <time>2021-06-23T09:56:54Z</time>
      </trkpt>
      <trkpt lat="47.93811" lon="7.02211">
        <ele>1205.09</ele>
        <time>2021-06-23T09:56:57Z</time>
      </trkpt>
      <trkpt lat="47.93803" lon="7.02212">
        <ele>1204.52</ele>
        <time>2021-06-23T09:57:00Z</time>
      </trkpt>
      <trkpt lat="47.93794" lon="7.02211">
        <ele>1204.18</ele>
        <time>2021-06-23T09:57:03Z</time>
      </trkpt>
      <trkpt lat="47.93786" lon="7.02206">
        <ele>1203.71</ele>
        <time>2021-06-23T09:57:06Z</time>
      </trkpt>
      <trkpt lat="47.93777" lon="7.02196">
        <ele>1203.12</ele>
        <time>2021-06-23T09:57:09Z</time>
      </trkpt>
      <trkpt lat="47.93736" lon="7.02131">
        <ele>1206.14</ele>
        <time>2021-06-23T09:57:11Z</time>
      </trkpt>
      <trkpt lat="47.93711" lon="7.02102">
        <ele>1208.2</ele>
        <time>2021-06-23T09:57:14Z</time>
      </trkpt>
      <trkpt lat="47.93672" lon="7.02073">
        <ele>1206.71</ele>
        <time>2021-06-23T09:57:17Z</time>
      </trkpt>
      <trkpt lat="47.9342" lon="7.01911">
        <ele>1207</ele>
        <time>2021-06-23T09:57:20Z</time>
      </trkpt>
      <trkpt lat="47.93394" lon="7.01896">
        <ele>1207.06</ele>
        <time>2021-06-23T09:57:23Z</time>
      </trkpt>
      <trkpt lat="47.93376" lon="7.01891">
        <ele>1206.67</ele>
        <time>2021-06-23T09:57:26Z</time>
      </trkpt>
      <trkpt lat="47.9334" lon="7.01885">
        <ele>1204.99</ele>
        <time>2021-06-23T09:57:29Z</time>
      </trkpt>
      <trkpt lat="47.93298" lon="7.01889">
        <ele>1205.72</ele>
        <time>2021-06-23T09:57:32Z</time>
      </trkpt>
      <trkpt lat="47.93275" lon="7.01898">
        <ele>1205.31</ele>
        <time>2021-06-23T09:57:34Z</time>
      </trkpt>
      <trkpt lat="47.93262" lon="7.01906">
        <ele>1205.26</ele>
        <time>2021-06-23T09:57:37Z</time>
      </trkpt>
      <trkpt lat="47.93155" lon="7.01988">
        <ele>1208.32</ele>
        <time>2021-06-23T09:57:40Z</time>
      </trkpt>
      <trkpt lat="47.93133" lon="7.02002">
        <ele>1209.07</ele>
        <time>2021-06-23T09:57:43Z</time>
      </trkpt>
      <trkpt lat="47.9312" lon="7.02009">
        <ele>1209.1</ele>
        <time>2021-06-23T09:57:46Z</time>
      </trkpt>
      <trkpt lat="47.93102" lon="7.02014">
        <ele>1208.83</ele>
        <time>2021-06-23T09:57:49Z</time>
      </trkpt>
      <trkpt lat="47.93085" lon="7.02017">
        <ele>1208.42</ele>
        <time>2021-06-23T09:57:52Z</time>
      </trkpt>
      <trkpt lat="47.92976" lon="7.02016">
        <ele>1210.85</ele>
        <time>2021-06-23T09:57:55Z</time>
      </trkpt>
      <trkpt lat="47.92956" lon="7.02011">
        <ele>1212.91</ele>
        <time>2021-06-23T09:57:57Z</time>
      </trkpt>
      <trkpt lat="47.92852" lon="7.01969">
        <ele>1215.02</ele>
        <time>2021-06-23T09:58:00Z</time>
      </trkpt>
      <trkpt lat="47.9284" lon="7.01967">
        <ele>1214.41</ele>
        <time>2021-06-23T09:58:03Z</time>
      </trkpt>
      <trkpt lat="47.92817" lon="7.01968">
        <ele>1216.35</ele>
        <time>2021-06-23T09:58:06Z</time>
      </trkpt>
      <trkpt lat="47.92817" lon="7.01968">
        <ele>1216.35</ele>
        <time>2021-06-23T09:58:06Z</time>
      </trkpt>
      <trkpt lat="47.92811" lon="7.01971">
        <ele>1216.49</ele>
        <time>2021-06-23T09:58:08Z</time>
      </trkpt>
      <trkpt lat="47.92799" lon="7.01982">
        <ele>1218.77</ele>
        <time>2021-06-23T09:58:11Z</time>
      </trkpt>
      <trkpt lat="47.92794" lon="7.0199">
        <ele>1220.02</ele>
        <time>2021-06-23T09:58:13Z</time>
      </trkpt>
      <trkpt lat="47.9279" lon="7.02007">
        <ele>1220.03</ele>
        <time>2021-06-23T09:58:15Z</time>
      </trkpt>
      <trkpt lat="47.92791" lon="7.02017">
        <ele>1219.42</ele>
        <time>2021-06-23T09:58:17Z</time>
      </trkpt>
      <trkpt lat="47.92794" lon="7.02032">
        <ele>1217.71</ele>
        <time>2021-06-23T09:58:19Z</time>
      </trkpt>
      <trkpt lat="47.92838" lon="7.02179">
        <ele>1209.02</ele>
        <time>2021-06-23T09:58:22Z</time>
      </trkpt>
      <trkpt lat="47.92844" lon="7.02214">
        <ele>1208.49</ele>
        <time>2021-06-23T09:58:24Z</time>
      </trkpt>
      <trkpt lat="47.92846" lon="7.02251">
        <ele>1210.55</ele>
        <time>2021-06-23T09:58:26Z</time>
      </trkpt>
      <trkpt lat="47.92833" lon="7.02414">
        <ele>1213.33</ele>
        <time>2021-06-23T09:58:28Z</time>
      </trkpt>
      <trkpt lat="47.92822" lon="7.02471">
        <ele>1209.72</ele>
        <time>2021-06-23T09:58:30Z</time>
      </trkpt>
      <trkpt lat="47.92809" lon="7.02515">
        <ele>1211.8</ele>
        <time>2021-06-23T09:58:33Z</time>
      </trkpt>
      <trkpt lat="47.92798" lon="7.02543">
        <ele>1213.28</ele>
        <time>2021-06-23T09:58:35Z</time>
      </trkpt>
      <trkpt lat="47.92757" lon="7.02616">
        <ele>1214.08</ele>
        <time>2021-06-23T09:58:37Z</time>
      </trkpt>
      <trkpt lat="47.92749" lon="7.02635">
        <ele>1212.93</ele>
        <time>2021-06-23T09:58:39Z</time>
      </trkpt>
      <trkpt lat="47.92746" lon="7.02662">
        <ele>1209.73</ele>
        <time>2021-06-23T09:58:41Z</time>
      </trkpt>
      <trkpt lat="47.92744" lon="7.02764">
        <ele>1206.01</ele>
        <time>2021-06-23T09:58:44Z</time>
      </trkpt>
      <trkpt lat="47.92741" lon="7.02845">
        <ele>1207.23</ele>
        <time>2021-06-23T09:58:46Z</time>
      </trkpt>
      <trkpt lat="47.92734" lon="7.02872">
        <ele>1205.74</ele>
        <time>2021-06-23T09:58:48Z</time>
      </trkpt>
      <trkpt lat="47.92727" lon="7.02888">
        <ele>1204.36</ele>
        <time>2021-06-23T09:58:50Z</time>
      </trkpt>
      <trkpt lat="47.92719" lon="7.02904">
        <ele>1202.72</ele>
        <time>2021-06-23T09:58:52Z</time>
      </trkpt>
      <trkpt lat="47.92707" lon="7.02916">
        <ele>1200.47</ele>
        <time>2021-06-23T09:58:55Z</time>
      </trkpt>
      <trkpt lat="47.92695" lon="7.02926">
        <ele>1198.65</ele>
        <time>2021-06-23T09:58:57Z</time>
      </trkpt>
      <trkpt lat="47.9267" lon="7.02937">
        <ele>1196.15</ele>
        <time>2021-06-23T09:58:59Z</time>
      </trkpt>
      <trkpt lat="47.9245" lon="7.02998">
        <ele>1190.94</ele>
        <time>2021-06-23T09:59:01Z</time>
      </trkpt>
      <trkpt lat="47.92427" lon="7.03014">
        <ele>1189.68</ele>
        <time>2021-06-23T09:59:03Z</time>
      </trkpt>
      <trkpt lat="47.92384" lon="7.03057">
        <ele>1185.9</ele>
        <time>2021-06-23T09:59:06Z</time>
      </trkpt>
      <trkpt lat="47.92345" lon="7.03104">
        <ele>1183.99</ele>
        <time>2021-06-23T09:59:08Z</time>
      </trkpt>
      <trkpt lat="47.92331" lon="7.0313">
        <ele>1183.49</ele>
        <time>2021-06-23T09:59:10Z</time>
      </trkpt>
      <trkpt lat="47.92316" lon="7.03173">
        <ele>1182.14</ele>
        <time>2021-06-23T09:59:12Z</time>
      </trkpt>
      <trkpt lat="47.92307" lon="7.03208">
        <ele>1182.34</ele>
        <time>2021-06-23T09:59:14Z</time>
      </trkpt>
      <trkpt lat="47.92269" lon="7.03401">
        <ele>1171.81</ele>
        <time>2021-06-23T09:59:17Z</time>
      </trkpt>
      <trkpt lat="47.92269" lon="7.03425">
        <ele>1170.74</ele>
        <time>2021-06-23T09:59:19Z</time>
      </trkpt>
      <trkpt lat="47.92276" lon="7.03526">
        <ele>1166.64</ele>
        <time>2021-06-23T09:59:21Z</time>
      </trkpt>
      <trkpt lat="47.92281" lon="7.03572">
        <ele>1166.76</ele>
        <time>2021-06-23T09:59:23Z</time>
      </trkpt>
      <trkpt lat="47.92283" lon="7.03606">
        <ele>1168.17</ele>
        <time>2021-06-23T09:59:25Z</time>
      </trkpt>
      <trkpt lat="47.92283" lon="7.03628">
        <ele>1170.52</ele>
        <time>2021-06-23T09:59:28Z</time>
      </trkpt>
      <trkpt lat="47.9228" lon="7.03644">
        <ele>1172.4</ele>
        <time>2021-06-23T09:59:30Z</time>
      </trkpt>
      <trkpt lat="47.92275" lon="7.03663">
        <ele>1172.79</ele>
        <time>2021-06-23T09:59:32Z</time>
      </trkpt>
      <trkpt lat="47.92219" lon="7.03756">
        <ele>1166.81</ele>
        <time>2021-06-23T09:59:34Z</time>
      </trkpt>
      <trkpt lat="47.92162" lon="7.03838">
        <ele>1168.41</ele>
        <time>2021-06-23T09:59:36Z</time>
      </trkpt>
      <trkpt lat="47.92162" lon="7.03838">
        <ele>1168.41</ele>
        <time>2021-06-23T09:59:36Z</time>
      </trkpt>
      <trkpt lat="47.92132" lon="7.03883">
        <ele>1170.95</ele>
        <time>2021-06-23T09:59:38Z</time>
      </trkpt>
      <trkpt lat="47.92114" lon="7.03923">
        <ele>1174.33</ele>
        <time>2021-06-23T09:59:40Z</time>
      </trkpt>
      <trkpt lat="47.92105" lon="7.03937">
        <ele>1175.82</ele>
        <time>2021-06-23T09:59:41Z</time>
      </trkpt>
      <trkpt lat="47.92085" lon="7.0395">
        <ele>1175.68</ele>
        <time>2021-06-23T09:59:43Z</time>
      </trkpt>
      <trkpt lat="47.92014" lon="7.03984">
        <ele>1176.51</ele>
        <time>2021-06-23T09:59:44Z</time>
      </trkpt>
      <trkpt lat="47.91954" lon="7.04027">
        <ele>1178.62</ele>
        <time>2021-06-23T09:59:46Z</time>
      </trkpt>
      <trkpt lat="47.91908" lon="7.04063">
        <ele>1179.13</ele>
        <time>2021-06-23T09:59:47Z</time>
      </trkpt>
      <trkpt lat="47.91865" lon="7.04087">
        <ele>1178.34</ele>
        <time>2021-06-23T09:59:49Z</time>
      </trkpt>
      <trkpt lat="47.91824" lon="7.04095">
        <ele>1172.58</ele>
        <time>2021-06-23T09:59:50Z</time>
      </trkpt>
      <trkpt lat="47.91807" lon="7.041">
        <ele>1172.43</ele>
        <time>2021-06-23T09:59:52Z</time>
      </trkpt>
      <trkpt lat="47.91798" lon="7.04106">
        <ele>1172.63</ele>
        <time>2021-06-23T09:59:53Z</time>
      </trkpt>
      <trkpt lat="47.91788" lon="7.04116">
        <ele>1173.55</ele>
        <time>2021-06-23T09:59:55Z</time>
      </trkpt>
      <trkpt lat="47.91741" lon="7.04181">
        <ele>1176</ele>
        <time>2021-06-23T09:59:57Z</time>
      </trkpt>
      <trkpt lat="47.9169" lon="7.04245">
        <ele>1175.06</ele>
        <time>2021-06-23T09:59:58Z</time>
      </trkpt>
      <trkpt lat="47.91647" lon="7.04293">
        <ele>1176.46</ele>
        <time>2021-06-23T10:00:00Z</time>
      </trkpt>
      <trkpt lat="47.91616" lon="7.0432">
        <ele>1177.11</ele>
        <time>2021-06-23T10:00:01Z</time>
      </trkpt>
      <trkpt lat="47.91583" lon="7.04343">
        <ele>1176.04</ele>
        <time>2021-06-23T10:00:03Z</time>
      </trkpt>
      <trkpt lat="47.91558" lon="7.04357">
        <ele>1175.36</ele>
        <time>2021-06-23T10:00:04Z</time>
      </trkpt>
      <trkpt lat="47.91536" lon="7.04365">
        <ele>1176.81</ele>
        <time>2021-06-23T10:00:06Z</time>
      </trkpt>
      <trkpt lat="47.91498" lon="7.0437">
        <ele>1176.02</ele>
        <time>2021-06-23T10:00:07Z</time>
      </trkpt>
      <trkpt lat="47.91454" lon="7.04382">
        <ele>1176.13</ele>
        <time>2021-06-23T10:00:09Z</time>
      </trkpt>
      <trkpt lat="47.91416" lon="7.04397">
        <ele>1175.15</ele>
        <time>2021-06-23T10:00:11Z</time>
      </trkpt>
      <trkpt lat="47.91397" lon="7.04409">
        <ele>1173.93</ele>
        <time>2021-06-23T10:00:12Z</time>
      </trkpt>
      <trkpt lat="47.9138" lon="7.0443">
        <ele>1172.77</ele>
        <time>2021-06-23T10:00:14Z</time>
      </trkpt>
      <trkpt lat="47.91368" lon="7.04454">
        <ele>1169.57</ele>
        <time>2021-06-23T10:00:15Z</time>
      </trkpt>
      <trkpt lat="47.91333" lon="7.04537">
        <ele>1169.24</ele>
        <time>2021-06-23T10:00:17Z</time>
      </trkpt>
      <trkpt lat="47.91317" lon="7.04571">
        <ele>1172.01</ele>
        <time>2021-06-23T10:00:18Z</time>
      </trkpt>
      <trkpt lat="47.91263" lon="7.04662">
        <ele>1167.16</ele>
        <time>2021-06-23T10:00:20Z</time>
      </trkpt>
      <trkpt lat="47.91255" lon="7.04678">
        <ele>1165.25</ele>
        <time>2021-06-23T10:00:21Z</time>
      </trkpt>
      <trkpt lat="47.91246" lon="7.0471">
        <ele>1165.89</ele>
        <time>2021-06-23T10:00:23Z</time>
      </trkpt>
      <trkpt lat="47.91244" lon="7.04726">
        <ele>1167.79</ele>
        <time>2021-06-23T10:00:24Z</time>
      </trkpt>
      <trkpt lat="47.91243" lon="7.04789">
        <ele>1171.63</ele>
        <time>2021-06-23T10:00:26Z</time>
      </trkpt>
      <trkpt lat="47.91242" lon="7.04801">
        <ele>1171.02</ele>
        <time>2021-06-23T10:00:28Z</time>
      </trkpt>
      <trkpt lat="47.91238" lon="7.04815">
        <ele>1170.48</ele>
        <time>2021-06-23T10:00:29Z</time>
      </trkpt>
      <trkpt lat="47.91227" lon="7.04834">
        <ele>1169.24</ele>
        <time>2021-06-23T10:00:31Z</time>
      </trkpt>
      <trkpt lat="47.91165" lon="7.04924">
        <ele>1167.9</ele>
        <time>2021-06-23T10:00:32Z</time>
      </trkpt>
      <trkpt lat="47.91143" lon="7.04948">
        <ele>1169.77</ele>
        <time>2021-06-23T10:00:34Z</time>
      </trkpt>
      <trkpt lat="47.91131" lon="7.04956">
        <ele>1170.37</ele>
        <time>2021-06-23T10:00:35Z</time>
      </trkpt>
      <trkpt lat="47.91119" lon="7.04961">
        <ele>1170.79</ele>
        <time>2021-06-23T10:00:37Z</time>
      </trkpt>
      <trkpt lat="47.91107" lon="7.04962">
        <ele>1171.43</ele>
        <time>2021-06-23T10:00:38Z</time>
      </trkpt>
      <trkpt lat="47.91049" lon="7.04951">
        <ele>1175.91</ele>
        <time>2021-06-23T10:00:40Z</time>
      </trkpt>
      <trkpt lat="47.91032" lon="7.04952">
        <ele>1177.49</ele>
        <time>2021-06-23T10:00:42Z</time>
      </trkpt>
      <trkpt lat="47.91021" lon="7.04955">
        <ele>1178.44</ele>
        <time>2021-06-23T10:00:43Z</time>
      </trkpt>
      <trkpt lat="47.91003" lon="7.04969">
        <ele>1180.53</ele>
        <time>2021-06-23T10:00:45Z</time>
      </trkpt>
      <trkpt lat="47.91003" lon="7.04969">
        <ele>1180.53</ele>
        <time>2021-06-23T10:00:45Z</time>
      </trkpt>
      <trkpt lat="47.90996" lon="7.04979">
        <ele>1180.78</ele>
        <time>2021-06-23T10:00:46Z</time>
      </trkpt>
      <trkpt lat="47.9099" lon="7.04997">
        <ele>1180.71</ele>
        <time>2021-06-23T10:00:48Z</time>
      </trkpt>
      <trkpt lat="47.90986" lon="7.05017">
        <ele>1180.31</ele>
        <time>2021-06-23T10:00:49Z</time>
      </trkpt>
      <trkpt lat="47.90988" lon="7.05054">
        <ele>1179.9</ele>
        <time>2021-06-23T10:00:51Z</time>
      </trkpt>
      <trkpt lat="47.90991" lon="7.0508">
        <ele>1179.69</ele>
        <time>2021-06-23T10:00:52Z</time>
      </trkpt>
      <trkpt lat="47.90997" lon="7.05103">
        <ele>1177.73</ele>
        <time>2021-06-23T10:00:54Z</time>
      </trkpt>
      <trkpt lat="47.91036" lon="7.05188">
        <ele>1179.38</ele>
        <time>2021-06-23T10:00:55Z</time>
      </trkpt>
      <trkpt lat="47.9104" lon="7.05201">
        <ele>1179.44</ele>
        <time>2021-06-23T10:00:57Z</time>
      </trkpt>
      <trkpt lat="47.91042" lon="7.05215">
        <ele>1179.5</ele>
        <time>2021-06-23T10:00:58Z</time>
      </trkpt>
      <trkpt lat="47.91042" lon="7.0523">
        <ele>1179.49</ele>
        <time>2021-06-23T10:01:00Z</time>
      </trkpt>
      <trkpt lat="47.91039" lon="7.05246">
        <ele>1179.39</ele>
        <time>2021-06-23T10:01:02Z</time>
      </trkpt>
      <trkpt lat="47.91016" lon="7.05323">
        <ele>1181.17</ele>
        <time>2021-06-23T10:01:03Z</time>
      </trkpt>
      <trkpt lat="47.91006" lon="7.05375">
        <ele>1184.12</ele>
        <time>2021-06-23T10:01:05Z</time>
      </trkpt>
      <trkpt lat="47.91001" lon="7.05432">
        <ele>1185.77</ele>
        <time>2021-06-23T10:01:06Z</time>
      </trkpt>
      <trkpt lat="47.90997" lon="7.05494">
        <ele>1188.46</ele>
        <time>2021-06-23T10:01:08Z</time>
      </trkpt>
      <trkpt lat="47.91" lon="7.05524">
        <ele>1188.93</ele>
        <time>2021-06-23T10:01:09Z</time>
      </trkpt>
      <trkpt lat="47.91009" lon="7.05562">
        <ele>1186.85</ele>
        <time>2021-06-23T10:01:11Z</time>
      </trkpt>
      <trkpt lat="47.91021" lon="7.05595">
        <ele>1187.6</ele>
        <time>2021-06-23T10:01:12Z</time>
      </trkpt>
      <trkpt lat="47.91041" lon="7.05641">
        <ele>1198.04</ele>
        <time>2021-06-23T10:01:14Z</time>
      </trkpt>
      <trkpt lat="47.91047" lon="7.05664">
        <ele>1197.23</ele>
        <time>2021-06-23T10:01:15Z</time>
      </trkpt>
      <trkpt lat="47.91054" lon="7.0573">
        <ele>1195.4</ele>
        <time>2021-06-23T10:01:17Z</time>
      </trkpt>
      <trkpt lat="47.91055" lon="7.05782">
        <ele>1188.21</ele>
        <time>2021-06-23T10:01:18Z</time>
      </trkpt>
      <trkpt lat="47.91056" lon="7.05802">
        <ele>1187.48</ele>
        <time>2021-06-23T10:01:20Z</time>
      </trkpt>
      <trkpt lat="47.91068" lon="7.05884">
        <ele>1191.46</ele>
        <time>2021-06-23T10:01:21Z</time>
      </trkpt>
      <trkpt lat="47.91098" lon="7.05974">
        <ele>1192.9</ele>
        <time>2021-06-23T10:01:23Z</time>
      </trkpt>
      <trkpt lat="47.91124" lon="7.06026">
        <ele>1192.83</ele>
        <time>2021-06-23T10:01:25Z</time>
      </trkpt>
      <trkpt lat="47.91129" lon="7.06045">
        <ele>1194.37</ele>
        <time>2021-06-23T10:01:26Z</time>
      </trkpt>
      <trkpt lat="47.9113" lon="7.06071">
        <ele>1196.12</ele>
        <time>2021-06-23T10:01:28Z</time>
      </trkpt>
      <trkpt lat="47.91126" lon="7.0612">
        <ele>1197.64</ele>
        <time>2021-06-23T10:01:29Z</time>
      </trkpt>
      <trkpt lat="47.91103" lon="7.06242">
        <ele>1193.1</ele>
        <time>2021-06-23T10:01:31Z</time>
      </trkpt>
      <trkpt lat="47.91092" lon="7.06323">
        <ele>1189.72</ele>
        <time>2021-06-23T10:01:32Z</time>
      </trkpt>
      <trkpt lat="47.91086" lon="7.06351">
        <ele>1190.36</ele>
        <time>2021-06-23T10:01:34Z</time>
      </trkpt>
      <trkpt lat="47.91074" lon="7.06387">
        <ele>1192.24</ele>
        <time>2021-06-23T10:01:35Z</time>
      </trkpt>
      <trkpt lat="47.91014" lon="7.06516">
        <ele>1190.13</ele>
        <time>2021-06-23T10:01:37Z</time>
      </trkpt>
      <trkpt lat="47.90985" lon="7.06565">
        <ele>1189.65</ele>
        <time>2021-06-23T10:01:38Z</time>
      </trkpt>
      <trkpt lat="47.90964" lon="7.06593">
        <ele>1188.43</ele>
        <time>2021-06-23T10:01:40Z</time>
      </trkpt>
      <trkpt lat="47.90957" lon="7.06607">
        <ele>1188.92</ele>
        <time>2021-06-23T10:01:41Z</time>
      </trkpt>
      <trkpt lat="47.90939" lon="7.06654">
        <ele>1191.69</ele>
        <time>2021-06-23T10:01:43Z</time>
      </trkpt>
      <trkpt lat="47.90931" lon="7.0667">
        <ele>1191.54</ele>
        <time>2021-06-23T10:01:44Z</time>
      </trkpt>
      <trkpt lat="47.90919" lon="7.06687">
        <ele>1190.28</ele>
        <time>2021-06-23T10:01:46Z</time>
      </trkpt>
      <trkpt lat="47.90884" lon="7.06714">
        <ele>1188.74</ele>
        <time>2021-06-23T10:01:48Z</time>
      </trkpt>
      <trkpt lat="47.90874" lon="7.06724">
        <ele>1188.54</ele>
        <time>2021-06-23T10:01:49Z</time>
      </trkpt>
      <trkpt lat="47.90802" lon="7.06825">
        <ele>1193.77</ele>
        <time>2021-06-23T10:01:51Z</time>
      </trkpt>
      <trkpt lat="47.90792" lon="7.06844">
        <ele>1195.1</ele>
        <time>2021-06-23T10:01:52Z</time>
      </trkpt>
      <trkpt lat="47.90783" lon="7.06866">
        <ele>1195.94</ele>
        <time>2021-06-23T10:01:54Z</time>
      </trkpt>
      <trkpt lat="47.90776" lon="7.0689">
        <ele>1196.24</ele>
        <time>2021-06-23T10:01:55Z</time>
      </trkpt>
      <trkpt lat="47.90751" lon="7.0703">
        <ele>1195.8</ele>
        <time>2021-06-23T10:01:57Z</time>
      </trkpt>
      <trkpt lat="47.90731" lon="7.07111">
        <ele>1199.41</ele>
        <time>2021-06-23T10:01:58Z</time>
      </trkpt>
      <trkpt lat="47.90729" lon="7.07129">
        <ele>1199.3</ele>
        <time>2021-06-23T10:02:00Z</time>
      </trkpt>
      <trkpt lat="47.90724" lon="7.07241">
        <ele>1201.18</ele>
        <time>2021-06-23T10:02:01Z</time>
      </trkpt>
      <trkpt lat="47.90722" lon="7.07265">
        <ele>1202.55</ele>
        <time>2021-06-23T10:02:03Z</time>
      </trkpt>
      <trkpt lat="47.90714" lon="7.07321">
        <ele>1206.38</ele>
        <time>2021-06-23T10:02:04Z</time>
      </trkpt>
      <trkpt lat="47.90712" lon="7.07356">
        <ele>1208.81</ele>
        <time>2021-06-23T10:02:06Z</time>
      </trkpt>
      <trkpt lat="47.90713" lon="7.0739">
        <ele>1210.26</ele>
        <time>2021-06-23T10:02:08Z</time>
      </trkpt>
      <trkpt lat="47.90718" lon="7.07457">
        <ele>1213.89</ele>
        <time>2021-06-23T10:02:09Z</time>
      </trkpt>
      <trkpt lat="47.90721" lon="7.07475">
        <ele>1213.52</ele>
        <time>2021-06-23T10:02:11Z</time>
      </trkpt>
      <trkpt lat="47.90729" lon="7.07509">
        <ele>1212.58</ele>
        <time>2021-06-23T10:02:12Z</time>
      </trkpt>
      <trkpt lat="47.90756" lon="7.07594">
        <ele>1220.44</ele>
        <time>2021-06-23T10:02:14Z</time>
      </trkpt>
      <trkpt lat="47.90772" lon="7.07658">
        <ele>1220.48</ele>
        <time>2021-06-23T10:02:15Z</time>
      </trkpt>
      <trkpt lat="47.90777" lon="7.07703">
        <ele>1223.07</ele>
        <time>2021-06-23T10:02:17Z</time>
      </trkpt>
      <trkpt lat="47.90774" lon="7.07803">
        <ele>1229.81</ele>
        <time>2021-06-23T10:02:18Z</time>
      </trkpt>
      <trkpt lat="47.90786" lon="7.07916">
        <ele>1228.61</ele>
        <time>2021-06-23T10:02:20Z</time>
      </trkpt>
      <trkpt lat="47.90783" lon="7.07947">
        <ele>1232.75</ele>
        <time>2021-06-23T10:02:21Z</time>
      </trkpt>
      <trkpt lat="47.90773" lon="7.07995">
        <ele>1238.04</ele>
        <time>2021-06-23T10:02:23Z</time>
      </trkpt>
      <trkpt lat="47.90765" lon="7.0805">
        <ele>1237.51</ele>
        <time>2021-06-23T10:02:24Z</time>
      </trkpt>
      <trkpt lat="47.90764" lon="7.08067">
        <ele>1237.22</ele>
        <time>2021-06-23T10:02:26Z</time>
      </trkpt>
      <trkpt lat="47.90768" lon="7.08112">
        <ele>1230.86</ele>
        <time>2021-06-23T10:02:27Z</time>
      </trkpt>
      <trkpt lat="47.90768" lon="7.08204">
        <ele>1230.6</ele>
        <time>2021-06-23T10:02:29Z</time>
      </trkpt>
      <trkpt lat="47.9077" lon="7.08245">
        <ele>1231.85</ele>
        <time>2021-06-23T10:02:31Z</time>
      </trkpt>
      <trkpt lat="47.90775" lon="7.08285">
        <ele>1233.46</ele>
        <time>2021-06-23T10:02:32Z</time>
      </trkpt>
      <trkpt lat="47.90789" lon="7.08374">
        <ele>1231.4</ele>
        <time>2021-06-23T10:02:34Z</time>
      </trkpt>
      <trkpt lat="47.90799" lon="7.08414">
        <ele>1229.5</ele>
        <time>2021-06-23T10:02:35Z</time>
      </trkpt>
      <trkpt lat="47.90814" lon="7.0846">
        <ele>1228.28</ele>
        <time>2021-06-23T10:02:37Z</time>
      </trkpt>
      <trkpt lat="47.90815" lon="7.08471">
        <ele>1229.01</ele>
        <time>2021-06-23T10:02:38Z</time>
      </trkpt>
      <trkpt lat="47.90815" lon="7.08499">
        <ele>1231.64</ele>
        <time>2021-06-23T10:02:40Z</time>
      </trkpt>
      <trkpt lat="47.90803" lon="7.08584">
        <ele>1228.15</ele>
        <time>2021-06-23T10:02:41Z</time>
      </trkpt>
      <trkpt lat="47.90795" lon="7.08609">
        <ele>1230.4</ele>
        <time>2021-06-23T10:02:43Z</time>
      </trkpt>
      <trkpt lat="47.90785" lon="7.08628">
        <ele>1230.67</ele>
        <time>2021-06-23T10:02:44Z</time>
      </trkpt>
      <trkpt lat="47.90778" lon="7.08635">
        <ele>1230.93</ele>
        <time>2021-06-23T10:02:46Z</time>
      </trkpt>
      <trkpt lat="47.90764" lon="7.08637">
        <ele>1232.41</ele>
        <time>2021-06-23T10:02:47Z</time>
      </trkpt>
      <trkpt lat="47.90718" lon="7.08635">
        <ele>1236.42</ele>
        <time>2021-06-23T10:02:49Z</time>
      </trkpt>
      <trkpt lat="47.90703" lon="7.08638">
        <ele>1237.98</ele>
        <time>2021-06-23T10:02:51Z</time>
      </trkpt>
      <trkpt lat="47.90689" lon="7.08645">
        <ele>1237.83</ele>
        <time>2021-06-23T10:02:52Z</time>
      </trkpt>
      <trkpt lat="47.90658" lon="7.08665">
        <ele>1233.93</ele>
        <time>2021-06-23T10:02:54Z</time>
      </trkpt>
      <trkpt lat="47.90629" lon="7.08692">
        <ele>1237.15</ele>
        <time>2021-06-23T10:02:55Z</time>
      </trkpt>
      <trkpt lat="47.90615" lon="7.08718">
        <ele>1238.68</ele>
        <time>2021-06-23T10:02:57Z</time>
      </trkpt>
      <trkpt lat="47.90608" lon="7.08746">
        <ele>1238.03</ele>
        <time>2021-06-23T10:02:58Z</time>
      </trkpt>
      <trkpt lat="47.90594" lon="7.08841">
        <ele>1233.57</ele>
        <time>2021-06-23T10:03:00Z</time>
      </trkpt>
      <trkpt lat="47.90584" lon="7.08934">
        <ele>1226.27</ele>
        <time>2021-06-23T10:03:01Z</time>
      </trkpt>
      <trkpt lat="47.90578" lon="7.0896">
        <ele>1223.35</ele>
        <time>2021-06-23T10:03:03Z</time>
      </trkpt>
      <trkpt lat="47.90574" lon="7.08971">
        <ele>1222.48</ele>
        <time>2021-06-23T10:03:04Z</time>
      </trkpt>
      <trkpt lat="47.90562" lon="7.08989">
        <ele>1222.89</ele>
        <time>2021-06-23T10:03:06Z</time>
      </trkpt>
      <trkpt lat="47.90519" lon="7.09026">
        <ele>1226.55</ele>
        <time>2021-06-23T10:03:07Z</time>
      </trkpt>
      <trkpt lat="47.90486" lon="7.09067">
        <ele>1230.53</ele>
        <time>2021-06-23T10:03:09Z</time>
      </trkpt>
      <trkpt lat="47.90467" lon="7.09096">
        <ele>1232.85</ele>
        <time>2021-06-23T10:03:10Z</time>
      </trkpt>
      <trkpt lat="47.9046" lon="7.09115">
        <ele>1234.61</ele>
        <time>2021-06-23T10:03:12Z</time>
      </trkpt>
      <trkpt lat="47.90458" lon="7.09125">
        <ele>1235.94</ele>
        <time>2021-06-23T10:03:14Z</time>
      </trkpt>
      <trkpt lat="47.90457" lon="7.09145">
        <ele>1238.58</ele>
        <time>2021-06-23T10:03:15Z</time>
      </trkpt>
      <trkpt lat="47.90462" lon="7.09188">
        <ele>1240.36</ele>
        <time>2021-06-23T10:03:17Z</time>
      </trkpt>
      <trkpt lat="47.90478" lon="7.09251">
        <ele>1241.79</ele>
        <time>2021-06-23T10:03:18Z</time>
      </trkpt>
      <trkpt lat="47.90487" lon="7.0928">
        <ele>1245.23</ele>
        <time>2021-06-23T10:03:20Z</time>
      </trkpt>
      <trkpt lat="47.90527" lon="7.0939">
        <ele>1255.24</ele>
        <time>2021-06-23T10:03:21Z</time>
      </trkpt>
      <trkpt lat="47.90538" lon="7.09424">
        <ele>1258.94</ele>
        <time>2021-06-23T10:03:23Z</time>
      </trkpt>
      <trkpt lat="47.90566" lon="7.09533">
        <ele>1269.21</ele>
        <time>2021-06-23T10:03:24Z</time>
      </trkpt>
      <trkpt lat="47.90569" lon="7.09553">
        <ele>1269.45</ele>
        <time>2021-06-23T10:03:26Z</time>
      </trkpt>
      <trkpt lat="47.90574" lon="7.09635">
        <ele>1272.45</ele>
        <time>2021-06-23T10:03:27Z</time>
      </trkpt>
      <trkpt lat="47.90574" lon="7.0966">
        <ele>1273.48</ele>
        <time>2021-06-23T10:03:29Z</time>
      </trkpt>
      <trkpt lat="47.90569" lon="7.09708">
        <ele>1277.36</ele>
        <time>2021-06-23T10:03:30Z</time>
      </trkpt>
      <trkpt lat="47.90569" lon="7.09725">
        <ele>1278.56</ele>
        <time>2021-06-23T10:03:32Z</time>
      </trkpt>
      <trkpt lat="47.90576" lon="7.09804">
        <ele>1284.5</ele>
        <time>2021-06-23T10:03:33Z</time>
      </trkpt>
      <trkpt lat="47.90578" lon="7.09858">
        <ele>1286.31</ele>
        <time>2021-06-23T10:03:35Z</time>
      </trkpt>
      <trkpt lat="47.90581" lon="7.10025">
        <ele>1294.76</ele>
        <time>2021-06-23T10:03:37Z</time>
      </trkpt>
      <trkpt lat="47.90584" lon="7.10089">
        <ele>1298.98</ele>
        <time>2021-06-23T10:03:38Z</time>
      </trkpt>
      <trkpt lat="47.90584" lon="7.10144">
        <ele>1303.45</ele>
        <time>2021-06-23T10:03:40Z</time>
      </trkpt>
      <trkpt lat="47.90586" lon="7.10182">
        <ele>1306.75</ele>
        <time>2021-06-23T10:03:41Z</time>
      </trkpt>
      <trkpt lat="47.90606" lon="7.10268">
        <ele>1310.35</ele>
        <time>2021-06-23T10:03:43Z</time>
      </trkpt>
      <trkpt lat="47.90616" lon="7.10302">
        <ele>1311.18</ele>
        <time>2021-06-23T10:03:44Z</time>
      </trkpt>
      <trkpt lat="47.90628" lon="7.10337">
        <ele>1314.9</ele>
        <time>2021-06-23T10:03:46Z</time>
      </trkpt>
      <trkpt lat="47.90637" lon="7.10354">
        <ele>1314.79</ele>
        <time>2021-06-23T10:03:47Z</time>
      </trkpt>
      <trkpt lat="47.90642" lon="7.1036">
        <ele>1314.65</ele>
        <time>2021-06-23T10:03:49Z</time>
      </trkpt>
      <trkpt lat="47.90674" lon="7.10384">
        <ele>1313.97</ele>
        <time>2021-06-23T10:03:50Z</time>
      </trkpt>
      <trkpt lat="47.90677" lon="7.10389">
        <ele>1314.22</ele>
        <time>2021-06-23T10:03:52Z</time>
      </trkpt>
      <trkpt lat="47.90681" lon="7.10399">
        <ele>1315.18</ele>
        <time>2021-06-23T10:03:53Z</time>
      </trkpt>
      <trkpt lat="47.9068" lon="7.10411">
        <ele>1317.21</ele>
        <time>2021-06-23T10:03:55Z</time>
      </trkpt>
      <trkpt lat="47.9068" lon="7.10411">
        <ele>1317.21</ele>
        <time>2021-06-23T10:03:55Z</time>
      </trkpt>
      <trkpt lat="47.90675" lon="7.10419">
        <ele>1317.92</ele>
        <time>2021-06-23T10:03:57Z</time>
      </trkpt>
      <trkpt lat="47.90671" lon="7.10421">
        <ele>1318.31</ele>
        <time>2021-06-23T10:03:59Z</time>
      </trkpt>
      <trkpt lat="47.90667" lon="7.10422">
        <ele>1318.61</ele>
        <time>2021-06-23T10:04:00Z</time>
      </trkpt>
      <trkpt lat="47.90659" lon="7.10421">
        <ele>1318.95</ele>
        <time>2021-06-23T10:04:02Z</time>
      </trkpt>
      <trkpt lat="47.90612" lon="7.10395">
        <ele>1321.16</ele>
        <time>2021-06-23T10:04:04Z</time>
      </trkpt>
      <trkpt lat="47.9057" lon="7.10362">
        <ele>1326.02</ele>
        <time>2021-06-23T10:04:06Z</time>
      </trkpt>
      <trkpt lat="47.90543" lon="7.10338">
        <ele>1328.54</ele>
        <time>2021-06-23T10:04:07Z</time>
      </trkpt>
      <trkpt lat="47.9052" lon="7.10304">
        <ele>1330.78</ele>
        <time>2021-06-23T10:04:09Z</time>
      </trkpt>
      <trkpt lat="47.90512" lon="7.10299">
        <ele>1331.34</ele>
        <time>2021-06-23T10:04:11Z</time>
      </trkpt>
      <trkpt lat="47.90504" lon="7.103">
        <ele>1332.18</ele>
        <time>2021-06-23T10:04:13Z</time>
      </trkpt>
      <trkpt lat="47.90479" lon="7.10326">
        <ele>1333.2</ele>
        <time>2021-06-23T10:04:14Z</time>
      </trkpt>
      <trkpt lat="47.9047" lon="7.10333">
        <ele>1333.17</ele>
        <time>2021-06-23T10:04:16Z</time>
      </trkpt>
      <trkpt lat="47.90463" lon="7.10335">
        <ele>1333.7</ele>
        <time>2021-06-23T10:04:18Z</time>
      </trkpt>
      <trkpt lat="47.90381" lon="7.10327">
        <ele>1338.57</ele>
        <time>2021-06-23T10:04:20Z</time>
      </trkpt>
      <trkpt lat="47.90322" lon="7.10326">
        <ele>1336.75</ele>
        <time>2021-06-23T10:04:21Z</time>
      </trkpt>
      <trkpt lat="47.90259" lon="7.10333">
        <ele>1330.49</ele>
        <time>2021-06-23T10:04:23Z</time>
      </trkpt>
      <trkpt lat="47.90204" lon="7.1033">
        <ele>1326.81</ele>
        <time>2021-06-23T10:04:25Z</time>
      </trkpt>
      <trkpt lat="47.90128" lon="7.10329">
        <ele>1318.27</ele>
        <time>2021-06-23T10:04:27Z</time>
      </trkpt>
      <trkpt lat="47.90107" lon="7.10325">
        <ele>1316.2</ele>
        <time>2021-06-23T10:04:28Z</time>
      </trkpt>
      <trkpt lat="47.90082" lon="7.10313">
        <ele>1314.62</ele>
        <time>2021-06-23T10:04:30Z</time>
      </trkpt>
      <trkpt lat="47.90049" lon="7.10307">
        <ele>1315.63</ele>
        <time>2021-06-23T10:04:32Z</time>
      </trkpt>
      <trkpt lat="47.89868" lon="7.10335">
        <ele>1297.42</ele>
        <time>2021-06-23T10:04:34Z</time>
      </trkpt>
      <trkpt lat="47.89831" lon="7.10335">
        <ele>1293.73</ele>
        <time>2021-06-23T10:04:35Z</time>
      </trkpt>
      <trkpt lat="47.89785" lon="7.10327">
        <ele>1287.95</ele>
        <time>2021-06-23T10:04:37Z</time>
      </trkpt>
      <trkpt lat="47.89765" lon="7.10326">
        <ele>1281.66</ele>
        <time>2021-06-23T10:04:39Z</time>
      </trkpt>
      <trkpt lat="47.89765" lon="7.10326">
        <ele>1281.66</ele>
        <time>2021-06-23T10:04:39Z</time>
      </trkpt>
      <trkpt lat="47.89722" lon="7.10324">
        <ele>1275.37</ele>
        <time>2021-06-23T10:04:40Z</time>
      </trkpt>
      <trkpt lat="47.89701" lon="7.10333">
        <ele>1273.65</ele>
        <time>2021-06-23T10:04:42Z</time>
      </trkpt>
      <trkpt lat="47.89684" lon="7.10351">
        <ele>1273.67</ele>
        <time>2021-06-23T10:04:43Z</time>
      </trkpt>
      <trkpt lat="47.89654" lon="7.10395">
        <ele>1272.34</ele>
        <time>2021-06-23T10:04:45Z</time>
      </trkpt>
      <trkpt lat="47.89555" lon="7.10524">
        <ele>1262.71</ele>
        <time>2021-06-23T10:04:46Z</time>
      </trkpt>
      <trkpt lat="47.8954" lon="7.10546">
        <ele>1259.54</ele>
        <time>2021-06-23T10:04:48Z</time>
      </trkpt>
      <trkpt lat="47.89524" lon="7.10577">
        <ele>1255.3</ele>
        <time>2021-06-23T10:04:49Z</time>
      </trkpt>
      <trkpt lat="47.89471" lon="7.10691">
        <ele>1244.06</ele>
        <time>2021-06-23T10:04:50Z</time>
      </trkpt>
      <trkpt lat="47.89452" lon="7.10721">
        <ele>1243.5</ele>
        <time>2021-06-23T10:04:52Z</time>
      </trkpt>
      <trkpt lat="47.89442" lon="7.10731">
        <ele>1243.12</ele>
        <time>2021-06-23T10:04:53Z</time>
      </trkpt>
      <trkpt lat="47.89429" lon="7.10739">
        <ele>1242.49</ele>
        <time>2021-06-23T10:04:55Z</time>
      </trkpt>
      <trkpt lat="47.89417" lon="7.10743">
        <ele>1242.54</ele>
        <time>2021-06-23T10:04:56Z</time>
      </trkpt>
      <trkpt lat="47.89406" lon="7.1074">
        <ele>1241.45</ele>
        <time>2021-06-23T10:04:58Z</time>
      </trkpt>
      <trkpt lat="47.89396" lon="7.10735">
        <ele>1240.48</ele>
        <time>2021-06-23T10:04:59Z</time>
      </trkpt>
      <trkpt lat="47.89381" lon="7.10715">
        <ele>1238.85</ele>
        <time>2021-06-23T10:05:00Z</time>
      </trkpt>
      <trkpt lat="47.89374" lon="7.1069">
        <ele>1238.07</ele>
        <time>2021-06-23T10:05:02Z</time>
      </trkpt>
      <trkpt lat="47.89373" lon="7.10676">
        <ele>1237.18</ele>
        <time>2021-06-23T10:05:03Z</time>
      </trkpt>
      <trkpt lat="47.89375" lon="7.10661">
        <ele>1236.42</ele>
        <time>2021-06-23T10:05:05Z</time>
      </trkpt>
      <trkpt lat="47.894" lon="7.10597">
        <ele>1233.28</ele>
        <time>2021-06-23T10:05:06Z</time>
      </trkpt>
      <trkpt lat="47.89401" lon="7.10588">
        <ele>1232.62</ele>
        <time>2021-06-23T10:05:08Z</time>
      </trkpt>
      <trkpt lat="47.89399" lon="7.10574">
        <ele>1231.23</ele>
        <time>2021-06-23T10:05:09Z</time>
      </trkpt>
      <trkpt lat="47.89394" lon="7.10569">
        <ele>1230.1</ele>
        <time>2021-06-23T10:05:10Z</time>
      </trkpt>
      <trkpt lat="47.89385" lon="7.10569">
        <ele>1228.38</ele>
        <time>2021-06-23T10:05:12Z</time>
      </trkpt>
      <trkpt lat="47.89375" lon="7.1058">
        <ele>1227.79</ele>
        <time>2021-06-23T10:05:13Z</time>
      </trkpt>
      <trkpt lat="47.89361" lon="7.10608">
        <ele>1228.8</ele>
        <time>2021-06-23T10:05:15Z</time>
      </trkpt>
      <trkpt lat="47.89349" lon="7.10625">
        <ele>1228.98</ele>
        <time>2021-06-23T10:05:16Z</time>
      </trkpt>
      <trkpt lat="47.89289" lon="7.10689">
        <ele>1224.85</ele>
        <time>2021-06-23T10:05:18Z</time>
      </trkpt>
      <trkpt lat="47.8927" lon="7.10703">
        <ele>1222.32</ele>
        <time>2021-06-23T10:05:19Z</time>
      </trkpt>
      <trkpt lat="47.89247" lon="7.10716">
        <ele>1217.9</ele>
        <time>2021-06-23T10:05:20Z</time>
      </trkpt>
      <trkpt lat="47.89111" lon="7.1078">
        <ele>1204.17</ele>
        <time>2021-06-23T10:05:22Z</time>
      </trkpt>
      <trkpt lat="47.89081" lon="7.10799">
        <ele>1200.02</ele>
        <time>2021-06-23T10:05:23Z</time>
      </trkpt>
      <trkpt lat="47.89069" lon="7.10809">
        <ele>1198.74</ele>
        <time>2021-06-23T10:05:25Z</time>
      </trkpt>
      <trkpt lat="47.89042" lon="7.10839">
        <ele>1196.7</ele>
        <time>2021-06-23T10:05:26Z</time>
      </trkpt>
      <trkpt lat="47.88983" lon="7.10896">
        <ele>1188.67</ele>
        <time>2021-06-23T10:05:27Z</time>
      </trkpt>
      <trkpt lat="47.88976" lon="7.10907">
        <ele>1187.49</ele>
        <time>2021-06-23T10:05:29Z</time>
      </trkpt>
      <trkpt lat="47.88969" lon="7.10922">
        <ele>1186.71</ele>
        <time>2021-06-23T10:05:30Z</time>
      </trkpt>
      <trkpt lat="47.88969" lon="7.10922">
        <ele>1186.71</ele>
        <time>2021-06-23T10:05:30Z</time>
      </trkpt>
      <trkpt lat="47.88959" lon="7.10955">
        <ele>1183.47</ele>
        <time>2021-06-23T10:05:32Z</time>
      </trkpt>
      <trkpt lat="47.88955" lon="7.10984">
        <ele>1181.77</ele>
        <time>2021-06-23T10:05:33Z</time>
      </trkpt>
      <trkpt lat="47.88955" lon="7.10995">
        <ele>1181.55</ele>
        <time>2021-06-23T10:05:34Z</time>
      </trkpt>
      <trkpt lat="47.88959" lon="7.1101">
        <ele>1181.07</ele>
        <time>2021-06-23T10:05:35Z</time>
      </trkpt>
      <trkpt lat="47.88965" lon="7.11025">
        <ele>1180.32</ele>
        <time>2021-06-23T10:05:36Z</time>
      </trkpt>
      <trkpt lat="47.88994" lon="7.11081">
        <ele>1177.06</ele>
        <time>2021-06-23T10:05:38Z</time>
      </trkpt>
      <trkpt lat="47.89033" lon="7.11146">
        <ele>1173.42</ele>
        <time>2021-06-23T10:05:39Z</time>
      </trkpt>
      <trkpt lat="47.89062" lon="7.11178">
        <ele>1168.16</ele>
        <time>2021-06-23T10:05:40Z</time>
      </trkpt>
      <trkpt lat="47.89099" lon="7.1121">
        <ele>1162.94</ele>
        <time>2021-06-23T10:05:41Z</time>
      </trkpt>
      <trkpt lat="47.89156" lon="7.11244">
        <ele>1161.74</ele>
        <time>2021-06-23T10:05:42Z</time>
      </trkpt>
      <trkpt lat="47.89162" lon="7.11252">
        <ele>1161.21</ele>
        <time>2021-06-23T10:05:44Z</time>
      </trkpt>
      <trkpt lat="47.89165" lon="7.11263">
        <ele>1160.02</ele>
        <time>2021-06-23T10:05:45Z</time>
      </trkpt>
      <trkpt lat="47.89164" lon="7.1127">
        <ele>1158.85</ele>
        <time>2021-06-23T10:05:46Z</time>
      </trkpt>
      <trkpt lat="47.89159" lon="7.11276">
        <ele>1157.67</ele>
        <time>2021-06-23T10:05:47Z</time>
      </trkpt>
      <trkpt lat="47.89152" lon="7.1128">
        <ele>1156.74</ele>
        <time>2021-06-23T10:05:48Z</time>
      </trkpt>
      <trkpt lat="47.89144" lon="7.11281">
        <ele>1156.09</ele>
        <time>2021-06-23T10:05:49Z</time>
      </trkpt>
      <trkpt lat="47.89117" lon="7.11273">
        <ele>1154.79</ele>
        <time>2021-06-23T10:05:51Z</time>
      </trkpt>
      <trkpt lat="47.89097" lon="7.11273">
        <ele>1152.49</ele>
        <time>2021-06-23T10:05:52Z</time>
      </trkpt>
      <trkpt lat="47.89069" lon="7.11279">
        <ele>1148.82</ele>
        <time>2021-06-23T10:05:53Z</time>
      </trkpt>
      <trkpt lat="47.89046" lon="7.11288">
        <ele>1146.37</ele>
        <time>2021-06-23T10:05:54Z</time>
      </trkpt>
      <trkpt lat="47.89017" lon="7.11309">
        <ele>1143.91</ele>
        <time>2021-06-23T10:05:55Z</time>
      </trkpt>
      <trkpt lat="47.89001" lon="7.11331">
        <ele>1141.2</ele>
        <time>2021-06-23T10:05:57Z</time>
      </trkpt>
      <trkpt lat="47.88994" lon="7.11346">
        <ele>1138.3</ele>
        <time>2021-06-23T10:05:58Z</time>
      </trkpt>
      <trkpt lat="47.88986" lon="7.1138">
        <ele>1135.86</ele>
        <time>2021-06-23T10:05:59Z</time>
      </trkpt>
      <trkpt lat="47.88985" lon="7.11411">
        <ele>1135.42</ele>
        <time>2021-06-23T10:06:00Z</time>
      </trkpt>
      <trkpt lat="47.88989" lon="7.1144">
        <ele>1134.8</ele>
        <time>2021-06-23T10:06:01Z</time>
      </trkpt>
      <trkpt lat="47.88995" lon="7.11456">
        <ele>1134.27</ele>
        <time>2021-06-23T10:06:03Z</time>
      </trkpt>
      <trkpt lat="47.89007" lon="7.11468">
        <ele>1133.41</ele>
        <time>2021-06-23T10:06:04Z</time>
      </trkpt>
      <trkpt lat="47.89018" lon="7.11475">
        <ele>1131.73</ele>
        <time>2021-06-23T10:06:05Z</time>
      </trkpt>
      <trkpt lat="47.89037" lon="7.11483">
        <ele>1128.58</ele>
        <time>2021-06-23T10:06:06Z</time>
      </trkpt>
      <trkpt lat="47.89061" lon="7.11486">
        <ele>1124.58</ele>
        <time>2021-06-23T10:06:07Z</time>
      </trkpt>
      <trkpt lat="47.89076" lon="7.11492">
        <ele>1123.11</ele>
        <time>2021-06-23T10:06:09Z</time>
      </trkpt>
      <trkpt lat="47.89094" lon="7.11506">
        <ele>1121.52</ele>
        <time>2021-06-23T10:06:10Z</time>
      </trkpt>
      <trkpt lat="47.89128" lon="7.11543">
        <ele>1116.44</ele>
        <time>2021-06-23T10:06:11Z</time>
      </trkpt>
      <trkpt lat="47.89174" lon="7.116">
        <ele>1108.68</ele>
        <time>2021-06-23T10:06:12Z</time>
      </trkpt>
      <trkpt lat="47.89245" lon="7.11684">
        <ele>1100.88</ele>
        <time>2021-06-23T10:06:13Z</time>
      </trkpt>
      <trkpt lat="47.89281" lon="7.11712">
        <ele>1099.99</ele>
        <time>2021-06-23T10:06:15Z</time>
      </trkpt>
      <trkpt lat="47.89306" lon="7.11726">
        <ele>1098.5</ele>
        <time>2021-06-23T10:06:16Z</time>
      </trkpt>
      <trkpt lat="47.89354" lon="7.11743">
        <ele>1098.3</ele>
        <time>2021-06-23T10:06:17Z</time>
      </trkpt>
      <trkpt lat="47.89364" lon="7.11754">
        <ele>1097.5</ele>
        <time>2021-06-23T10:06:18Z</time>
      </trkpt>
      <trkpt lat="47.89364" lon="7.11754">
        <ele>1097.5</ele>
        <time>2021-06-23T10:06:18Z</time>
      </trkpt>
      <trkpt lat="47.89367" lon="7.11761">
        <ele>1096.42</ele>
        <time>2021-06-23T10:06:20Z</time>
      </trkpt>
      <trkpt lat="47.89367" lon="7.11768">
        <ele>1095.41</ele>
        <time>2021-06-23T10:06:21Z</time>
      </trkpt>
      <trkpt lat="47.89365" lon="7.11776">
        <ele>1094.24</ele>
        <time>2021-06-23T10:06:22Z</time>
      </trkpt>
      <trkpt lat="47.89355" lon="7.11783">
        <ele>1092.9</ele>
        <time>2021-06-23T10:06:24Z</time>
      </trkpt>
      <trkpt lat="47.8933" lon="7.11782">
        <ele>1091.17</ele>
        <time>2021-06-23T10:06:25Z</time>
      </trkpt>
      <trkpt lat="47.89305" lon="7.11785">
        <ele>1089.2</ele>
        <time>2021-06-23T10:06:26Z</time>
      </trkpt>
      <trkpt lat="47.89246" lon="7.11812">
        <ele>1082.97</ele>
        <time>2021-06-23T10:06:28Z</time>
      </trkpt>
      <trkpt lat="47.89207" lon="7.11818">
        <ele>1081</ele>
        <time>2021-06-23T10:06:29Z</time>
      </trkpt>
      <trkpt lat="47.89186" lon="7.11829">
        <ele>1079.75</ele>
        <time>2021-06-23T10:06:30Z</time>
      </trkpt>
      <trkpt lat="47.89176" lon="7.1184">
        <ele>1078.2</ele>
        <time>2021-06-23T10:06:32Z</time>
      </trkpt>
      <trkpt lat="47.89138" lon="7.11899">
        <ele>1072.61</ele>
        <time>2021-06-23T10:06:33Z</time>
      </trkpt>
      <trkpt lat="47.89121" lon="7.11922">
        <ele>1070.23</ele>
        <time>2021-06-23T10:06:34Z</time>
      </trkpt>
      <trkpt lat="47.89095" lon="7.11948">
        <ele>1066.47</ele>
        <time>2021-06-23T10:06:36Z</time>
      </trkpt>
      <trkpt lat="47.89035" lon="7.11995">
        <ele>1059.07</ele>
        <time>2021-06-23T10:06:37Z</time>
      </trkpt>
      <trkpt lat="47.88945" lon="7.12052">
        <ele>1061.51</ele>
        <time>2021-06-23T10:06:38Z</time>
      </trkpt>
      <trkpt lat="47.8892" lon="7.12072">
        <ele>1057.86</ele>
        <time>2021-06-23T10:06:40Z</time>
      </trkpt>
      <trkpt lat="47.88885" lon="7.12105">
        <ele>1052.92</ele>
        <time>2021-06-23T10:06:41Z</time>
      </trkpt>
      <trkpt lat="47.88865" lon="7.12131">
        <ele>1049.36</ele>
        <time>2021-06-23T10:06:43Z</time>
      </trkpt>
      <trkpt lat="47.88821" lon="7.12203">
        <ele>1046.22</ele>
        <time>2021-06-23T10:06:44Z</time>
      </trkpt>
      <trkpt lat="47.88808" lon="7.12236">
        <ele>1042.51</ele>
        <time>2021-06-23T10:06:45Z</time>
      </trkpt>
      <trkpt lat="47.88788" lon="7.1231">
        <ele>1033.13</ele>
        <time>2021-06-23T10:06:47Z</time>
      </trkpt>
      <trkpt lat="47.88779" lon="7.12338">
        <ele>1031.62</ele>
        <time>2021-06-23T10:06:48Z</time>
      </trkpt>
      <trkpt lat="47.88772" lon="7.12348">
        <ele>1031.13</ele>
        <time>2021-06-23T10:06:49Z</time>
      </trkpt>
      <trkpt lat="47.88761" lon="7.12358">
        <ele>1030.33</ele>
        <time>2021-06-23T10:06:51Z</time>
      </trkpt>
      <trkpt lat="47.88751" lon="7.12365">
        <ele>1029.48</ele>
        <time>2021-06-23T10:06:52Z</time>
      </trkpt>
      <trkpt lat="47.88736" lon="7.12366">
        <ele>1027.21</ele>
        <time>2021-06-23T10:06:53Z</time>
      </trkpt>
      <trkpt lat="47.88725" lon="7.12362">
        <ele>1026.3</ele>
        <time>2021-06-23T10:06:55Z</time>
      </trkpt>
      <trkpt lat="47.88714" lon="7.12354">
        <ele>1025.55</ele>
        <time>2021-06-23T10:06:56Z</time>
      </trkpt>
      <trkpt lat="47.88714" lon="7.12354">
        <ele>1025.55</ele>
        <time>2021-06-23T10:06:56Z</time>
      </trkpt>
      <trkpt lat="47.88684" lon="7.12325">
        <ele>1021.63</ele>
        <time>2021-06-23T10:06:57Z</time>
      </trkpt>
      <trkpt lat="47.88644" lon="7.12271">
        <ele>1018.7</ele>
        <time>2021-06-23T10:06:58Z</time>
      </trkpt>
      <trkpt lat="47.88629" lon="7.12247">
        <ele>1015.84</ele>
        <time>2021-06-23T10:07:00Z</time>
      </trkpt>
      <trkpt lat="47.88566" lon="7.12106">
        <ele>1001.08</ele>
        <time>2021-06-23T10:07:01Z</time>
      </trkpt>
      <trkpt lat="47.88553" lon="7.12068">
        <ele>998.84</ele>
        <time>2021-06-23T10:07:02Z</time>
      </trkpt>
      <trkpt lat="47.8855" lon="7.12044">
        <ele>998.11</ele>
        <time>2021-06-23T10:07:03Z</time>
      </trkpt>
      <trkpt lat="47.88551" lon="7.12019">
        <ele>997.84</ele>
        <time>2021-06-23T10:07:04Z</time>
      </trkpt>
      <trkpt lat="47.88556" lon="7.11993">
        <ele>998.97</ele>
        <time>2021-06-23T10:07:06Z</time>
      </trkpt>
      <trkpt lat="47.88566" lon="7.11968">
        <ele>1001.32</ele>
        <time>2021-06-23T10:07:07Z</time>
      </trkpt>
      <trkpt lat="47.88566" lon="7.11956">
        <ele>1001.45</ele>
        <time>2021-06-23T10:07:08Z</time>
      </trkpt>
      <trkpt lat="47.88563" lon="7.11947">
        <ele>1000.39</ele>
        <time>2021-06-23T10:07:09Z</time>
      </trkpt>
      <trkpt lat="47.88558" lon="7.11943">
        <ele>998.07</ele>
        <time>2021-06-23T10:07:10Z</time>
      </trkpt>
      <trkpt lat="47.88552" lon="7.11944">
        <ele>995.86</ele>
        <time>2021-06-23T10:07:11Z</time>
      </trkpt>
      <trkpt lat="47.88545" lon="7.11951">
        <ele>993.87</ele>
        <time>2021-06-23T10:07:13Z</time>
      </trkpt>
      <trkpt lat="47.8854" lon="7.11981">
        <ele>992.89</ele>
        <time>2021-06-23T10:07:14Z</time>
      </trkpt>
      <trkpt lat="47.8854" lon="7.11981">
        <ele>992.89</ele>
        <time>2021-06-23T10:07:14Z</time>
      </trkpt>
      <trkpt lat="47.88539" lon="7.11994">
        <ele>993.11</ele>
        <time>2021-06-23T10:07:15Z</time>
      </trkpt>
      <trkpt lat="47.88523" lon="7.12053">
        <ele>991.36</ele>
        <time>2021-06-23T10:07:17Z</time>
      </trkpt>
      <trkpt lat="47.8852" lon="7.1207">
        <ele>989.65</ele>
        <time>2021-06-23T10:07:18Z</time>
      </trkpt>
      <trkpt lat="47.8852" lon="7.1209">
        <ele>987.92</ele>
        <time>2021-06-23T10:07:19Z</time>
      </trkpt>
      <trkpt lat="47.88525" lon="7.12144">
        <ele>986.38</ele>
        <time>2021-06-23T10:07:21Z</time>
      </trkpt>
      <trkpt lat="47.88543" lon="7.1229">
        <ele>971.41</ele>
        <time>2021-06-23T10:07:22Z</time>
      </trkpt>
      <trkpt lat="47.88554" lon="7.12344">
        <ele>970.58</ele>
        <time>2021-06-23T10:07:23Z</time>
      </trkpt>
      <trkpt lat="47.88568" lon="7.12399">
        <ele>966.99</ele>
        <time>2021-06-23T10:07:25Z</time>
      </trkpt>
      <trkpt lat="47.88573" lon="7.1243">
        <ele>963.98</ele>
        <time>2021-06-23T10:07:26Z</time>
      </trkpt>
      <trkpt lat="47.88586" lon="7.12546">
        <ele>948.24</ele>
        <time>2021-06-23T10:07:28Z</time>
      </trkpt>
      <trkpt lat="47.88599" lon="7.126">
        <ele>945.08</ele>
        <time>2021-06-23T10:07:29Z</time>
      </trkpt>
      <trkpt lat="47.88602" lon="7.12623">
        <ele>943.23</ele>
        <time>2021-06-23T10:07:30Z</time>
      </trkpt>
      <trkpt lat="47.88607" lon="7.12707">
        <ele>938.19</ele>
        <time>2021-06-23T10:07:32Z</time>
      </trkpt>
      <trkpt lat="47.88605" lon="7.1274">
        <ele>938.57</ele>
        <time>2021-06-23T10:07:33Z</time>
      </trkpt>
      <trkpt lat="47.88601" lon="7.12756">
        <ele>939.18</ele>
        <time>2021-06-23T10:07:35Z</time>
      </trkpt>
      <trkpt lat="47.88596" lon="7.12767">
        <ele>939.73</ele>
        <time>2021-06-23T10:07:36Z</time>
      </trkpt>
      <trkpt lat="47.88588" lon="7.12778">
        <ele>940.58</ele>
        <time>2021-06-23T10:07:37Z</time>
      </trkpt>
      <trkpt lat="47.88581" lon="7.12785">
        <ele>941.41</ele>
        <time>2021-06-23T10:07:39Z</time>
      </trkpt>
      <trkpt lat="47.8856" lon="7.12797">
        <ele>944.77</ele>
        <time>2021-06-23T10:07:40Z</time>
      </trkpt>
      <trkpt lat="47.88503" lon="7.12814">
        <ele>943.95</ele>
        <time>2021-06-23T10:07:42Z</time>
      </trkpt>
      <trkpt lat="47.88483" lon="7.12825">
        <ele>942.17</ele>
        <time>2021-06-23T10:07:43Z</time>
      </trkpt>
      <trkpt lat="47.8847" lon="7.12837">
        <ele>941.63</ele>
        <time>2021-06-23T10:07:44Z</time>
      </trkpt>
      <trkpt lat="47.88462" lon="7.12849">
        <ele>940.47</ele>
        <time>2021-06-23T10:07:46Z</time>
      </trkpt>
      <trkpt lat="47.88462" lon="7.12849">
        <ele>940.47</ele>
        <time>2021-06-23T10:07:46Z</time>
      </trkpt>
      <trkpt lat="47.88429" lon="7.12899">
        <ele>939.32</ele>
        <time>2021-06-23T10:07:47Z</time>
      </trkpt>
      <trkpt lat="47.88418" lon="7.12912">
        <ele>940.08</ele>
        <time>2021-06-23T10:07:48Z</time>
      </trkpt>
      <trkpt lat="47.884" lon="7.12921">
        <ele>939.83</ele>
        <time>2021-06-23T10:07:49Z</time>
      </trkpt>
      <trkpt lat="47.88385" lon="7.12922">
        <ele>938.45</ele>
        <time>2021-06-23T10:07:50Z</time>
      </trkpt>
      <trkpt lat="47.8837" lon="7.12919">
        <ele>937.59</ele>
        <time>2021-06-23T10:07:51Z</time>
      </trkpt>
      <trkpt lat="47.88331" lon="7.12898">
        <ele>932.43</ele>
        <time>2021-06-23T10:07:53Z</time>
      </trkpt>
      <trkpt lat="47.88308" lon="7.1289">
        <ele>931.05</ele>
        <time>2021-06-23T10:07:54Z</time>
      </trkpt>
      <trkpt lat="47.88235" lon="7.12872">
        <ele>917.36</ele>
        <time>2021-06-23T10:07:55Z</time>
      </trkpt>
      <trkpt lat="47.88147" lon="7.12833">
        <ele>906.02</ele>
        <time>2021-06-23T10:07:56Z</time>
      </trkpt>
      <trkpt lat="47.88115" lon="7.12831">
        <ele>902.83</ele>
        <time>2021-06-23T10:07:57Z</time>
      </trkpt>
      <trkpt lat="47.88106" lon="7.12834">
        <ele>902.4</ele>
        <time>2021-06-23T10:07:58Z</time>
      </trkpt>
      <trkpt lat="47.881" lon="7.1284">
        <ele>902.7</ele>
        <time>2021-06-23T10:07:59Z</time>
      </trkpt>
      <trkpt lat="47.88086" lon="7.12867">
        <ele>904.66</ele>
        <time>2021-06-23T10:08:01Z</time>
      </trkpt>
      <trkpt lat="47.88079" lon="7.12876">
        <ele>904.19</ele>
        <time>2021-06-23T10:08:02Z</time>
      </trkpt>
      <trkpt lat="47.88067" lon="7.12881">
        <ele>903.55</ele>
        <time>2021-06-23T10:08:03Z</time>
      </trkpt>
      <trkpt lat="47.88056" lon="7.1288">
        <ele>902.74</ele>
        <time>2021-06-23T10:08:04Z</time>
      </trkpt>
      <trkpt lat="47.87992" lon="7.12855">
        <ele>896.22</ele>
        <time>2021-06-23T10:08:05Z</time>
      </trkpt>
      <trkpt lat="47.8798" lon="7.12847">
        <ele>894</ele>
        <time>2021-06-23T10:08:06Z</time>
      </trkpt>
      <trkpt lat="47.87917" lon="7.12788">
        <ele>885.09</ele>
        <time>2021-06-23T10:08:08Z</time>
      </trkpt>
      <trkpt lat="47.87908" lon="7.12775">
        <ele>883.19</ele>
        <time>2021-06-23T10:08:09Z</time>
      </trkpt>
      <trkpt lat="47.87906" lon="7.12759">
        <ele>882.99</ele>
        <time>2021-06-23T10:08:10Z</time>
      </trkpt>
      <trkpt lat="47.87908" lon="7.12743">
        <ele>883.13</ele>
        <time>2021-06-23T10:08:11Z</time>
      </trkpt>
      <trkpt lat="47.87919" lon="7.12731">
        <ele>883.31</ele>
        <time>2021-06-23T10:08:12Z</time>
      </trkpt>
      <trkpt lat="47.87932" lon="7.12725">
        <ele>882.81</ele>
        <time>2021-06-23T10:08:13Z</time>
      </trkpt>
      <trkpt lat="47.87954" lon="7.12723">
        <ele>882.49</ele>
        <time>2021-06-23T10:08:14Z</time>
      </trkpt>
      <trkpt lat="47.87985" lon="7.12727">
        <ele>883.59</ele>
        <time>2021-06-23T10:08:16Z</time>
      </trkpt>
      <trkpt lat="47.87993" lon="7.12725">
        <ele>882.83</ele>
        <time>2021-06-23T10:08:17Z</time>
      </trkpt>
      <trkpt lat="47.87997" lon="7.12714">
        <ele>880.59</ele>
        <time>2021-06-23T10:08:18Z</time>
      </trkpt>
      <trkpt lat="47.87996" lon="7.12704">
        <ele>878.84</ele>
        <time>2021-06-23T10:08:19Z</time>
      </trkpt>
      <trkpt lat="47.87993" lon="7.12697">
        <ele>877.51</ele>
        <time>2021-06-23T10:08:20Z</time>
      </trkpt>
      <trkpt lat="47.87984" lon="7.12693">
        <ele>876.67</ele>
        <time>2021-06-23T10:08:21Z</time>
      </trkpt>
      <trkpt lat="47.87964" lon="7.12692">
        <ele>876.83</ele>
        <time>2021-06-23T10:08:22Z</time>
      </trkpt>
      <trkpt lat="47.87948" lon="7.12689">
        <ele>876.45</ele>
        <time>2021-06-23T10:08:24Z</time>
      </trkpt>
      <trkpt lat="47.87917" lon="7.1267">
        <ele>872.75</ele>
        <time>2021-06-23T10:08:25Z</time>
      </trkpt>
      <trkpt lat="47.87898" lon="7.12665">
        <ele>870.01</ele>
        <time>2021-06-23T10:08:26Z</time>
      </trkpt>
      <trkpt lat="47.87881" lon="7.12663">
        <ele>867.7</ele>
        <time>2021-06-23T10:08:27Z</time>
      </trkpt>
      <trkpt lat="47.87828" lon="7.1267">
        <ele>860.87</ele>
        <time>2021-06-23T10:08:28Z</time>
      </trkpt>
      <trkpt lat="47.87793" lon="7.12667">
        <ele>853.84</ele>
        <time>2021-06-23T10:08:29Z</time>
      </trkpt>
      <trkpt lat="47.8778" lon="7.12668">
        <ele>851.5</ele>
        <time>2021-06-23T10:08:30Z</time>
      </trkpt>
      <trkpt lat="47.87745" lon="7.12685">
        <ele>846.29</ele>
        <time>2021-06-23T10:08:32Z</time>
      </trkpt>
      <trkpt lat="47.87736" lon="7.12687">
        <ele>846.1</ele>
        <time>2021-06-23T10:08:33Z</time>
      </trkpt>
      <trkpt lat="47.87724" lon="7.12687">
        <ele>845.39</ele>
        <time>2021-06-23T10:08:34Z</time>
      </trkpt>
      <trkpt lat="47.87669" lon="7.12666">
        <ele>842.92</ele>
        <time>2021-06-23T10:08:35Z</time>
      </trkpt>
      <trkpt lat="47.87651" lon="7.12664">
        <ele>840.15</ele>
        <time>2021-06-23T10:08:36Z</time>
      </trkpt>
      <trkpt lat="47.87629" lon="7.12665">
        <ele>836.59</ele>
        <time>2021-06-23T10:08:37Z</time>
      </trkpt>
      <trkpt lat="47.87599" lon="7.12675">
        <ele>831.54</ele>
        <time>2021-06-23T10:08:39Z</time>
      </trkpt>
      <trkpt lat="47.87586" lon="7.12686">
        <ele>829.22</ele>
        <time>2021-06-23T10:08:40Z</time>
      </trkpt>
      <trkpt lat="47.8757" lon="7.12703">
        <ele>826.21</ele>
        <time>2021-06-23T10:08:41Z</time>
      </trkpt>
      <trkpt lat="47.87531" lon="7.12756">
        <ele>823.49</ele>
        <time>2021-06-23T10:08:42Z</time>
      </trkpt>
      <trkpt lat="47.8747" lon="7.12796">
        <ele>830.43</ele>
        <time>2021-06-23T10:08:43Z</time>
      </trkpt>
      <trkpt lat="47.87459" lon="7.1281">
        <ele>831.95</ele>
        <time>2021-06-23T10:08:44Z</time>
      </trkpt>
      <trkpt lat="47.87429" lon="7.12859">
        <ele>840.85</ele>
        <time>2021-06-23T10:08:45Z</time>
      </trkpt>
      <trkpt lat="47.8742" lon="7.12863">
        <ele>843.67</ele>
        <time>2021-06-23T10:08:47Z</time>
      </trkpt>
      <trkpt lat="47.8741" lon="7.12863">
        <ele>845.03</ele>
        <time>2021-06-23T10:08:48Z</time>
      </trkpt>
      <trkpt lat="47.874" lon="7.12862">
        <ele>845.57</ele>
        <time>2021-06-23T10:08:49Z</time>
      </trkpt>
      <trkpt lat="47.87378" lon="7.12851">
        <ele>847.75</ele>
        <time>2021-06-23T10:08:50Z</time>
      </trkpt>
      <trkpt lat="47.87364" lon="7.12848">
        <ele>849.66</ele>
        <time>2021-06-23T10:08:51Z</time>
      </trkpt>
      <trkpt lat="47.87355" lon="7.12848">
        <ele>849.95</ele>
        <time>2021-06-23T10:08:52Z</time>
      </trkpt>
      <trkpt lat="47.87345" lon="7.12853">
        <ele>849.63</ele>
        <time>2021-06-23T10:08:53Z</time>
      </trkpt>
      <trkpt lat="47.87335" lon="7.12865">
        <ele>848.64</ele>
        <time>2021-06-23T10:08:55Z</time>
      </trkpt>
      <trkpt lat="47.87323" lon="7.12894">
        <ele>848.67</ele>
        <time>2021-06-23T10:08:56Z</time>
      </trkpt>
      <trkpt lat="47.87318" lon="7.12905">
        <ele>848.94</ele>
        <time>2021-06-23T10:08:57Z</time>
      </trkpt>
      <trkpt lat="47.87311" lon="7.1291">
        <ele>849.72</ele>
        <time>2021-06-23T10:08:58Z</time>
      </trkpt>
      <trkpt lat="47.87304" lon="7.12908">
        <ele>851.35</ele>
        <time>2021-06-23T10:08:59Z</time>
      </trkpt>
      <trkpt lat="47.873" lon="7.12902">
        <ele>853.45</ele>
        <time>2021-06-23T10:09:00Z</time>
      </trkpt>
      <trkpt lat="47.87299" lon="7.12892">
        <ele>854.9</ele>
        <time>2021-06-23T10:09:01Z</time>
      </trkpt>
      <trkpt lat="47.87301" lon="7.12882">
        <ele>854.76</ele>
        <time>2021-06-23T10:09:03Z</time>
      </trkpt>
      <trkpt lat="47.87316" lon="7.12831">
        <ele>854.18</ele>
        <time>2021-06-23T10:09:04Z</time>
      </trkpt>
      <trkpt lat="47.87316" lon="7.12819">
        <ele>855.37</ele>
        <time>2021-06-23T10:09:05Z</time>
      </trkpt>
      <trkpt lat="47.87311" lon="7.12795">
        <ele>856.82</ele>
        <time>2021-06-23T10:09:06Z</time>
      </trkpt>
      <trkpt lat="47.87298" lon="7.12775">
        <ele>857.03</ele>
        <time>2021-06-23T10:09:07Z</time>
      </trkpt>
      <trkpt lat="47.87277" lon="7.12753">
        <ele>855.47</ele>
        <time>2021-06-23T10:09:08Z</time>
      </trkpt>
      <trkpt lat="47.87231" lon="7.12728">
        <ele>859.79</ele>
        <time>2021-06-23T10:09:10Z</time>
      </trkpt>
      <trkpt lat="47.8722" lon="7.12716">
        <ele>859.41</ele>
        <time>2021-06-23T10:09:11Z</time>
      </trkpt>
      <trkpt lat="47.87213" lon="7.12705">
        <ele>859.05</ele>
        <time>2021-06-23T10:09:12Z</time>
      </trkpt>
      <trkpt lat="47.87135" lon="7.1253">
        <ele>864.19</ele>
        <time>2021-06-23T10:09:13Z</time>
      </trkpt>
      <trkpt lat="47.87093" lon="7.12412">
        <ele>864.64</ele>
        <time>2021-06-23T10:09:14Z</time>
      </trkpt>
      <trkpt lat="47.87088" lon="7.12382">
        <ele>863.9</ele>
        <time>2021-06-23T10:09:15Z</time>
      </trkpt>
      <trkpt lat="47.87085" lon="7.12343">
        <ele>859.52</ele>
        <time>2021-06-23T10:09:16Z</time>
      </trkpt>
      <trkpt lat="47.87086" lon="7.12287">
        <ele>856.35</ele>
        <time>2021-06-23T10:09:18Z</time>
      </trkpt>
      <trkpt lat="47.87083" lon="7.1227">
        <ele>855.88</ele>
        <time>2021-06-23T10:09:19Z</time>
      </trkpt>
      <trkpt lat="47.87077" lon="7.12256">
        <ele>854.69</ele>
        <time>2021-06-23T10:09:20Z</time>
      </trkpt>
      <trkpt lat="47.87068" lon="7.12249">
        <ele>854.99</ele>
        <time>2021-06-23T10:09:21Z</time>
      </trkpt>
      <trkpt lat="47.87026" lon="7.12239">
        <ele>862.04</ele>
        <time>2021-06-23T10:09:22Z</time>
      </trkpt>
      <trkpt lat="47.87007" lon="7.12231">
        <ele>863.46</ele>
        <time>2021-06-23T10:09:23Z</time>
      </trkpt>
      <trkpt lat="47.8695" lon="7.12194">
        <ele>857.76</ele>
        <time>2021-06-23T10:09:24Z</time>
      </trkpt>
      <trkpt lat="47.8693" lon="7.12184">
        <ele>855.25</ele>
        <time>2021-06-23T10:09:26Z</time>
      </trkpt>
      <trkpt lat="47.86916" lon="7.12184">
        <ele>854.84</ele>
        <time>2021-06-23T10:09:27Z</time>
      </trkpt>
      <trkpt lat="47.869" lon="7.12191">
        <ele>854.36</ele>
        <time>2021-06-23T10:09:28Z</time>
      </trkpt>
      <trkpt lat="47.86854" lon="7.12256">
        <ele>858.82</ele>
        <time>2021-06-23T10:09:29Z</time>
      </trkpt>
      <trkpt lat="47.86839" lon="7.1227">
        <ele>858.12</ele>
        <time>2021-06-23T10:09:30Z</time>
      </trkpt>
      <trkpt lat="47.86829" lon="7.12274">
        <ele>857.28</ele>
        <time>2021-06-23T10:09:31Z</time>
      </trkpt>
      <trkpt lat="47.86818" lon="7.12273">
        <ele>856.46</ele>
        <time>2021-06-23T10:09:32Z</time>
      </trkpt>
      <trkpt lat="47.86806" lon="7.12268">
        <ele>855.33</ele>
        <time>2021-06-23T10:09:34Z</time>
      </trkpt>
      <trkpt lat="47.86794" lon="7.12258">
        <ele>856.17</ele>
        <time>2021-06-23T10:09:35Z</time>
      </trkpt>
      <trkpt lat="47.86712" lon="7.1217">
        <ele>859.2</ele>
        <time>2021-06-23T10:09:36Z</time>
      </trkpt>
      <trkpt lat="47.86698" lon="7.12164">
        <ele>860.05</ele>
        <time>2021-06-23T10:09:37Z</time>
      </trkpt>
      <trkpt lat="47.86692" lon="7.12163">
        <ele>860.08</ele>
        <time>2021-06-23T10:09:38Z</time>
      </trkpt>
      <trkpt lat="47.86685" lon="7.12166">
        <ele>859.46</ele>
        <time>2021-06-23T10:09:39Z</time>
      </trkpt>
      <trkpt lat="47.86675" lon="7.12178">
        <ele>859.44</ele>
        <time>2021-06-23T10:09:41Z</time>
      </trkpt>
      <trkpt lat="47.8667" lon="7.12198">
        <ele>860.49</ele>
        <time>2021-06-23T10:09:42Z</time>
      </trkpt>
      <trkpt lat="47.86669" lon="7.1221">
        <ele>859.99</ele>
        <time>2021-06-23T10:09:43Z</time>
      </trkpt>
      <trkpt lat="47.86674" lon="7.12251">
        <ele>860.45</ele>
        <time>2021-06-23T10:09:44Z</time>
      </trkpt>
      <trkpt lat="47.86682" lon="7.12277">
        <ele>863.13</ele>
        <time>2021-06-23T10:09:45Z</time>
      </trkpt>
      <trkpt lat="47.86687" lon="7.12289">
        <ele>864.79</ele>
        <time>2021-06-23T10:09:46Z</time>
      </trkpt>
      <trkpt lat="47.86708" lon="7.12318">
        <ele>867.71</ele>
        <time>2021-06-23T10:09:47Z</time>
      </trkpt>
      <trkpt lat="47.86714" lon="7.12334">
        <ele>868.43</ele>
        <time>2021-06-23T10:09:49Z</time>
      </trkpt>
      <trkpt lat="47.86715" lon="7.12344">
        <ele>868.94</ele>
        <time>2021-06-23T10:09:50Z</time>
      </trkpt>
      <trkpt lat="47.86713" lon="7.1236">
        <ele>869.58</ele>
        <time>2021-06-23T10:09:51Z</time>
      </trkpt>
      <trkpt lat="47.86707" lon="7.12371">
        <ele>869.99</ele>
        <time>2021-06-23T10:09:52Z</time>
      </trkpt>
      <trkpt lat="47.86703" lon="7.12376">
        <ele>870.23</ele>
        <time>2021-06-23T10:09:53Z</time>
      </trkpt>
      <trkpt lat="47.86688" lon="7.12387">
        <ele>870.79</ele>
        <time>2021-06-23T10:09:54Z</time>
      </trkpt>
      <trkpt lat="47.86642" lon="7.12408">
        <ele>876.47</ele>
        <time>2021-06-23T10:09:55Z</time>
      </trkpt>
      <trkpt lat="47.86618" lon="7.12415">
        <ele>879.47</ele>
        <time>2021-06-23T10:09:57Z</time>
      </trkpt>
      <trkpt lat="47.86579" lon="7.12421">
        <ele>880</ele>
        <time>2021-06-23T10:09:58Z</time>
      </trkpt>
      <trkpt lat="47.86452" lon="7.12419">
        <ele>894.77</ele>
        <time>2021-06-23T10:09:59Z</time>
      </trkpt>
      <trkpt lat="47.86444" lon="7.12416">
        <ele>896.09</ele>
        <time>2021-06-23T10:10:00Z</time>
      </trkpt>
      <trkpt lat="47.86431" lon="7.12402">
        <ele>897.25</ele>
        <time>2021-06-23T10:10:01Z</time>
      </trkpt>
      <trkpt lat="47.86431" lon="7.12402">
        <ele>897.25</ele>
        <time>2021-06-23T10:10:01Z</time>
      </trkpt>
      <trkpt lat="47.86421" lon="7.12392">
        <ele>898.37</ele>
        <time>2021-06-23T10:10:03Z</time>
      </trkpt>
      <trkpt lat="47.86414" lon="7.12389">
        <ele>899.6</ele>
        <time>2021-06-23T10:10:04Z</time>
      </trkpt>
      <trkpt lat="47.86408" lon="7.1239">
        <ele>901.1</ele>
        <time>2021-06-23T10:10:05Z</time>
      </trkpt>
      <trkpt lat="47.86405" lon="7.12393">
        <ele>902.19</ele>
        <time>2021-06-23T10:10:07Z</time>
      </trkpt>
      <trkpt lat="47.86402" lon="7.12403">
        <ele>904.1</ele>
        <time>2021-06-23T10:10:08Z</time>
      </trkpt>
      <trkpt lat="47.86408" lon="7.12419">
        <ele>905.68</ele>
        <time>2021-06-23T10:10:10Z</time>
      </trkpt>
      <trkpt lat="47.86415" lon="7.12427">
        <ele>906.55</ele>
        <time>2021-06-23T10:10:11Z</time>
      </trkpt>
      <trkpt lat="47.86466" lon="7.12454">
        <ele>901.04</ele>
        <time>2021-06-23T10:10:12Z</time>
      </trkpt>
      <trkpt lat="47.86492" lon="7.12471">
        <ele>901.09</ele>
        <time>2021-06-23T10:10:14Z</time>
      </trkpt>
      <trkpt lat="47.86505" lon="7.12487">
        <ele>902.38</ele>
        <time>2021-06-23T10:10:15Z</time>
      </trkpt>
      <trkpt lat="47.86533" lon="7.12536">
        <ele>909.1</ele>
        <time>2021-06-23T10:10:17Z</time>
      </trkpt>
      <trkpt lat="47.86538" lon="7.1255">
        <ele>910.86</ele>
        <time>2021-06-23T10:10:18Z</time>
      </trkpt>
      <trkpt lat="47.86541" lon="7.12575">
        <ele>912.89</ele>
        <time>2021-06-23T10:10:20Z</time>
      </trkpt>
      <trkpt lat="47.8654" lon="7.12623">
        <ele>913.93</ele>
        <time>2021-06-23T10:10:21Z</time>
      </trkpt>
      <trkpt lat="47.86537" lon="7.12638">
        <ele>914.35</ele>
        <time>2021-06-23T10:10:22Z</time>
      </trkpt>
      <trkpt lat="47.86532" lon="7.12648">
        <ele>914.83</ele>
        <time>2021-06-23T10:10:24Z</time>
      </trkpt>
      <trkpt lat="47.86523" lon="7.12656">
        <ele>916.12</ele>
        <time>2021-06-23T10:10:25Z</time>
      </trkpt>
      <trkpt lat="47.86484" lon="7.12676">
        <ele>922.61</ele>
        <time>2021-06-23T10:10:27Z</time>
      </trkpt>
      <trkpt lat="47.86475" lon="7.12684">
        <ele>923.98</ele>
        <time>2021-06-23T10:10:28Z</time>
      </trkpt>
      <trkpt lat="47.86423" lon="7.12769">
        <ele>930.74</ele>
        <time>2021-06-23T10:10:29Z</time>
      </trkpt>
      <trkpt lat="47.8642" lon="7.12783">
        <ele>930.11</ele>
        <time>2021-06-23T10:10:31Z</time>
      </trkpt>
      <trkpt lat="47.86419" lon="7.12852">
        <ele>925.29</ele>
        <time>2021-06-23T10:10:32Z</time>
      </trkpt>
      <trkpt lat="47.86416" lon="7.12876">
        <ele>925.43</ele>
        <time>2021-06-23T10:10:34Z</time>
      </trkpt>
      <trkpt lat="47.8641" lon="7.12899">
        <ele>925.66</ele>
        <time>2021-06-23T10:10:35Z</time>
      </trkpt>
      <trkpt lat="47.86374" lon="7.13009">
        <ele>923.3</ele>
        <time>2021-06-23T10:10:36Z</time>
      </trkpt>
      <trkpt lat="47.86368" lon="7.13046">
        <ele>920.31</ele>
        <time>2021-06-23T10:10:38Z</time>
      </trkpt>
      <trkpt lat="47.86365" lon="7.13127">
        <ele>918.36</ele>
        <time>2021-06-23T10:10:39Z</time>
      </trkpt>
      <trkpt lat="47.86356" lon="7.13177">
        <ele>913.01</ele>
        <time>2021-06-23T10:10:41Z</time>
      </trkpt>
      <trkpt lat="47.86351" lon="7.13195">
        <ele>911.16</ele>
        <time>2021-06-23T10:10:42Z</time>
      </trkpt>
      <trkpt lat="47.8634" lon="7.13214">
        <ele>909.17</ele>
        <time>2021-06-23T10:10:44Z</time>
      </trkpt>
      <trkpt lat="47.86324" lon="7.1323">
        <ele>907.66</ele>
        <time>2021-06-23T10:10:45Z</time>
      </trkpt>
      <trkpt lat="47.86304" lon="7.13245">
        <ele>905.99</ele>
        <time>2021-06-23T10:10:46Z</time>
      </trkpt>
      <trkpt lat="47.86289" lon="7.1325">
        <ele>903.95</ele>
        <time>2021-06-23T10:10:48Z</time>
      </trkpt>
      <trkpt lat="47.86276" lon="7.13251">
        <ele>903.99</ele>
        <time>2021-06-23T10:10:49Z</time>
      </trkpt>
      <trkpt lat="47.86157" lon="7.13233">
        <ele>905.86</ele>
        <time>2021-06-23T10:10:51Z</time>
      </trkpt>
      <trkpt lat="47.86145" lon="7.13229">
        <ele>906.34</ele>
        <time>2021-06-23T10:10:52Z</time>
      </trkpt>
      <trkpt lat="47.8612" lon="7.13212">
        <ele>914.06</ele>
        <time>2021-06-23T10:10:53Z</time>
      </trkpt>
      <trkpt lat="47.86108" lon="7.13208">
        <ele>916.59</ele>
        <time>2021-06-23T10:10:55Z</time>
      </trkpt>
      <trkpt lat="47.86093" lon="7.13211">
        <ele>918.4</ele>
        <time>2021-06-23T10:10:56Z</time>
      </trkpt>
      <trkpt lat="47.86079" lon="7.13217">
        <ele>919.21</ele>
        <time>2021-06-23T10:10:58Z</time>
      </trkpt>
      <trkpt lat="47.86065" lon="7.13229">
        <ele>919.43</ele>
        <time>2021-06-23T10:10:59Z</time>
      </trkpt>
      <trkpt lat="47.86056" lon="7.13246">
        <ele>918.06</ele>
        <time>2021-06-23T10:11:00Z</time>
      </trkpt>
      <trkpt lat="47.86006" lon="7.13408">
        <ele>910.97</ele>
        <time>2021-06-23T10:11:02Z</time>
      </trkpt>
      <trkpt lat="47.85986" lon="7.13466">
        <ele>911.97</ele>
        <time>2021-06-23T10:11:03Z</time>
      </trkpt>
      <trkpt lat="47.8598" lon="7.13515">
        <ele>912.85</ele>
        <time>2021-06-23T10:11:05Z</time>
      </trkpt>
      <trkpt lat="47.8598" lon="7.13585">
        <ele>904.96</ele>
        <time>2021-06-23T10:11:06Z</time>
      </trkpt>
      <trkpt lat="47.85985" lon="7.13699">
        <ele>908.83</ele>
        <time>2021-06-23T10:11:07Z</time>
      </trkpt>
      <trkpt lat="47.85991" lon="7.1374">
        <ele>906.41</ele>
        <time>2021-06-23T10:11:09Z</time>
      </trkpt>
      <trkpt lat="47.85993" lon="7.13766">
        <ele>903.94</ele>
        <time>2021-06-23T10:11:10Z</time>
      </trkpt>
      <trkpt lat="47.8599" lon="7.13785">
        <ele>904.28</ele>
        <time>2021-06-23T10:11:12Z</time>
      </trkpt>
      <trkpt lat="47.85983" lon="7.13802">
        <ele>906.92</ele>
        <time>2021-06-23T10:11:13Z</time>
      </trkpt>
      <trkpt lat="47.85962" lon="7.13839">
        <ele>913.97</ele>
        <time>2021-06-23T10:11:15Z</time>
      </trkpt>
      <trkpt lat="47.85932" lon="7.13919">
        <ele>920.25</ele>
        <time>2021-06-23T10:11:16Z</time>
      </trkpt>
      <trkpt lat="47.85925" lon="7.13944">
        <ele>921.41</ele>
        <time>2021-06-23T10:11:17Z</time>
      </trkpt>
      <trkpt lat="47.8592" lon="7.13979">
        <ele>921.74</ele>
        <time>2021-06-23T10:11:19Z</time>
      </trkpt>
      <trkpt lat="47.8592" lon="7.14059">
        <ele>916.34</ele>
        <time>2021-06-23T10:11:20Z</time>
      </trkpt>
      <trkpt lat="47.85924" lon="7.1412">
        <ele>919.53</ele>
        <time>2021-06-23T10:11:22Z</time>
      </trkpt>
      <trkpt lat="47.85952" lon="7.14267">
        <ele>906.54</ele>
        <time>2021-06-23T10:11:23Z</time>
      </trkpt>
      <trkpt lat="47.85972" lon="7.14399">
        <ele>902.23</ele>
        <time>2021-06-23T10:11:24Z</time>
      </trkpt>
      <trkpt lat="47.85972" lon="7.1442">
        <ele>900.82</ele>
        <time>2021-06-23T10:11:26Z</time>
      </trkpt>
      <trkpt lat="47.8597" lon="7.14445">
        <ele>902.06</ele>
        <time>2021-06-23T10:11:27Z</time>
      </trkpt>
      <trkpt lat="47.85963" lon="7.14476">
        <ele>906.86</ele>
        <time>2021-06-23T10:11:29Z</time>
      </trkpt>
      <trkpt lat="47.85904" lon="7.14628">
        <ele>917.43</ele>
        <time>2021-06-23T10:11:30Z</time>
      </trkpt>
      <trkpt lat="47.85897" lon="7.14655">
        <ele>915.93</ele>
        <time>2021-06-23T10:11:31Z</time>
      </trkpt>
      <trkpt lat="47.85888" lon="7.14762">
        <ele>909.91</ele>
        <time>2021-06-23T10:11:33Z</time>
      </trkpt>
      <trkpt lat="47.85881" lon="7.14804">
        <ele>907.34</ele>
        <time>2021-06-23T10:11:34Z</time>
      </trkpt>
      <trkpt lat="47.85876" lon="7.14823">
        <ele>906.39</ele>
        <time>2021-06-23T10:11:36Z</time>
      </trkpt>
      <trkpt lat="47.85868" lon="7.14842">
        <ele>905.52</ele>
        <time>2021-06-23T10:11:37Z</time>
      </trkpt>
      <trkpt lat="47.85859" lon="7.14855">
        <ele>904.78</ele>
        <time>2021-06-23T10:11:39Z</time>
      </trkpt>
      <trkpt lat="47.85851" lon="7.14863">
        <ele>904.52</ele>
        <time>2021-06-23T10:11:40Z</time>
      </trkpt>
      <trkpt lat="47.85823" lon="7.14874">
        <ele>903.9</ele>
        <time>2021-06-23T10:11:41Z</time>
      </trkpt>
      <trkpt lat="47.85811" lon="7.14874">
        <ele>903.69</ele>
        <time>2021-06-23T10:11:43Z</time>
      </trkpt>
      <trkpt lat="47.858" lon="7.14869">
        <ele>903.19</ele>
        <time>2021-06-23T10:11:44Z</time>
      </trkpt>
      <trkpt lat="47.85795" lon="7.14864">
        <ele>902.51</ele>
        <time>2021-06-23T10:11:46Z</time>
      </trkpt>
      <trkpt lat="47.85795" lon="7.14864">
        <ele>902.51</ele>
        <time>2021-06-23T10:11:46Z</time>
      </trkpt>
      <trkpt lat="47.85734" lon="7.14807">
        <ele>899.47</ele>
        <time>2021-06-23T10:11:48Z</time>
      </trkpt>
      <trkpt lat="47.8565" lon="7.14741">
        <ele>890.76</ele>
        <time>2021-06-23T10:11:50Z</time>
      </trkpt>
      <trkpt lat="47.85635" lon="7.14725">
        <ele>889.83</ele>
        <time>2021-06-23T10:11:51Z</time>
      </trkpt>
      <trkpt lat="47.85625" lon="7.1471">
        <ele>888.95</ele>
        <time>2021-06-23T10:11:53Z</time>
      </trkpt>
      <trkpt lat="47.85563" lon="7.14594">
        <ele>875.8</ele>
        <time>2021-06-23T10:11:55Z</time>
      </trkpt>
      <trkpt lat="47.85521" lon="7.14505">
        <ele>877.6</ele>
        <time>2021-06-23T10:11:57Z</time>
      </trkpt>
      <trkpt lat="47.8546" lon="7.14363">
        <ele>863.8</ele>
        <time>2021-06-23T10:11:59Z</time>
      </trkpt>
      <trkpt lat="47.85445" lon="7.14324">
        <ele>863.9</ele>
        <time>2021-06-23T10:12:01Z</time>
      </trkpt>
      <trkpt lat="47.85439" lon="7.14312">
        <ele>864.1</ele>
        <time>2021-06-23T10:12:03Z</time>
      </trkpt>
      <trkpt lat="47.85431" lon="7.14307">
        <ele>863.97</ele>
        <time>2021-06-23T10:12:05Z</time>
      </trkpt>
      <trkpt lat="47.85422" lon="7.14304">
        <ele>863.62</ele>
        <time>2021-06-23T10:12:07Z</time>
      </trkpt>
      <trkpt lat="47.85413" lon="7.14305">
        <ele>863.37</ele>
        <time>2021-06-23T10:12:09Z</time>
      </trkpt>
      <trkpt lat="47.85406" lon="7.14308">
        <ele>863.4</ele>
        <time>2021-06-23T10:12:11Z</time>
      </trkpt>
      <trkpt lat="47.8538" lon="7.14345">
        <ele>858.3</ele>
        <time>2021-06-23T10:12:13Z</time>
      </trkpt>
      <trkpt lat="47.8538" lon="7.14345">
        <ele>858.3</ele>
        <time>2021-06-23T10:12:13Z</time>
      </trkpt>
      <trkpt lat="47.85316" lon="7.14438">
        <ele>854.43</ele>
        <time>2021-06-23T10:12:16Z</time>
      </trkpt>
      <trkpt lat="47.85299" lon="7.14467">
        <ele>850.89</ele>
        <time>2021-06-23T10:12:20Z</time>
      </trkpt>
      <trkpt lat="47.85258" lon="7.14543">
        <ele>846.48</ele>
        <time>2021-06-23T10:12:23Z</time>
      </trkpt>
      <trkpt lat="47.85224" lon="7.14586">
        <ele>849.14</ele>
        <time>2021-06-23T10:12:26Z</time>
      </trkpt>
      <trkpt lat="47.85094" lon="7.14726">
        <ele>843.53</ele>
        <time>2021-06-23T10:12:29Z</time>
      </trkpt>
      <trkpt lat="47.85039" lon="7.14766">
        <ele>833.91</ele>
        <time>2021-06-23T10:12:33Z</time>
      </trkpt>
      <trkpt lat="47.84993" lon="7.14794">
        <ele>831.33</ele>
        <time>2021-06-23T10:12:36Z</time>
      </trkpt>
      <trkpt lat="47.84993" lon="7.14794">
        <ele>831.33</ele>
        <time>2021-06-23T10:12:36Z</time>
      </trkpt>
      <trkpt lat="47.84976" lon="7.14804">
        <ele>828.74</ele>
        <time>2021-06-23T10:12:37Z</time>
      </trkpt>
      <trkpt lat="47.84967" lon="7.14808">
        <ele>827.64</ele>
        <time>2021-06-23T10:12:39Z</time>
      </trkpt>
      <trkpt lat="47.8496" lon="7.14809">
        <ele>826.65</ele>
        <time>2021-06-23T10:12:40Z</time>
      </trkpt>
      <trkpt lat="47.84948" lon="7.14803">
        <ele>825.93</ele>
        <time>2021-06-23T10:12:41Z</time>
      </trkpt>
      <trkpt lat="47.84942" lon="7.14796">
        <ele>826.24</ele>
        <time>2021-06-23T10:12:42Z</time>
      </trkpt>
      <trkpt lat="47.84937" lon="7.14783">
        <ele>826.92</ele>
        <time>2021-06-23T10:12:44Z</time>
      </trkpt>
      <trkpt lat="47.84918" lon="7.14694">
        <ele>831.79</ele>
        <time>2021-06-23T10:12:45Z</time>
      </trkpt>
      <trkpt lat="47.84908" lon="7.14669">
        <ele>835.25</ele>
        <time>2021-06-23T10:12:46Z</time>
      </trkpt>
      <trkpt lat="47.84898" lon="7.14654">
        <ele>835.85</ele>
        <time>2021-06-23T10:12:47Z</time>
      </trkpt>
      <trkpt lat="47.84763" lon="7.14496">
        <ele>831.86</ele>
        <time>2021-06-23T10:12:49Z</time>
      </trkpt>
      <trkpt lat="47.84699" lon="7.14398">
        <ele>837.3</ele>
        <time>2021-06-23T10:12:50Z</time>
      </trkpt>
      <trkpt lat="47.84692" lon="7.14381">
        <ele>839.27</ele>
        <time>2021-06-23T10:12:51Z</time>
      </trkpt>
      <trkpt lat="47.84685" lon="7.14352">
        <ele>844.19</ele>
        <time>2021-06-23T10:12:53Z</time>
      </trkpt>
      <trkpt lat="47.84678" lon="7.14331">
        <ele>847.44</ele>
        <time>2021-06-23T10:12:54Z</time>
      </trkpt>
      <trkpt lat="47.84671" lon="7.14321">
        <ele>847.59</ele>
        <time>2021-06-23T10:12:55Z</time>
      </trkpt>
      <trkpt lat="47.84661" lon="7.14316">
        <ele>847.04</ele>
        <time>2021-06-23T10:12:56Z</time>
      </trkpt>
      <trkpt lat="47.84649" lon="7.14317">
        <ele>845.41</ele>
        <time>2021-06-23T10:12:58Z</time>
      </trkpt>
      <trkpt lat="47.84611" lon="7.14336">
        <ele>838.7</ele>
        <time>2021-06-23T10:12:59Z</time>
      </trkpt>
      <trkpt lat="47.84601" lon="7.14337">
        <ele>838.63</ele>
        <time>2021-06-23T10:13:00Z</time>
      </trkpt>
      <trkpt lat="47.84569" lon="7.14329">
        <ele>839.28</ele>
        <time>2021-06-23T10:13:01Z</time>
      </trkpt>
      <trkpt lat="47.84561" lon="7.14331">
        <ele>839.07</ele>
        <time>2021-06-23T10:13:03Z</time>
      </trkpt>
      <trkpt lat="47.84554" lon="7.14337">
        <ele>838.99</ele>
        <time>2021-06-23T10:13:04Z</time>
      </trkpt>
      <trkpt lat="47.84548" lon="7.14321">
        <ele>839.55</ele>
        <time>2021-06-23T10:13:06Z</time>
      </trkpt>
      <trkpt lat="47.8455" lon="7.14316">
        <ele>839.35</ele>
        <time>2021-06-23T10:13:08Z</time>
      </trkpt>
      <trkpt lat="47.84555" lon="7.14308">
        <ele>839.02</ele>
        <time>2021-06-23T10:13:09Z</time>
      </trkpt>
      <trkpt lat="47.84598" lon="7.143">
        <ele>844.64</ele>
        <time>2021-06-23T10:13:11Z</time>
      </trkpt>
      <trkpt lat="47.84607" lon="7.14295">
        <ele>849.29</ele>
        <time>2021-06-23T10:13:13Z</time>
      </trkpt>
      <trkpt lat="47.84607" lon="7.14295">
        <ele>849.29</ele>
        <time>2021-06-23T10:13:13Z</time>
      </trkpt>
      <trkpt lat="47.84598" lon="7.143">
        <ele>844.64</ele>
        <time>2021-06-23T10:13:15Z</time>
      </trkpt>
      <trkpt lat="47.84555" lon="7.14308">
        <ele>839.02</ele>
        <time>2021-06-23T10:13:16Z</time>
      </trkpt>
      <trkpt lat="47.8455" lon="7.14316">
        <ele>839.35</ele>
        <time>2021-06-23T10:13:18Z</time>
      </trkpt>
      <trkpt lat="47.84548" lon="7.14321">
        <ele>839.55</ele>
        <time>2021-06-23T10:13:20Z</time>
      </trkpt>
      <trkpt lat="47.84554" lon="7.14337">
        <ele>838.99</ele>
        <time>2021-06-23T10:13:22Z</time>
      </trkpt>
      <trkpt lat="47.84547" lon="7.14345">
        <ele>839.44</ele>
        <time>2021-06-23T10:13:23Z</time>
      </trkpt>
      <trkpt lat="47.84543" lon="7.14353">
        <ele>839.89</ele>
        <time>2021-06-23T10:13:24Z</time>
      </trkpt>
      <trkpt lat="47.84539" lon="7.14369">
        <ele>840.41</ele>
        <time>2021-06-23T10:13:25Z</time>
      </trkpt>
      <trkpt lat="47.84524" lon="7.14452">
        <ele>839.45</ele>
        <time>2021-06-23T10:13:26Z</time>
      </trkpt>
      <trkpt lat="47.84518" lon="7.14473">
        <ele>839.99</ele>
        <time>2021-06-23T10:13:27Z</time>
      </trkpt>
      <trkpt lat="47.84488" lon="7.14553">
        <ele>845.35</ele>
        <time>2021-06-23T10:13:28Z</time>
      </trkpt>
      <trkpt lat="47.84477" lon="7.14569">
        <ele>846.09</ele>
        <time>2021-06-23T10:13:29Z</time>
      </trkpt>
      <trkpt lat="47.84467" lon="7.14576">
        <ele>846.94</ele>
        <time>2021-06-23T10:13:30Z</time>
      </trkpt>
      <trkpt lat="47.84457" lon="7.14579">
        <ele>848.02</ele>
        <time>2021-06-23T10:13:30Z</time>
      </trkpt>
      <trkpt lat="47.84377" lon="7.1458">
        <ele>854.19</ele>
        <time>2021-06-23T10:13:31Z</time>
      </trkpt>
      <trkpt lat="47.8436" lon="7.14583">
        <ele>851.83</ele>
        <time>2021-06-23T10:13:32Z</time>
      </trkpt>
      <trkpt lat="47.8434" lon="7.14592">
        <ele>848.95</ele>
        <time>2021-06-23T10:13:33Z</time>
      </trkpt>
      <trkpt lat="47.84334" lon="7.14593">
        <ele>848.35</ele>
        <time>2021-06-23T10:13:34Z</time>
      </trkpt>
      <trkpt lat="47.84324" lon="7.14591">
        <ele>847.47</ele>
        <time>2021-06-23T10:13:35Z</time>
      </trkpt>
      <trkpt lat="47.84317" lon="7.14587">
        <ele>846.95</ele>
        <time>2021-06-23T10:13:36Z</time>
      </trkpt>
      <trkpt lat="47.8431" lon="7.14579">
        <ele>846.56</ele>
        <time>2021-06-23T10:13:37Z</time>
      </trkpt>
      <trkpt lat="47.84306" lon="7.14566">
        <ele>846.02</ele>
        <time>2021-06-23T10:13:38Z</time>
      </trkpt>
      <trkpt lat="47.84306" lon="7.14566">
        <ele>846.02</ele>
        <time>2021-06-23T10:13:38Z</time>
      </trkpt>
      <trkpt lat="47.84304" lon="7.14561">
        <ele>845.48</ele>
        <time>2021-06-23T10:13:39Z</time>
      </trkpt>
      <trkpt lat="47.84304" lon="7.14549">
        <ele>845.34</ele>
        <time>2021-06-23T10:13:40Z</time>
      </trkpt>
      <trkpt lat="47.84306" lon="7.14537">
        <ele>846.13</ele>
        <time>2021-06-23T10:13:42Z</time>
      </trkpt>
      <trkpt lat="47.84355" lon="7.14397">
        <ele>839.71</ele>
        <time>2021-06-23T10:13:43Z</time>
      </trkpt>
      <trkpt lat="47.84369" lon="7.1434">
        <ele>834.9</ele>
        <time>2021-06-23T10:13:44Z</time>
      </trkpt>
      <trkpt lat="47.84378" lon="7.14316">
        <ele>832.35</ele>
        <time>2021-06-23T10:13:45Z</time>
      </trkpt>
      <trkpt lat="47.84387" lon="7.143">
        <ele>831.25</ele>
        <time>2021-06-23T10:13:46Z</time>
      </trkpt>
      <trkpt lat="47.84402" lon="7.14277">
        <ele>828.49</ele>
        <time>2021-06-23T10:13:47Z</time>
      </trkpt>
      <trkpt lat="47.84416" lon="7.14264">
        <ele>829.33</ele>
        <time>2021-06-23T10:13:48Z</time>
      </trkpt>
      <trkpt lat="47.84444" lon="7.14248">
        <ele>828.56</ele>
        <time>2021-06-23T10:13:49Z</time>
      </trkpt>
      <trkpt lat="47.84493" lon="7.14229">
        <ele>827.72</ele>
        <time>2021-06-23T10:13:50Z</time>
      </trkpt>
      <trkpt lat="47.84504" lon="7.14222">
        <ele>827.71</ele>
        <time>2021-06-23T10:13:51Z</time>
      </trkpt>
      <trkpt lat="47.84521" lon="7.14204">
        <ele>828.41</ele>
        <time>2021-06-23T10:13:52Z</time>
      </trkpt>
      <trkpt lat="47.84526" lon="7.14194">
        <ele>828.49</ele>
        <time>2021-06-23T10:13:54Z</time>
      </trkpt>
      <trkpt lat="47.84538" lon="7.14158">
        <ele>825.54</ele>
        <time>2021-06-23T10:13:55Z</time>
      </trkpt>
      <trkpt lat="47.84541" lon="7.1414">
        <ele>822.16</ele>
        <time>2021-06-23T10:13:56Z</time>
      </trkpt>
      <trkpt lat="47.84555" lon="7.14007">
        <ele>811.68</ele>
        <time>2021-06-23T10:13:57Z</time>
      </trkpt>
      <trkpt lat="47.84566" lon="7.1397">
        <ele>813.28</ele>
        <time>2021-06-23T10:13:58Z</time>
      </trkpt>
      <trkpt lat="47.84566" lon="7.13962">
        <ele>812.37</ele>
        <time>2021-06-23T10:13:59Z</time>
      </trkpt>
      <trkpt lat="47.84564" lon="7.13954">
        <ele>810.84</ele>
        <time>2021-06-23T10:14:00Z</time>
      </trkpt>
      <trkpt lat="47.8456" lon="7.13949">
        <ele>809.02</ele>
        <time>2021-06-23T10:14:01Z</time>
      </trkpt>
      <trkpt lat="47.84556" lon="7.13946">
        <ele>807.11</ele>
        <time>2021-06-23T10:14:02Z</time>
      </trkpt>
      <trkpt lat="47.84546" lon="7.13953">
        <ele>803.33</ele>
        <time>2021-06-23T10:14:03Z</time>
      </trkpt>
      <trkpt lat="47.8454" lon="7.13978">
        <ele>803.47</ele>
        <time>2021-06-23T10:14:04Z</time>
      </trkpt>
      <trkpt lat="47.8454" lon="7.13978">
        <ele>803.47</ele>
        <time>2021-06-23T10:14:04Z</time>
      </trkpt>
      <trkpt lat="47.84531" lon="7.14026">
        <ele>804.03</ele>
        <time>2021-06-23T10:14:06Z</time>
      </trkpt>
      <trkpt lat="47.84522" lon="7.14063">
        <ele>803.82</ele>
        <time>2021-06-23T10:14:07Z</time>
      </trkpt>
      <trkpt lat="47.84511" lon="7.14091">
        <ele>803.99</ele>
        <time>2021-06-23T10:14:08Z</time>
      </trkpt>
      <trkpt lat="47.845" lon="7.14106">
        <ele>802.52</ele>
        <time>2021-06-23T10:14:09Z</time>
      </trkpt>
      <trkpt lat="47.84489" lon="7.14113">
        <ele>801.31</ele>
        <time>2021-06-23T10:14:10Z</time>
      </trkpt>
      <trkpt lat="47.84449" lon="7.14112">
        <ele>795.63</ele>
        <time>2021-06-23T10:14:11Z</time>
      </trkpt>
      <trkpt lat="47.84421" lon="7.14114">
        <ele>793.89</ele>
        <time>2021-06-23T10:14:12Z</time>
      </trkpt>
      <trkpt lat="47.84364" lon="7.14123">
        <ele>781.58</ele>
        <time>2021-06-23T10:14:13Z</time>
      </trkpt>
      <trkpt lat="47.84344" lon="7.14129">
        <ele>777.84</ele>
        <time>2021-06-23T10:14:14Z</time>
      </trkpt>
      <trkpt lat="47.84322" lon="7.14146">
        <ele>775.68</ele>
        <time>2021-06-23T10:14:15Z</time>
      </trkpt>
      <trkpt lat="47.84229" lon="7.14269">
        <ele>767.83</ele>
        <time>2021-06-23T10:14:16Z</time>
      </trkpt>
      <trkpt lat="47.84172" lon="7.14324">
        <ele>761.48</ele>
        <time>2021-06-23T10:14:17Z</time>
      </trkpt>
      <trkpt lat="47.84131" lon="7.14354">
        <ele>753.62</ele>
        <time>2021-06-23T10:14:18Z</time>
      </trkpt>
      <trkpt lat="47.84112" lon="7.14374">
        <ele>754.4</ele>
        <time>2021-06-23T10:14:19Z</time>
      </trkpt>
      <trkpt lat="47.84091" lon="7.14401">
        <ele>752.44</ele>
        <time>2021-06-23T10:14:20Z</time>
      </trkpt>
      <trkpt lat="47.84078" lon="7.14424">
        <ele>751.06</ele>
        <time>2021-06-23T10:14:21Z</time>
      </trkpt>
      <trkpt lat="47.84069" lon="7.14446">
        <ele>748.78</ele>
        <time>2021-06-23T10:14:22Z</time>
      </trkpt>
      <trkpt lat="47.84068" lon="7.14472">
        <ele>748.55</ele>
        <time>2021-06-23T10:14:24Z</time>
      </trkpt>
      <trkpt lat="47.84071" lon="7.14482">
        <ele>748.12</ele>
        <time>2021-06-23T10:14:25Z</time>
      </trkpt>
      <trkpt lat="47.84076" lon="7.14491">
        <ele>748.68</ele>
        <time>2021-06-23T10:14:26Z</time>
      </trkpt>
      <trkpt lat="47.84105" lon="7.14508">
        <ele>757.2</ele>
        <time>2021-06-23T10:14:27Z</time>
      </trkpt>
      <trkpt lat="47.84114" lon="7.1452">
        <ele>758.68</ele>
        <time>2021-06-23T10:14:28Z</time>
      </trkpt>
      <trkpt lat="47.8412" lon="7.14534">
        <ele>758.42</ele>
        <time>2021-06-23T10:14:29Z</time>
      </trkpt>
      <trkpt lat="47.84123" lon="7.14552">
        <ele>755.76</ele>
        <time>2021-06-23T10:14:30Z</time>
      </trkpt>
      <trkpt lat="47.84129" lon="7.14632">
        <ele>745.12</ele>
        <time>2021-06-23T10:14:31Z</time>
      </trkpt>
      <trkpt lat="47.8413" lon="7.14663">
        <ele>743.28</ele>
        <time>2021-06-23T10:14:32Z</time>
      </trkpt>
      <trkpt lat="47.84127" lon="7.14681">
        <ele>742.9</ele>
        <time>2021-06-23T10:14:33Z</time>
      </trkpt>
      <trkpt lat="47.84087" lon="7.14782">
        <ele>730.28</ele>
        <time>2021-06-23T10:14:34Z</time>
      </trkpt>
      <trkpt lat="47.84068" lon="7.14841">
        <ele>726.33</ele>
        <time>2021-06-23T10:14:35Z</time>
      </trkpt>
      <trkpt lat="47.8405" lon="7.14909">
        <ele>726.48</ele>
        <time>2021-06-23T10:14:36Z</time>
      </trkpt>
      <trkpt lat="47.84022" lon="7.15028">
        <ele>714.41</ele>
        <time>2021-06-23T10:14:37Z</time>
      </trkpt>
      <trkpt lat="47.84021" lon="7.15044">
        <ele>713.23</ele>
        <time>2021-06-23T10:14:38Z</time>
      </trkpt>
      <trkpt lat="47.84023" lon="7.15057">
        <ele>713.39</ele>
        <time>2021-06-23T10:14:39Z</time>
      </trkpt>
      <trkpt lat="47.84035" lon="7.15079">
        <ele>714.95</ele>
        <time>2021-06-23T10:14:40Z</time>
      </trkpt>
      <trkpt lat="47.84044" lon="7.15086">
        <ele>715.79</ele>
        <time>2021-06-23T10:14:42Z</time>
      </trkpt>
      <trkpt lat="47.84077" lon="7.15096">
        <ele>721.7</ele>
        <time>2021-06-23T10:14:43Z</time>
      </trkpt>
      <trkpt lat="47.84085" lon="7.151">
        <ele>722.44</ele>
        <time>2021-06-23T10:14:44Z</time>
      </trkpt>
      <trkpt lat="47.84091" lon="7.15108">
        <ele>722.09</ele>
        <time>2021-06-23T10:14:45Z</time>
      </trkpt>
      <trkpt lat="47.84097" lon="7.15121">
        <ele>720.04</ele>
        <time>2021-06-23T10:14:46Z</time>
      </trkpt>
      <trkpt lat="47.84104" lon="7.15151">
        <ele>714.16</ele>
        <time>2021-06-23T10:14:47Z</time>
      </trkpt>
      <trkpt lat="47.84108" lon="7.15184">
        <ele>709.62</ele>
        <time>2021-06-23T10:14:48Z</time>
      </trkpt>
      <trkpt lat="47.84115" lon="7.15304">
        <ele>693.61</ele>
        <time>2021-06-23T10:14:49Z</time>
      </trkpt>
      <trkpt lat="47.84123" lon="7.15334">
        <ele>692.93</ele>
        <time>2021-06-23T10:14:50Z</time>
      </trkpt>
      <trkpt lat="47.84132" lon="7.15359">
        <ele>692.14</ele>
        <time>2021-06-23T10:14:51Z</time>
      </trkpt>
      <trkpt lat="47.84133" lon="7.15372">
        <ele>689.95</ele>
        <time>2021-06-23T10:14:52Z</time>
      </trkpt>
      <trkpt lat="47.84132" lon="7.15379">
        <ele>688.05</ele>
        <time>2021-06-23T10:14:53Z</time>
      </trkpt>
      <trkpt lat="47.84129" lon="7.15385">
        <ele>685.98</ele>
        <time>2021-06-23T10:14:54Z</time>
      </trkpt>
      <trkpt lat="47.8412" lon="7.15388">
        <ele>682.79</ele>
        <time>2021-06-23T10:14:55Z</time>
      </trkpt>
      <trkpt lat="47.84113" lon="7.15382">
        <ele>681.75</ele>
        <time>2021-06-23T10:14:56Z</time>
      </trkpt>
      <trkpt lat="47.84109" lon="7.15373">
        <ele>682.39</ele>
        <time>2021-06-23T10:14:57Z</time>
      </trkpt>
      <trkpt lat="47.84105" lon="7.15339">
        <ele>686.28</ele>
        <time>2021-06-23T10:14:58Z</time>
      </trkpt>
      <trkpt lat="47.84088" lon="7.1527">
        <ele>687.46</ele>
        <time>2021-06-23T10:15:00Z</time>
      </trkpt>
      <trkpt lat="47.84085" lon="7.1525">
        <ele>688.56</ele>
        <time>2021-06-23T10:15:01Z</time>
      </trkpt>
      <trkpt lat="47.84083" lon="7.15225">
        <ele>692.46</ele>
        <time>2021-06-23T10:15:02Z</time>
      </trkpt>
      <trkpt lat="47.8408" lon="7.15215">
        <ele>693.87</ele>
        <time>2021-06-23T10:15:03Z</time>
      </trkpt>
      <trkpt lat="47.84074" lon="7.15209">
        <ele>693.95</ele>
        <time>2021-06-23T10:15:04Z</time>
      </trkpt>
      <trkpt lat="47.84069" lon="7.15207">
        <ele>693.04</ele>
        <time>2021-06-23T10:15:05Z</time>
      </trkpt>
      <trkpt lat="47.84065" lon="7.15208">
        <ele>691.52</ele>
        <time>2021-06-23T10:15:06Z</time>
      </trkpt>
      <trkpt lat="47.84062" lon="7.15212">
        <ele>689.64</ele>
        <time>2021-06-23T10:15:07Z</time>
      </trkpt>
      <trkpt lat="47.84059" lon="7.15221">
        <ele>686.27</ele>
        <time>2021-06-23T10:15:08Z</time>
      </trkpt>
      <trkpt lat="47.84059" lon="7.15232">
        <ele>683.55</ele>
        <time>2021-06-23T10:15:09Z</time>
      </trkpt>
      <trkpt lat="47.84072" lon="7.15284">
        <ele>680.54</ele>
        <time>2021-06-23T10:15:10Z</time>
      </trkpt>
      <trkpt lat="47.84074" lon="7.15302">
        <ele>680.26</ele>
        <time>2021-06-23T10:15:11Z</time>
      </trkpt>
      <trkpt lat="47.84076" lon="7.15369">
        <ele>673.08</ele>
        <time>2021-06-23T10:15:12Z</time>
      </trkpt>
      <trkpt lat="47.84081" lon="7.15398">
        <ele>671.36</ele>
        <time>2021-06-23T10:15:13Z</time>
      </trkpt>
      <trkpt lat="47.84092" lon="7.15426">
        <ele>670.41</ele>
        <time>2021-06-23T10:15:14Z</time>
      </trkpt>
      <trkpt lat="47.84101" lon="7.1544">
        <ele>669.35</ele>
        <time>2021-06-23T10:15:15Z</time>
      </trkpt>
      <trkpt lat="47.84133" lon="7.15469">
        <ele>670.61</ele>
        <time>2021-06-23T10:15:16Z</time>
      </trkpt>
      <trkpt lat="47.84137" lon="7.15476">
        <ele>669.99</ele>
        <time>2021-06-23T10:15:18Z</time>
      </trkpt>
      <trkpt lat="47.84137" lon="7.15486">
        <ele>668.17</ele>
        <time>2021-06-23T10:15:19Z</time>
      </trkpt>
      <trkpt lat="47.84134" lon="7.15494">
        <ele>666.37</ele>
        <time>2021-06-23T10:15:20Z</time>
      </trkpt>
      <trkpt lat="47.8413" lon="7.15497">
        <ele>665.15</ele>
        <time>2021-06-23T10:15:21Z</time>
      </trkpt>
      <trkpt lat="47.84124" lon="7.15497">
        <ele>664.29</ele>
        <time>2021-06-23T10:15:22Z</time>
      </trkpt>
      <trkpt lat="47.84118" lon="7.15493">
        <ele>663.87</ele>
        <time>2021-06-23T10:15:23Z</time>
      </trkpt>
      <trkpt lat="47.84069" lon="7.15425">
        <ele>666.65</ele>
        <time>2021-06-23T10:15:24Z</time>
      </trkpt>
      <trkpt lat="47.84035" lon="7.1539">
        <ele>660.6</ele>
        <time>2021-06-23T10:15:25Z</time>
      </trkpt>
      <trkpt lat="47.84023" lon="7.15364">
        <ele>660.09</ele>
        <time>2021-06-23T10:15:26Z</time>
      </trkpt>
      <trkpt lat="47.8401" lon="7.15315">
        <ele>660.57</ele>
        <time>2021-06-23T10:15:27Z</time>
      </trkpt>
      <trkpt lat="47.84004" lon="7.15302">
        <ele>660.23</ele>
        <time>2021-06-23T10:15:28Z</time>
      </trkpt>
      <trkpt lat="47.83996" lon="7.15295">
        <ele>659.2</ele>
        <time>2021-06-23T10:15:29Z</time>
      </trkpt>
      <trkpt lat="47.83986" lon="7.15293">
        <ele>658.15</ele>
        <time>2021-06-23T10:15:30Z</time>
      </trkpt>
      <trkpt lat="47.83971" lon="7.15296">
        <ele>655.5</ele>
        <time>2021-06-23T10:15:31Z</time>
      </trkpt>
      <trkpt lat="47.83934" lon="7.15323">
        <ele>643.2</ele>
        <time>2021-06-23T10:15:32Z</time>
      </trkpt>
      <trkpt lat="47.83923" lon="7.15326">
        <ele>640.6</ele>
        <time>2021-06-23T10:15:33Z</time>
      </trkpt>
      <trkpt lat="47.83914" lon="7.15323">
        <ele>639.37</ele>
        <time>2021-06-23T10:15:34Z</time>
      </trkpt>
      <trkpt lat="47.83901" lon="7.15315">
        <ele>638.57</ele>
        <time>2021-06-23T10:15:35Z</time>
      </trkpt>
      <trkpt lat="47.83852" lon="7.15276">
        <ele>635.62</ele>
        <time>2021-06-23T10:15:37Z</time>
      </trkpt>
      <trkpt lat="47.83819" lon="7.15234">
        <ele>630.74</ele>
        <time>2021-06-23T10:15:38Z</time>
      </trkpt>
      <trkpt lat="47.83802" lon="7.152">
        <ele>625.59</ele>
        <time>2021-06-23T10:15:39Z</time>
      </trkpt>
      <trkpt lat="47.83799" lon="7.15188">
        <ele>625.35</ele>
        <time>2021-06-23T10:15:40Z</time>
      </trkpt>
      <trkpt lat="47.83798" lon="7.15173">
        <ele>626.22</ele>
        <time>2021-06-23T10:15:41Z</time>
      </trkpt>
      <trkpt lat="47.83798" lon="7.15158">
        <ele>627.32</ele>
        <time>2021-06-23T10:15:42Z</time>
      </trkpt>
      <trkpt lat="47.83805" lon="7.15123">
        <ele>628.47</ele>
        <time>2021-06-23T10:15:43Z</time>
      </trkpt>
      <trkpt lat="47.83805" lon="7.15111">
        <ele>626.83</ele>
        <time>2021-06-23T10:15:44Z</time>
      </trkpt>
      <trkpt lat="47.838" lon="7.15097">
        <ele>624.22</ele>
        <time>2021-06-23T10:15:45Z</time>
      </trkpt>
      <trkpt lat="47.83797" lon="7.15094">
        <ele>622.91</ele>
        <time>2021-06-23T10:15:46Z</time>
      </trkpt>
      <trkpt lat="47.8379" lon="7.15093">
        <ele>620.7</ele>
        <time>2021-06-23T10:15:47Z</time>
      </trkpt>
      <trkpt lat="47.83786" lon="7.15096">
        <ele>619.58</ele>
        <time>2021-06-23T10:15:48Z</time>
      </trkpt>
      <trkpt lat="47.83782" lon="7.15103">
        <ele>618.84</ele>
        <time>2021-06-23T10:15:49Z</time>
      </trkpt>
      <trkpt lat="47.83781" lon="7.15112">
        <ele>618.99</ele>
        <time>2021-06-23T10:15:50Z</time>
      </trkpt>
      <trkpt lat="47.83779" lon="7.15222">
        <ele>616.28</ele>
        <time>2021-06-23T10:15:51Z</time>
      </trkpt>
      <trkpt lat="47.83781" lon="7.15253">
        <ele>616.84</ele>
        <time>2021-06-23T10:15:52Z</time>
      </trkpt>
      <trkpt lat="47.83786" lon="7.15294">
        <ele>616.37</ele>
        <time>2021-06-23T10:15:53Z</time>
      </trkpt>
      <trkpt lat="47.83797" lon="7.15336">
        <ele>613.78</ele>
        <time>2021-06-23T10:15:55Z</time>
      </trkpt>
      <trkpt lat="47.83838" lon="7.15447">
        <ele>606.15</ele>
        <time>2021-06-23T10:15:56Z</time>
      </trkpt>
      <trkpt lat="47.83843" lon="7.1548">
        <ele>604.12</ele>
        <time>2021-06-23T10:15:57Z</time>
      </trkpt>
      <trkpt lat="47.83841" lon="7.15512">
        <ele>601.61</ele>
        <time>2021-06-23T10:15:58Z</time>
      </trkpt>
      <trkpt lat="47.83837" lon="7.15556">
        <ele>596.96</ele>
        <time>2021-06-23T10:15:59Z</time>
      </trkpt>
      <trkpt lat="47.83836" lon="7.15592">
        <ele>593.43</ele>
        <time>2021-06-23T10:16:00Z</time>
      </trkpt>
      <trkpt lat="47.83838" lon="7.15613">
        <ele>590.81</ele>
        <time>2021-06-23T10:16:01Z</time>
      </trkpt>
      <trkpt lat="47.83841" lon="7.15629">
        <ele>589.57</ele>
        <time>2021-06-23T10:16:02Z</time>
      </trkpt>
      <trkpt lat="47.83849" lon="7.15653">
        <ele>588.12</ele>
        <time>2021-06-23T10:16:03Z</time>
      </trkpt>
      <trkpt lat="47.83858" lon="7.15669">
        <ele>588.13</ele>
        <time>2021-06-23T10:16:04Z</time>
      </trkpt>
      <trkpt lat="47.83877" lon="7.15694">
        <ele>591.73</ele>
        <time>2021-06-23T10:16:05Z</time>
      </trkpt>
      <trkpt lat="47.83881" lon="7.15703">
        <ele>591.77</ele>
        <time>2021-06-23T10:16:06Z</time>
      </trkpt>
      <trkpt lat="47.83882" lon="7.1571">
        <ele>591.13</ele>
        <time>2021-06-23T10:16:07Z</time>
      </trkpt>
      <trkpt lat="47.83881" lon="7.15718">
        <ele>589.45</ele>
        <time>2021-06-23T10:16:08Z</time>
      </trkpt>
      <trkpt lat="47.83878" lon="7.15724">
        <ele>586.07</ele>
        <time>2021-06-23T10:16:09Z</time>
      </trkpt>
      <trkpt lat="47.83878" lon="7.15724">
        <ele>586.07</ele>
        <time>2021-06-23T10:16:09Z</time>
      </trkpt>
      <trkpt lat="47.83868" lon="7.15726">
        <ele>584.47</ele>
        <time>2021-06-23T10:16:10Z</time>
      </trkpt>
      <trkpt lat="47.83862" lon="7.15722">
        <ele>583.27</ele>
        <time>2021-06-23T10:16:11Z</time>
      </trkpt>
      <trkpt lat="47.83831" lon="7.15676">
        <ele>581.96</ele>
        <time>2021-06-23T10:16:12Z</time>
      </trkpt>
      <trkpt lat="47.83812" lon="7.15655">
        <ele>581.25</ele>
        <time>2021-06-23T10:16:13Z</time>
      </trkpt>
      <trkpt lat="47.83801" lon="7.15647">
        <ele>580.86</ele>
        <time>2021-06-23T10:16:15Z</time>
      </trkpt>
      <trkpt lat="47.83788" lon="7.15642">
        <ele>580.38</ele>
        <time>2021-06-23T10:16:16Z</time>
      </trkpt>
      <trkpt lat="47.83774" lon="7.15642">
        <ele>579.8</ele>
        <time>2021-06-23T10:16:17Z</time>
      </trkpt>
      <trkpt lat="47.83759" lon="7.15649">
        <ele>579.64</ele>
        <time>2021-06-23T10:16:18Z</time>
      </trkpt>
      <trkpt lat="47.83749" lon="7.15658">
        <ele>579.04</ele>
        <time>2021-06-23T10:16:19Z</time>
      </trkpt>
      <trkpt lat="47.83723" lon="7.15702">
        <ele>574.73</ele>
        <time>2021-06-23T10:16:20Z</time>
      </trkpt>
      <trkpt lat="47.83715" lon="7.15709">
        <ele>574.47</ele>
        <time>2021-06-23T10:16:21Z</time>
      </trkpt>
      <trkpt lat="47.837" lon="7.1571">
        <ele>574.42</ele>
        <time>2021-06-23T10:16:22Z</time>
      </trkpt>
      <trkpt lat="47.8369" lon="7.15706">
        <ele>574.52</ele>
        <time>2021-06-23T10:16:23Z</time>
      </trkpt>
      <trkpt lat="47.83678" lon="7.15694">
        <ele>575</ele>
        <time>2021-06-23T10:16:24Z</time>
      </trkpt>
      <trkpt lat="47.83645" lon="7.15621">
        <ele>572.52</ele>
        <time>2021-06-23T10:16:25Z</time>
      </trkpt>
      <trkpt lat="47.83626" lon="7.15588">
        <ele>571.36</ele>
        <time>2021-06-23T10:16:26Z</time>
      </trkpt>
      <trkpt lat="47.83591" lon="7.15537">
        <ele>565.15</ele>
        <time>2021-06-23T10:16:27Z</time>
      </trkpt>
      <trkpt lat="47.8355" lon="7.1549">
        <ele>556.48</ele>
        <time>2021-06-23T10:16:28Z</time>
      </trkpt>
      <trkpt lat="47.83527" lon="7.15456">
        <ele>555.48</ele>
        <time>2021-06-23T10:16:29Z</time>
      </trkpt>
      <trkpt lat="47.83507" lon="7.15412">
        <ele>550.31</ele>
        <time>2021-06-23T10:16:30Z</time>
      </trkpt>
      <trkpt lat="47.835" lon="7.15385">
        <ele>547.87</ele>
        <time>2021-06-23T10:16:31Z</time>
      </trkpt>
      <trkpt lat="47.83494" lon="7.1535">
        <ele>546.57</ele>
        <time>2021-06-23T10:16:32Z</time>
      </trkpt>
      <trkpt lat="47.83488" lon="7.15339">
        <ele>546.16</ele>
        <time>2021-06-23T10:16:33Z</time>
      </trkpt>
      <trkpt lat="47.83482" lon="7.15333">
        <ele>545.71</ele>
        <time>2021-06-23T10:16:34Z</time>
      </trkpt>
      <trkpt lat="47.83476" lon="7.15333">
        <ele>545.27</ele>
        <time>2021-06-23T10:16:35Z</time>
      </trkpt>
      <trkpt lat="47.83471" lon="7.15338">
        <ele>544.83</ele>
        <time>2021-06-23T10:16:36Z</time>
      </trkpt>
      <trkpt lat="47.83455" lon="7.15393">
        <ele>544.5</ele>
        <time>2021-06-23T10:16:37Z</time>
      </trkpt>
      <trkpt lat="47.83449" lon="7.15405">
        <ele>534.02</ele>
        <time>2021-06-23T10:16:38Z</time>
      </trkpt>
      <trkpt lat="47.83449" lon="7.15405">
        <ele>534.02</ele>
        <time>2021-06-23T10:16:38Z</time>
      </trkpt>
      <trkpt lat="47.83309" lon="7.15735">
        <ele>523.54</ele>
        <time>2021-06-23T10:16:42Z</time>
      </trkpt>
      <trkpt lat="47.8329" lon="7.15772">
        <ele>521.87</ele>
        <time>2021-06-23T10:16:45Z</time>
      </trkpt>
      <trkpt lat="47.83239" lon="7.15855">
        <ele>517.29</ele>
        <time>2021-06-23T10:16:49Z</time>
      </trkpt>
      <trkpt lat="47.83139" lon="7.16001">
        <ele>511.02</ele>
        <time>2021-06-23T10:16:52Z</time>
      </trkpt>
      <trkpt lat="47.82997" lon="7.16219">
        <ele>489.73</ele>
        <time>2021-06-23T10:16:56Z</time>
      </trkpt>
      <trkpt lat="47.82955" lon="7.16296">
        <ele>479.81</ele>
        <time>2021-06-23T10:16:59Z</time>
      </trkpt>
      <trkpt lat="47.82946" lon="7.16308">
        <ele>478.25</ele>
        <time>2021-06-23T10:17:03Z</time>
      </trkpt>
      <trkpt lat="47.82938" lon="7.16312">
        <ele>477.54</ele>
        <time>2021-06-23T10:17:06Z</time>
      </trkpt>
      <trkpt lat="47.82922" lon="7.16308">
        <ele>476.36</ele>
        <time>2021-06-23T10:17:10Z</time>
      </trkpt>
      <trkpt lat="47.82913" lon="7.16297">
        <ele>475.61</ele>
        <time>2021-06-23T10:17:13Z</time>
      </trkpt>
      <trkpt lat="47.82908" lon="7.16283">
        <ele>475.43</ele>
        <time>2021-06-23T10:17:17Z</time>
      </trkpt>
      <trkpt lat="47.82908" lon="7.16283">
        <ele>475.43</ele>
        <time>2021-06-23T10:17:17Z</time>
      </trkpt>
      <trkpt lat="47.82901" lon="7.1624">
        <ele>476.05</ele>
        <time>2021-06-23T10:17:18Z</time>
      </trkpt>
      <trkpt lat="47.82894" lon="7.16209">
        <ele>475.19</ele>
        <time>2021-06-23T10:17:20Z</time>
      </trkpt>
      <trkpt lat="47.82872" lon="7.16154">
        <ele>467.96</ele>
        <time>2021-06-23T10:17:21Z</time>
      </trkpt>
      <trkpt lat="47.82868" lon="7.16137">
        <ele>465.26</ele>
        <time>2021-06-23T10:17:23Z</time>
      </trkpt>
      <trkpt lat="47.82867" lon="7.16094">
        <ele>461.14</ele>
        <time>2021-06-23T10:17:24Z</time>
      </trkpt>
      <trkpt lat="47.8288" lon="7.16021">
        <ele>460.78</ele>
        <time>2021-06-23T10:17:26Z</time>
      </trkpt>
      <trkpt lat="47.82882" lon="7.15992">
        <ele>459.75</ele>
        <time>2021-06-23T10:17:27Z</time>
      </trkpt>
      <trkpt lat="47.82883" lon="7.15914">
        <ele>453.01</ele>
        <time>2021-06-23T10:17:28Z</time>
      </trkpt>
      <trkpt lat="47.82881" lon="7.15872">
        <ele>454.58</ele>
        <time>2021-06-23T10:17:30Z</time>
      </trkpt>
      <trkpt lat="47.82879" lon="7.15858">
        <ele>456.51</ele>
        <time>2021-06-23T10:17:31Z</time>
      </trkpt>
      <trkpt lat="47.82872" lon="7.15849">
        <ele>457.63</ele>
        <time>2021-06-23T10:17:33Z</time>
      </trkpt>
      <trkpt lat="47.82863" lon="7.15844">
        <ele>457.92</ele>
        <time>2021-06-23T10:17:34Z</time>
      </trkpt>
      <trkpt lat="47.82851" lon="7.15847">
        <ele>456.2</ele>
        <time>2021-06-23T10:17:36Z</time>
      </trkpt>
      <trkpt lat="47.82827" lon="7.15856">
        <ele>452.82</ele>
        <time>2021-06-23T10:17:37Z</time>
      </trkpt>
      <trkpt lat="47.82777" lon="7.15884">
        <ele>448.24</ele>
        <time>2021-06-23T10:17:39Z</time>
      </trkpt>
      <trkpt lat="47.82636" lon="7.15999">
        <ele>433.97</ele>
        <time>2021-06-23T10:17:40Z</time>
      </trkpt>
      <trkpt lat="47.82578" lon="7.16038">
        <ele>426.1</ele>
        <time>2021-06-23T10:17:41Z</time>
      </trkpt>
      <trkpt lat="47.82566" lon="7.16037">
        <ele>424.47</ele>
        <time>2021-06-23T10:17:43Z</time>
      </trkpt>
      <trkpt lat="47.82557" lon="7.1603">
        <ele>423.17</ele>
        <time>2021-06-23T10:17:44Z</time>
      </trkpt>
      <trkpt lat="47.82551" lon="7.16016">
        <ele>421.09</ele>
        <time>2021-06-23T10:17:46Z</time>
      </trkpt>
      <trkpt lat="47.8255" lon="7.15998">
        <ele>419.86</ele>
        <time>2021-06-23T10:17:47Z</time>
      </trkpt>
      <trkpt lat="47.82559" lon="7.15917">
        <ele>415.95</ele>
        <time>2021-06-23T10:17:49Z</time>
      </trkpt>
      <trkpt lat="47.82564" lon="7.15852">
        <ele>414.75</ele>
        <time>2021-06-23T10:17:50Z</time>
      </trkpt>
      <trkpt lat="47.82565" lon="7.15814">
        <ele>414.42</ele>
        <time>2021-06-23T10:17:52Z</time>
      </trkpt>
      <trkpt lat="47.82559" lon="7.1571">
        <ele>405.72</ele>
        <time>2021-06-23T10:17:53Z</time>
      </trkpt>
      <trkpt lat="47.82559" lon="7.15623">
        <ele>405.76</ele>
        <time>2021-06-23T10:17:54Z</time>
      </trkpt>
      <trkpt lat="47.82556" lon="7.15604">
        <ele>405.45</ele>
        <time>2021-06-23T10:17:56Z</time>
      </trkpt>
      <trkpt lat="47.82552" lon="7.15596">
        <ele>404.95</ele>
        <time>2021-06-23T10:17:57Z</time>
      </trkpt>
      <trkpt lat="47.82545" lon="7.15595">
        <ele>403.99</ele>
        <time>2021-06-23T10:17:59Z</time>
      </trkpt>
      <trkpt lat="47.82538" lon="7.15599">
        <ele>402.98</ele>
        <time>2021-06-23T10:18:00Z</time>
      </trkpt>
      <trkpt lat="47.82532" lon="7.15611">
        <ele>402.48</ele>
        <time>2021-06-23T10:18:02Z</time>
      </trkpt>
      <trkpt lat="47.82529" lon="7.15656">
        <ele>399.58</ele>
        <time>2021-06-23T10:18:03Z</time>
      </trkpt>
      <trkpt lat="47.82529" lon="7.15656">
        <ele>399.58</ele>
        <time>2021-06-23T10:18:03Z</time>
      </trkpt>
      <trkpt lat="47.82523" lon="7.15688">
        <ele>398.48</ele>
        <time>2021-06-23T10:18:08Z</time>
      </trkpt>
      <trkpt lat="47.82514" lon="7.15727">
        <ele>396.43</ele>
        <time>2021-06-23T10:18:13Z</time>
      </trkpt>
      <trkpt lat="47.82476" lon="7.15839">
        <ele>387.77</ele>
        <time>2021-06-23T10:18:17Z</time>
      </trkpt>
      <trkpt lat="47.82443" lon="7.15943">
        <ele>378.9</ele>
        <time>2021-06-23T10:18:22Z</time>
      </trkpt>
      <trkpt lat="47.82429" lon="7.15992">
        <ele>379.57</ele>
        <time>2021-06-23T10:18:26Z</time>
      </trkpt>
      <trkpt lat="47.82348" lon="7.16398">
        <ele>358.58</ele>
        <time>2021-06-23T10:18:31Z</time>
      </trkpt>
      <trkpt lat="47.82304" lon="7.16626">
        <ele>347.92</ele>
        <time>2021-06-23T10:18:36Z</time>
      </trkpt>
      <trkpt lat="47.8229" lon="7.16716">
        <ele>345.76</ele>
        <time>2021-06-23T10:18:40Z</time>
      </trkpt>
      <trkpt lat="47.82266" lon="7.16941">
        <ele>338.54</ele>
        <time>2021-06-23T10:18:45Z</time>
      </trkpt>
      <trkpt lat="47.82254" lon="7.17038">
        <ele>337.27</ele>
        <time>2021-06-23T10:18:50Z</time>
      </trkpt>
      <trkpt lat="47.82243" lon="7.1708">
        <ele>333.72</ele>
        <time>2021-06-23T10:18:54Z</time>
      </trkpt>
      <trkpt lat="47.8221" lon="7.17164">
        <ele>327.78</ele>
        <time>2021-06-23T10:18:59Z</time>
      </trkpt>
      <trkpt lat="47.82167" lon="7.17231">
        <ele>324.02</ele>
        <time>2021-06-23T10:19:04Z</time>
      </trkpt>
      <trkpt lat="47.82145" lon="7.17288">
        <ele>324.47</ele>
        <time>2021-06-23T10:19:08Z</time>
      </trkpt>
      <trkpt lat="47.82126" lon="7.17357">
        <ele>322.14</ele>
        <time>2021-06-23T10:19:13Z</time>
      </trkpt>
      <trkpt lat="47.82094" lon="7.17478">
        <ele>319.8</ele>
        <time>2021-06-23T10:19:18Z</time>
      </trkpt>
      <trkpt lat="47.82085" lon="7.17517">
        <ele>318.42</ele>
        <time>2021-06-23T10:19:22Z</time>
      </trkpt>
      <trkpt lat="47.82084" lon="7.17595">
        <ele>315.62</ele>
        <time>2021-06-23T10:19:27Z</time>
      </trkpt>
      <trkpt lat="47.82079" lon="7.17634">
        <ele>315.02</ele>
        <time>2021-06-23T10:19:32Z</time>
      </trkpt>
      <trkpt lat="47.82071" lon="7.17657">
        <ele>314.34</ele>
        <time>2021-06-23T10:19:36Z</time>
      </trkpt>
      <trkpt lat="47.8206" lon="7.17677">
        <ele>314</ele>
        <time>2021-06-23T10:19:41Z</time>
      </trkpt>
      <trkpt lat="47.82004" lon="7.17752">
        <ele>312.07</ele>
        <time>2021-06-23T10:19:46Z</time>
      </trkpt>
      <trkpt lat="47.81985" lon="7.17786">
        <ele>309.92</ele>
        <time>2021-06-23T10:19:50Z</time>
      </trkpt>
      <trkpt lat="47.8195" lon="7.1788">
        <ele>306.51</ele>
        <time>2021-06-23T10:19:55Z</time>
      </trkpt>
      <trkpt lat="47.81938" lon="7.17905">
        <ele>305.41</ele>
        <time>2021-06-23T10:19:59Z</time>
      </trkpt>
      <trkpt lat="47.81928" lon="7.17922">
        <ele>304.82</ele>
        <time>2021-06-23T10:20:04Z</time>
      </trkpt>
      <trkpt lat="47.81889" lon="7.17964">
        <ele>304.3</ele>
        <time>2021-06-23T10:20:09Z</time>
      </trkpt>
      <trkpt lat="47.81862" lon="7.17988">
        <ele>303.44</ele>
        <time>2021-06-23T10:20:13Z</time>
      </trkpt>
      <trkpt lat="47.81806" lon="7.1805">
        <ele>302.19</ele>
        <time>2021-06-23T10:20:18Z</time>
      </trkpt>
      <trkpt lat="47.81832" lon="7.18108">
        <ele>300.05</ele>
        <time>2021-06-23T10:20:21Z</time>
      </trkpt>
      <trkpt lat="47.81858" lon="7.18198">
        <ele>298.98</ele>
        <time>2021-06-23T10:20:24Z</time>
      </trkpt>
      <trkpt lat="47.81868" lon="7.18224">
        <ele>299.26</ele>
        <time>2021-06-23T10:20:26Z</time>
      </trkpt>
      <trkpt lat="47.81875" lon="7.18247">
        <ele>299.49</ele>
        <time>2021-06-23T10:20:29Z</time>
      </trkpt>
      <trkpt lat="47.81873" lon="7.18254">
        <ele>299.24</ele>
        <time>2021-06-23T10:20:34Z</time>
      </trkpt>
      <trkpt lat="47.81874" lon="7.18261">
        <ele>298.89</ele>
        <time>2021-06-23T10:20:38Z</time>
      </trkpt>
      <trkpt lat="47.81876" lon="7.18266">
        <ele>298.64</ele>
        <time>2021-06-23T10:20:42Z</time>
      </trkpt>
      <trkpt lat="47.81879" lon="7.18285">
        <ele>297.83</ele>
        <time>2021-06-23T10:20:47Z</time>
      </trkpt>
      <trkpt lat="47.81879" lon="7.18335">
        <ele>296.33</ele>
        <time>2021-06-23T10:20:51Z</time>
      </trkpt>
      <trkpt lat="47.81886" lon="7.18485">
        <ele>292.53</ele>
        <time>2021-06-23T10:20:55Z</time>
      </trkpt>
      <trkpt lat="47.81873" lon="7.18606">
        <ele>289.89</ele>
        <time>2021-06-23T10:20:59Z</time>
      </trkpt>
      <trkpt lat="47.81866" lon="7.18729">
        <ele>289.21</ele>
        <time>2021-06-23T10:21:04Z</time>
      </trkpt>
      <trkpt lat="47.81865" lon="7.18783">
        <ele>288.81</ele>
        <time>2021-06-23T10:21:08Z</time>
      </trkpt>
      <trkpt lat="47.81862" lon="7.18846">
        <ele>285.6</ele>
        <time>2021-06-23T10:21:12Z</time>
      </trkpt>
      <trkpt lat="47.81855" lon="7.18946">
        <ele>284.18</ele>
        <time>2021-06-23T10:21:17Z</time>
      </trkpt>
      <trkpt lat="47.81849" lon="7.18988">
        <ele>284</ele>
        <time>2021-06-23T10:21:21Z</time>
      </trkpt>
      <trkpt lat="47.81838" lon="7.19028">
        <ele>284.82</ele>
        <time>2021-06-23T10:21:25Z</time>
      </trkpt>
      <trkpt lat="47.81819" lon="7.19074">
        <ele>284.86</ele>
        <time>2021-06-23T10:21:30Z</time>
      </trkpt>
      <trkpt lat="47.81791" lon="7.19115">
        <ele>285.51</ele>
        <time>2021-06-23T10:21:34Z</time>
      </trkpt>
      <trkpt lat="47.81694" lon="7.19234">
        <ele>282.57</ele>
        <time>2021-06-23T10:21:38Z</time>
      </trkpt>
      <trkpt lat="47.81666" lon="7.19263">
        <ele>282.03</ele>
        <time>2021-06-23T10:21:43Z</time>
      </trkpt>
      <trkpt lat="47.81579" lon="7.19321">
        <ele>283.09</ele>
        <time>2021-06-23T10:21:47Z</time>
      </trkpt>
      <trkpt lat="47.81565" lon="7.1934">
        <ele>283.73</ele>
        <time>2021-06-23T10:21:51Z</time>
      </trkpt>
      <trkpt lat="47.8155" lon="7.19352">
        <ele>284</ele>
        <time>2021-06-23T10:21:56Z</time>
      </trkpt>
      <trkpt lat="47.81536" lon="7.19354">
        <ele>284</ele>
        <time>2021-06-23T10:21:57Z</time>
      </trkpt>
      <trkpt lat="47.81527" lon="7.19363">
        <ele>283.94</ele>
        <time>2021-06-23T10:21:59Z</time>
      </trkpt>
      <trkpt lat="47.81521" lon="7.19376">
        <ele>283.35</ele>
        <time>2021-06-23T10:22:00Z</time>
      </trkpt>
      <trkpt lat="47.81519" lon="7.19385">
        <ele>282.88</ele>
        <time>2021-06-23T10:22:02Z</time>
      </trkpt>
      <trkpt lat="47.81519" lon="7.19396">
        <ele>282.69</ele>
        <time>2021-06-23T10:22:03Z</time>
      </trkpt>
      <trkpt lat="47.8151" lon="7.19418">
        <ele>282.41</ele>
        <time>2021-06-23T10:22:05Z</time>
      </trkpt>
      <trkpt lat="47.81491" lon="7.19447">
        <ele>282.69</ele>
        <time>2021-06-23T10:22:06Z</time>
      </trkpt>
      <trkpt lat="47.81476" lon="7.19462">
        <ele>282.15</ele>
        <time>2021-06-23T10:22:08Z</time>
      </trkpt>
      <trkpt lat="47.8146" lon="7.19486">
        <ele>282.51</ele>
        <time>2021-06-23T10:22:09Z</time>
      </trkpt>
      <trkpt lat="47.81436" lon="7.19513">
        <ele>283.44</ele>
        <time>2021-06-23T10:22:13Z</time>
      </trkpt>
      <trkpt lat="47.81436" lon="7.19513">
        <ele>283.44</ele>
        <time>2021-06-23T10:22:13Z</time>
      </trkpt>
      <trkpt lat="47.81426" lon="7.19523">
        <ele>284.38</ele>
        <time>2021-06-23T10:22:19Z</time>
      </trkpt>
      <trkpt lat="47.81407" lon="7.19534">
        <ele>285.23</ele>
        <time>2021-06-23T10:22:24Z</time>
      </trkpt>
      <trkpt lat="47.81395" lon="7.19539">
        <ele>285.41</ele>
        <time>2021-06-23T10:22:30Z</time>
      </trkpt>
      <trkpt lat="47.81371" lon="7.19542">
        <ele>283.89</ele>
        <time>2021-06-23T10:22:36Z</time>
      </trkpt>
      <trkpt lat="47.81348" lon="7.19539">
        <ele>281.55</ele>
        <time>2021-06-23T10:22:42Z</time>
      </trkpt>
      <trkpt lat="47.81309" lon="7.19523">
        <ele>280.19</ele>
        <time>2021-06-23T10:22:47Z</time>
      </trkpt>
      <trkpt lat="47.81207" lon="7.19473">
        <ele>281.91</ele>
        <time>2021-06-23T10:22:53Z</time>
      </trkpt>
      <trkpt lat="47.81159" lon="7.19456">
        <ele>279.85</ele>
        <time>2021-06-23T10:22:59Z</time>
      </trkpt>
      <trkpt lat="47.80984" lon="7.19372">
        <ele>283.77</ele>
        <time>2021-06-23T10:23:05Z</time>
      </trkpt>
      <trkpt lat="47.80818" lon="7.19298">
        <ele>284.03</ele>
        <time>2021-06-23T10:23:10Z</time>
      </trkpt>
      <trkpt lat="47.80618" lon="7.19219">
        <ele>284.66</ele>
        <time>2021-06-23T10:23:16Z</time>
      </trkpt>
      <trkpt lat="47.80006" lon="7.19">
        <ele>287.21</ele>
        <time>2021-06-23T10:23:22Z</time>
      </trkpt>
      <trkpt lat="47.79949" lon="7.18977">
        <ele>285.68</ele>
        <time>2021-06-23T10:23:28Z</time>
      </trkpt>
      <trkpt lat="47.79893" lon="7.18948">
        <ele>290.59</ele>
        <time>2021-06-23T10:23:33Z</time>
      </trkpt>
      <trkpt lat="47.79835" lon="7.18915">
        <ele>288.95</ele>
        <time>2021-06-23T10:23:39Z</time>
      </trkpt>
      <trkpt lat="47.79799" lon="7.18892">
        <ele>289.79</ele>
        <time>2021-06-23T10:23:45Z</time>
      </trkpt>
      <trkpt lat="47.79799" lon="7.18892">
        <ele>289.79</ele>
        <time>2021-06-23T10:23:45Z</time>
      </trkpt>
      <trkpt lat="47.79777" lon="7.18878">
        <ele>290.63</ele>
        <time>2021-06-23T10:23:53Z</time>
      </trkpt>
      <trkpt lat="47.79684" lon="7.18805">
        <ele>291</ele>
        <time>2021-06-23T10:24:01Z</time>
      </trkpt>
      <trkpt lat="47.79627" lon="7.18753">
        <ele>291</ele>
        <time>2021-06-23T10:24:10Z</time>
      </trkpt>
      <trkpt lat="47.79551" lon="7.18673">
        <ele>289.83</ele>
        <time>2021-06-23T10:24:18Z</time>
      </trkpt>
      <trkpt lat="47.79078" lon="7.18112">
        <ele>297.41</ele>
        <time>2021-06-23T10:24:26Z</time>
      </trkpt>
      <trkpt lat="47.79037" lon="7.1805">
        <ele>295.42</ele>
        <time>2021-06-23T10:24:30Z</time>
      </trkpt>
      <trkpt lat="47.79019" lon="7.18015">
        <ele>295.04</ele>
        <time>2021-06-23T10:24:34Z</time>
      </trkpt>
      <trkpt lat="47.79002" lon="7.17982">
        <ele>295.88</ele>
        <time>2021-06-23T10:24:38Z</time>
      </trkpt>
      <trkpt lat="47.78982" lon="7.17954">
        <ele>296.23</ele>
        <time>2021-06-23T10:24:41Z</time>
      </trkpt>
      <trkpt lat="47.78966" lon="7.1794">
        <ele>295.69</ele>
        <time>2021-06-23T10:24:45Z</time>
      </trkpt>
      <trkpt lat="47.78934" lon="7.17918">
        <ele>295.04</ele>
        <time>2021-06-23T10:24:49Z</time>
      </trkpt>
      <trkpt lat="47.78913" lon="7.179">
        <ele>294.42</ele>
        <time>2021-06-23T10:24:52Z</time>
      </trkpt>
      <trkpt lat="47.78833" lon="7.17807">
        <ele>297.01</ele>
        <time>2021-06-23T10:24:56Z</time>
      </trkpt>
      <trkpt lat="47.78825" lon="7.17777">
        <ele>296.98</ele>
        <time>2021-06-23T10:24:57Z</time>
      </trkpt>
      <trkpt lat="47.78824" lon="7.17762">
        <ele>296.06</ele>
        <time>2021-06-23T10:24:58Z</time>
      </trkpt>
      <trkpt lat="47.78825" lon="7.17743">
        <ele>294.88</ele>
        <time>2021-06-23T10:25:00Z</time>
      </trkpt>
      <trkpt lat="47.78831" lon="7.17726">
        <ele>293.45</ele>
        <time>2021-06-23T10:25:01Z</time>
      </trkpt>
      <trkpt lat="47.78842" lon="7.17713">
        <ele>293</ele>
        <time>2021-06-23T10:25:02Z</time>
      </trkpt>
      <trkpt lat="47.78854" lon="7.17706">
        <ele>293</ele>
        <time>2021-06-23T10:25:03Z</time>
      </trkpt>
      <trkpt lat="47.78867" lon="7.17706">
        <ele>293.22</ele>
        <time>2021-06-23T10:25:05Z</time>
      </trkpt>
      <trkpt lat="47.7888" lon="7.17713">
        <ele>293.79</ele>
        <time>2021-06-23T10:25:06Z</time>
      </trkpt>
      <trkpt lat="47.7888" lon="7.17713">
        <ele>293.79</ele>
        <time>2021-06-23T10:25:06Z</time>
      </trkpt>
      <trkpt lat="47.7889" lon="7.17725">
        <ele>293.96</ele>
        <time>2021-06-23T10:25:08Z</time>
      </trkpt>
      <trkpt lat="47.78896" lon="7.17742">
        <ele>293.73</ele>
        <time>2021-06-23T10:25:10Z</time>
      </trkpt>
      <trkpt lat="47.78899" lon="7.1776">
        <ele>293.5</ele>
        <time>2021-06-23T10:25:12Z</time>
      </trkpt>
      <trkpt lat="47.78897" lon="7.17798">
        <ele>292.9</ele>
        <time>2021-06-23T10:25:14Z</time>
      </trkpt>
      <trkpt lat="47.78887" lon="7.17831">
        <ele>293.22</ele>
        <time>2021-06-23T10:25:16Z</time>
      </trkpt>
      <trkpt lat="47.78846" lon="7.17931">
        <ele>294.47</ele>
        <time>2021-06-23T10:25:18Z</time>
      </trkpt>
      <trkpt lat="47.78686" lon="7.18321">
        <ele>293.4</ele>
        <time>2021-06-23T10:25:30Z</time>
      </trkpt>
      <trkpt lat="47.78668" lon="7.18379">
        <ele>294.57</ele>
        <time>2021-06-23T10:25:43Z</time>
      </trkpt>
      <trkpt lat="47.78579" lon="7.18593">
        <ele>290.15</ele>
        <time>2021-06-23T10:25:55Z</time>
      </trkpt>
      <trkpt lat="47.78333" lon="7.19174">
        <ele>286</ele>
        <time>2021-06-23T10:26:07Z</time>
      </trkpt>
      <trkpt lat="47.78228" lon="7.19399">
        <ele>286.64</ele>
        <time>2021-06-23T10:26:20Z</time>
      </trkpt>
      <trkpt lat="47.78029" lon="7.19874">
        <ele>281.6</ele>
        <time>2021-06-23T10:26:32Z</time>
      </trkpt>
      <trkpt lat="47.77868" lon="7.20273">
        <ele>279.75</ele>
        <time>2021-06-23T10:26:45Z</time>
      </trkpt>
      <trkpt lat="47.7782" lon="7.20388">
        <ele>278.55</ele>
        <time>2021-06-23T10:26:57Z</time>
      </trkpt>
      <trkpt lat="47.77524" lon="7.21061">
        <ele>274.14</ele>
        <time>2021-06-23T10:27:09Z</time>
      </trkpt>
      <trkpt lat="47.77513" lon="7.21095">
        <ele>274.5</ele>
        <time>2021-06-23T10:27:22Z</time>
      </trkpt>
      <trkpt lat="47.77513" lon="7.21095">
        <ele>274.5</ele>
        <time>2021-06-23T10:27:22Z</time>
      </trkpt>
      <trkpt lat="47.77498" lon="7.21139">
        <ele>274.86</ele>
        <time>2021-06-23T10:27:28Z</time>
      </trkpt>
      <trkpt lat="47.77399" lon="7.21509">
        <ele>272.31</ele>
        <time>2021-06-23T10:27:34Z</time>
      </trkpt>
      <trkpt lat="47.77367" lon="7.21646">
        <ele>270.92</ele>
        <time>2021-06-23T10:27:39Z</time>
      </trkpt>
      <trkpt lat="47.77354" lon="7.21732">
        <ele>272.09</ele>
        <time>2021-06-23T10:27:45Z</time>
      </trkpt>
      <trkpt lat="47.77344" lon="7.21854">
        <ele>272.25</ele>
        <time>2021-06-23T10:27:51Z</time>
      </trkpt>
      <trkpt lat="47.77342" lon="7.21926">
        <ele>271.44</ele>
        <time>2021-06-23T10:27:57Z</time>
      </trkpt>
      <trkpt lat="47.77346" lon="7.22113">
        <ele>268.51</ele>
        <time>2021-06-23T10:28:03Z</time>
      </trkpt>
      <trkpt lat="47.7734" lon="7.22226">
        <ele>268.03</ele>
        <time>2021-06-23T10:28:09Z</time>
      </trkpt>
      <trkpt lat="47.77335" lon="7.22274">
        <ele>268.01</ele>
        <time>2021-06-23T10:28:15Z</time>
      </trkpt>
      <trkpt lat="47.77321" lon="7.22368">
        <ele>266</ele>
        <time>2021-06-23T10:28:21Z</time>
      </trkpt>
      <trkpt lat="47.77257" lon="7.22712">
        <ele>265.91</ele>
        <time>2021-06-23T10:28:26Z</time>
      </trkpt>
      <trkpt lat="47.77239" lon="7.22797">
        <ele>267.39</ele>
        <time>2021-06-23T10:28:32Z</time>
      </trkpt>
      <trkpt lat="47.7715" lon="7.23148">
        <ele>267.41</ele>
        <time>2021-06-23T10:28:38Z</time>
      </trkpt>
      <trkpt lat="47.77108" lon="7.23326">
        <ele>264.92</ele>
        <time>2021-06-23T10:28:44Z</time>
      </trkpt>
      <trkpt lat="47.77093" lon="7.23404">
        <ele>265.54</ele>
        <time>2021-06-23T10:28:50Z</time>
      </trkpt>
      <trkpt lat="47.77074" lon="7.2353">
        <ele>264.97</ele>
        <time>2021-06-23T10:28:56Z</time>
      </trkpt>
      <trkpt lat="47.77046" lon="7.23802">
        <ele>263.85</ele>
        <time>2021-06-23T10:29:02Z</time>
      </trkpt>
      <trkpt lat="47.77005" lon="7.24147">
        <ele>264.13</ele>
        <time>2021-06-23T10:29:08Z</time>
      </trkpt>
      <trkpt lat="47.76988" lon="7.24245">
        <ele>263.94</ele>
        <time>2021-06-23T10:29:14Z</time>
      </trkpt>
      <trkpt lat="47.76969" lon="7.24324">
        <ele>262.13</ele>
        <time>2021-06-23T10:29:19Z</time>
      </trkpt>
      <trkpt lat="47.76774" lon="7.24963">
        <ele>257.95</ele>
        <time>2021-06-23T10:29:25Z</time>
      </trkpt>
      <trkpt lat="47.76734" lon="7.25079">
        <ele>257.64</ele>
        <time>2021-06-23T10:29:31Z</time>
      </trkpt>
      <trkpt lat="47.76734" lon="7.25079">
        <ele>257.64</ele>
        <time>2021-06-23T10:29:31Z</time>
      </trkpt>
      <trkpt lat="47.76603" lon="7.25373">
        <ele>251.58</ele>
        <time>2021-06-23T10:29:37Z</time>
      </trkpt>
      <trkpt lat="47.76339" lon="7.26072">
        <ele>250.42</ele>
        <time>2021-06-23T10:29:43Z</time>
      </trkpt>
      <trkpt lat="47.7629" lon="7.26187">
        <ele>250.84</ele>
        <time>2021-06-23T10:29:49Z</time>
      </trkpt>
      <trkpt lat="47.76251" lon="7.2626">
        <ele>251.35</ele>
        <time>2021-06-23T10:29:54Z</time>
      </trkpt>
      <trkpt lat="47.76226" lon="7.26304">
        <ele>252.12</ele>
        <time>2021-06-23T10:30:00Z</time>
      </trkpt>
      <trkpt lat="47.76186" lon="7.26365">
        <ele>251</ele>
        <time>2021-06-23T10:30:06Z</time>
      </trkpt>
      <trkpt lat="47.76123" lon="7.26451">
        <ele>251.45</ele>
        <time>2021-06-23T10:30:12Z</time>
      </trkpt>
      <trkpt lat="47.76062" lon="7.26517">
        <ele>251.26</ele>
        <time>2021-06-23T10:30:17Z</time>
      </trkpt>
      <trkpt lat="47.75993" lon="7.26581">
        <ele>251.75</ele>
        <time>2021-06-23T10:30:23Z</time>
      </trkpt>
      <trkpt lat="47.75955" lon="7.26611">
        <ele>251.63</ele>
        <time>2021-06-23T10:30:29Z</time>
      </trkpt>
      <trkpt lat="47.75892" lon="7.26652">
        <ele>254.88</ele>
        <time>2021-06-23T10:30:35Z</time>
      </trkpt>
      <trkpt lat="47.75846" lon="7.26671">
        <ele>253.87</ele>
        <time>2021-06-23T10:30:38Z</time>
      </trkpt>
      <trkpt lat="47.75805" lon="7.26691">
        <ele>250.98</ele>
        <time>2021-06-23T10:30:41Z</time>
      </trkpt>
      <trkpt lat="47.75784" lon="7.26694">
        <ele>250.23</ele>
        <time>2021-06-23T10:30:45Z</time>
      </trkpt>
      <trkpt lat="47.75767" lon="7.26687">
        <ele>249.89</ele>
        <time>2021-06-23T10:30:48Z</time>
      </trkpt>
      <trkpt lat="47.75753" lon="7.26669">
        <ele>249.2</ele>
        <time>2021-06-23T10:30:51Z</time>
      </trkpt>
      <trkpt lat="47.75745" lon="7.26648">
        <ele>249.93</ele>
        <time>2021-06-23T10:30:55Z</time>
      </trkpt>
      <trkpt lat="47.7574" lon="7.26632">
        <ele>250.91</ele>
        <time>2021-06-23T10:30:58Z</time>
      </trkpt>
      <trkpt lat="47.7574" lon="7.26632">
        <ele>250.91</ele>
        <time>2021-06-23T10:30:58Z</time>
      </trkpt>
      <trkpt lat="47.75739" lon="7.26615">
        <ele>251.25</ele>
        <time>2021-06-23T10:31:00Z</time>
      </trkpt>
      <trkpt lat="47.75742" lon="7.26596">
        <ele>251.3</ele>
        <time>2021-06-23T10:31:01Z</time>
      </trkpt>
      <trkpt lat="47.75746" lon="7.26579">
        <ele>251.25</ele>
        <time>2021-06-23T10:31:03Z</time>
      </trkpt>
      <trkpt lat="47.75755" lon="7.2657">
        <ele>251.58</ele>
        <time>2021-06-23T10:31:06Z</time>
      </trkpt>
      <trkpt lat="47.7576" lon="7.26556">
        <ele>252</ele>
        <time>2021-06-23T10:31:10Z</time>
      </trkpt>
      <trkpt lat="47.75778" lon="7.26549">
        <ele>252</ele>
        <time>2021-06-23T10:31:14Z</time>
      </trkpt>
      <trkpt lat="47.75796" lon="7.26552">
        <ele>252.57</ele>
        <time>2021-06-23T10:31:17Z</time>
      </trkpt>
      <trkpt lat="47.75814" lon="7.26562">
        <ele>252.75</ele>
        <time>2021-06-23T10:31:21Z</time>
      </trkpt>
      <trkpt lat="47.75836" lon="7.26578">
        <ele>252.74</ele>
        <time>2021-06-23T10:31:24Z</time>
      </trkpt>
      <trkpt lat="47.75861" lon="7.26603">
        <ele>252.7</ele>
        <time>2021-06-23T10:31:28Z</time>
      </trkpt>
      <trkpt lat="47.75879" lon="7.26623">
        <ele>253.44</ele>
        <time>2021-06-23T10:31:32Z</time>
      </trkpt>
      <trkpt lat="47.75902" lon="7.26656">
        <ele>254.59</ele>
        <time>2021-06-23T10:31:35Z</time>
      </trkpt>
      <trkpt lat="47.75941" lon="7.26731">
        <ele>254.75</ele>
        <time>2021-06-23T10:31:39Z</time>
      </trkpt>
      <trkpt lat="47.75959" lon="7.26777">
        <ele>253.47</ele>
        <time>2021-06-23T10:31:42Z</time>
      </trkpt>
      <trkpt lat="47.75972" lon="7.26823">
        <ele>252.36</ele>
        <time>2021-06-23T10:31:46Z</time>
      </trkpt>
      <trkpt lat="47.7599" lon="7.26903">
        <ele>249.37</ele>
        <time>2021-06-23T10:31:50Z</time>
      </trkpt>
      <trkpt lat="47.75991" lon="7.26921">
        <ele>249.52</ele>
        <time>2021-06-23T10:31:53Z</time>
      </trkpt>
      <trkpt lat="47.75989" lon="7.26928">
        <ele>249.89</ele>
        <time>2021-06-23T10:32:01Z</time>
      </trkpt>
      <trkpt lat="47.75988" lon="7.26936">
        <ele>250.22</ele>
        <time>2021-06-23T10:32:08Z</time>
      </trkpt>
      <trkpt lat="47.7599" lon="7.26944">
        <ele>250.62</ele>
        <time>2021-06-23T10:32:15Z</time>
      </trkpt>
      <trkpt lat="47.75994" lon="7.26951">
        <ele>251.12</ele>
        <time>2021-06-23T10:32:23Z</time>
      </trkpt>
      <trkpt lat="47.75999" lon="7.2697">
        <ele>252.68</ele>
        <time>2021-06-23T10:32:30Z</time>
      </trkpt>
      <trkpt lat="47.76002" lon="7.27017">
        <ele>254.46</ele>
        <time>2021-06-23T10:32:37Z</time>
      </trkpt>
      <trkpt lat="47.76003" lon="7.27133">
        <ele>251.19</ele>
        <time>2021-06-23T10:32:45Z</time>
      </trkpt>
      <trkpt lat="47.76009" lon="7.27316">
        <ele>251.36</ele>
        <time>2021-06-23T10:32:52Z</time>
      </trkpt>
      <trkpt lat="47.76005" lon="7.27354">
        <ele>252</ele>
        <time>2021-06-23T10:32:59Z</time>
      </trkpt>
      <trkpt lat="47.75996" lon="7.274">
        <ele>253.26</ele>
        <time>2021-06-23T10:33:07Z</time>
      </trkpt>
      <trkpt lat="47.75929" lon="7.27684">
        <ele>252</ele>
        <time>2021-06-23T10:33:14Z</time>
      </trkpt>
      <trkpt lat="47.75929" lon="7.27684">
        <ele>252</ele>
        <time>2021-06-23T10:33:14Z</time>
      </trkpt>
      <trkpt lat="47.75907" lon="7.27776">
        <ele>249.6</ele>
        <time>2021-06-23T10:33:22Z</time>
      </trkpt>
      <trkpt lat="47.75901" lon="7.27816">
        <ele>250.1</ele>
        <time>2021-06-23T10:33:30Z</time>
      </trkpt>
      <trkpt lat="47.75901" lon="7.27845">
        <ele>250.87</ele>
        <time>2021-06-23T10:33:38Z</time>
      </trkpt>
      <trkpt lat="47.75903" lon="7.27863">
        <ele>251.51</ele>
        <time>2021-06-23T10:33:46Z</time>
      </trkpt>
      <trkpt lat="47.75908" lon="7.27884">
        <ele>251.67</ele>
        <time>2021-06-23T10:33:54Z</time>
      </trkpt>
      <trkpt lat="47.75929" lon="7.27947">
        <ele>250.92</ele>
        <time>2021-06-23T10:34:01Z</time>
      </trkpt>
      <trkpt lat="47.75934" lon="7.2797">
        <ele>250.1</ele>
        <time>2021-06-23T10:34:09Z</time>
      </trkpt>
      <trkpt lat="47.7593" lon="7.28014">
        <ele>249.48</ele>
        <time>2021-06-23T10:34:17Z</time>
      </trkpt>
      <trkpt lat="47.75931" lon="7.28024">
        <ele>249.53</ele>
        <time>2021-06-23T10:34:25Z</time>
      </trkpt>
      <trkpt lat="47.75921" lon="7.28123">
        <ele>249</ele>
        <time>2021-06-23T10:34:33Z</time>
      </trkpt>
      <trkpt lat="47.75888" lon="7.28328">
        <ele>249.98</ele>
        <time>2021-06-23T10:34:41Z</time>
      </trkpt>
      <trkpt lat="47.75862" lon="7.28508">
        <ele>247.72</ele>
        <time>2021-06-23T10:34:49Z</time>
      </trkpt>
      <trkpt lat="47.75855" lon="7.2857">
        <ele>245.61</ele>
        <time>2021-06-23T10:34:56Z</time>
      </trkpt>
      <trkpt lat="47.75849" lon="7.28646">
        <ele>247.15</ele>
        <time>2021-06-23T10:35:04Z</time>
      </trkpt>
      <trkpt lat="47.7585" lon="7.28723">
        <ele>248.56</ele>
        <time>2021-06-23T10:35:12Z</time>
      </trkpt>
      <trkpt lat="47.75864" lon="7.28877">
        <ele>246.61</ele>
        <time>2021-06-23T10:35:20Z</time>
      </trkpt>
      <trkpt lat="47.75862" lon="7.28888">
        <ele>246.11</ele>
        <time>2021-06-23T10:35:28Z</time>
      </trkpt>
      <trkpt lat="47.75871" lon="7.29024">
        <ele>244.29</ele>
        <time>2021-06-23T10:35:36Z</time>
      </trkpt>
      <trkpt lat="47.75867" lon="7.29027">
        <ele>244.2</ele>
        <time>2021-06-23T10:35:41Z</time>
      </trkpt>
      <trkpt lat="47.75864" lon="7.29033">
        <ele>244.26</ele>
        <time>2021-06-23T10:35:46Z</time>
      </trkpt>
      <trkpt lat="47.75864" lon="7.2904">
        <ele>244.5</ele>
        <time>2021-06-23T10:35:50Z</time>
      </trkpt>
      <trkpt lat="47.75869" lon="7.29053">
        <ele>244.93</ele>
        <time>2021-06-23T10:35:55Z</time>
      </trkpt>
      <trkpt lat="47.75871" lon="7.29069">
        <ele>245.16</ele>
        <time>2021-06-23T10:36:00Z</time>
      </trkpt>
      <trkpt lat="47.75869" lon="7.29092">
        <ele>245.11</ele>
        <time>2021-06-23T10:36:05Z</time>
      </trkpt>
      <trkpt lat="47.75858" lon="7.29175">
        <ele>244.27</ele>
        <time>2021-06-23T10:36:10Z</time>
      </trkpt>
      <trkpt lat="47.75842" lon="7.29249">
        <ele>243.64</ele>
        <time>2021-06-23T10:36:15Z</time>
      </trkpt>
      <trkpt lat="47.7581" lon="7.29352">
        <ele>242.67</ele>
        <time>2021-06-23T10:36:20Z</time>
      </trkpt>
      <trkpt lat="47.7576" lon="7.29508">
        <ele>243.97</ele>
        <time>2021-06-23T10:36:24Z</time>
      </trkpt>
      <trkpt lat="47.7576" lon="7.29508">
        <ele>243.97</ele>
        <time>2021-06-23T10:36:24Z</time>
      </trkpt>
      <trkpt lat="47.75711" lon="7.29666">
        <ele>241.66</ele>
        <time>2021-06-23T10:36:36Z</time>
      </trkpt>
      <trkpt lat="47.75625" lon="7.29931">
        <ele>242.23</ele>
        <time>2021-06-23T10:36:48Z</time>
      </trkpt>
      <trkpt lat="47.75599" lon="7.2999">
        <ele>244.05</ele>
        <time>2021-06-23T10:37:00Z</time>
      </trkpt>
      <trkpt lat="47.75548" lon="7.30083">
        <ele>245.43</ele>
        <time>2021-06-23T10:37:12Z</time>
      </trkpt>
      <trkpt lat="47.75519" lon="7.30112">
        <ele>243.37</ele>
        <time>2021-06-23T10:37:24Z</time>
      </trkpt>
      <trkpt lat="47.75314" lon="7.30277">
        <ele>243.62</ele>
        <time>2021-06-23T10:37:36Z</time>
      </trkpt>
      <trkpt lat="47.75238" lon="7.30331">
        <ele>241.5</ele>
        <time>2021-06-23T10:37:48Z</time>
      </trkpt>
      <trkpt lat="47.75228" lon="7.30336">
        <ele>241.73</ele>
        <time>2021-06-23T10:38:00Z</time>
      </trkpt>
      <trkpt lat="47.75225" lon="7.30325">
        <ele>241.93</ele>
        <time>2021-06-23T10:38:02Z</time>
      </trkpt>
      <trkpt lat="47.75218" lon="7.3032">
        <ele>242.16</ele>
        <time>2021-06-23T10:38:04Z</time>
      </trkpt>
      <trkpt lat="47.75212" lon="7.30322">
        <ele>242.36</ele>
        <time>2021-06-23T10:38:07Z</time>
      </trkpt>
      <trkpt lat="47.75208" lon="7.30328">
        <ele>242.5</ele>
        <time>2021-06-23T10:38:09Z</time>
      </trkpt>
      <trkpt lat="47.75207" lon="7.30335">
        <ele>242.52</ele>
        <time>2021-06-23T10:38:11Z</time>
      </trkpt>
      <trkpt lat="47.75208" lon="7.30342">
        <ele>242.36</ele>
        <time>2021-06-23T10:38:14Z</time>
      </trkpt>
      <trkpt lat="47.75136" lon="7.3042">
        <ele>243.1</ele>
        <time>2021-06-23T10:38:16Z</time>
      </trkpt>
      <trkpt lat="47.75085" lon="7.30457">
        <ele>244.93</ele>
        <time>2021-06-23T10:38:18Z</time>
      </trkpt>
      <trkpt lat="47.75074" lon="7.30468">
        <ele>245</ele>
        <time>2021-06-23T10:38:21Z</time>
      </trkpt>
      <trkpt lat="47.75057" lon="7.30488">
        <ele>245</ele>
        <time>2021-06-23T10:38:23Z</time>
      </trkpt>
      <trkpt lat="47.75036" lon="7.30519">
        <ele>244.54</ele>
        <time>2021-06-23T10:38:25Z</time>
      </trkpt>
      <trkpt lat="47.75014" lon="7.3053">
        <ele>244</ele>
        <time>2021-06-23T10:38:27Z</time>
      </trkpt>
      <trkpt lat="47.75005" lon="7.30531">
        <ele>243.92</ele>
        <time>2021-06-23T10:38:29Z</time>
      </trkpt>
      <trkpt lat="47.74999" lon="7.3053">
        <ele>243.88</ele>
        <time>2021-06-23T10:38:31Z</time>
      </trkpt>
      <trkpt lat="47.74982" lon="7.3052">
        <ele>243.37</ele>
        <time>2021-06-23T10:38:33Z</time>
      </trkpt>
      <trkpt lat="47.74967" lon="7.30487">
        <ele>243.76</ele>
        <time>2021-06-23T10:38:35Z</time>
      </trkpt>
      <trkpt lat="47.7495" lon="7.30448">
        <ele>246.48</ele>
        <time>2021-06-23T10:38:37Z</time>
      </trkpt>
      <trkpt lat="47.74937" lon="7.30424">
        <ele>246.46</ele>
        <time>2021-06-23T10:38:39Z</time>
      </trkpt>
      <trkpt lat="47.74927" lon="7.30411">
        <ele>246.43</ele>
        <time>2021-06-23T10:38:41Z</time>
      </trkpt>
      <trkpt lat="47.74906" lon="7.30392">
        <ele>246.11</ele>
        <time>2021-06-23T10:38:43Z</time>
      </trkpt>
      <trkpt lat="47.74896" lon="7.30386">
        <ele>245.86</ele>
        <time>2021-06-23T10:38:45Z</time>
      </trkpt>
      <trkpt lat="47.74875" lon="7.30377">
        <ele>245.56</ele>
        <time>2021-06-23T10:38:47Z</time>
      </trkpt>
      <trkpt lat="47.74859" lon="7.30375">
        <ele>245.41</ele>
        <time>2021-06-23T10:38:48Z</time>
      </trkpt>
      <trkpt lat="47.74832" lon="7.30379">
        <ele>245.47</ele>
        <time>2021-06-23T10:38:50Z</time>
      </trkpt>
      <trkpt lat="47.74815" lon="7.30385">
        <ele>245.51</ele>
        <time>2021-06-23T10:38:52Z</time>
      </trkpt>
      <trkpt lat="47.74797" lon="7.30384">
        <ele>245.88</ele>
        <time>2021-06-23T10:38:54Z</time>
      </trkpt>
      <trkpt lat="47.74784" lon="7.30359">
        <ele>245.7</ele>
        <time>2021-06-23T10:38:59Z</time>
      </trkpt>
      <trkpt lat="47.74778" lon="7.30316">
        <ele>245</ele>
        <time>2021-06-23T10:39:04Z</time>
      </trkpt>
      <trkpt lat="47.74771" lon="7.30291">
        <ele>245.12</ele>
        <time>2021-06-23T10:39:09Z</time>
      </trkpt>
      <trkpt lat="47.74709" lon="7.30145">
        <ele>247.14</ele>
        <time>2021-06-23T10:39:13Z</time>
      </trkpt>
      <trkpt lat="47.74808" lon="7.30093">
        <ele>243.42</ele>
        <time>2021-06-23T10:39:23Z</time>
      </trkpt>
      <trkpt lat="47.74821" lon="7.30077">
        <ele>243.67</ele>
        <time>2021-06-23T10:39:32Z</time>
      </trkpt>
      <trkpt lat="47.74822" lon="7.30065">
        <ele>243.97</ele>
        <time>2021-06-23T10:39:39Z</time>
      </trkpt>
      <trkpt lat="47.7482" lon="7.30009">
        <ele>245.21</ele>
        <time>2021-06-23T10:39:45Z</time>
      </trkpt>
      <trkpt lat="47.74823" lon="7.2995">
        <ele>245.51</ele>
        <time>2021-06-23T10:39:52Z</time>
      </trkpt>
      <trkpt lat="47.7483" lon="7.29897">
        <ele>243.31</ele>
        <time>2021-06-23T10:39:58Z</time>
      </trkpt>
      <trkpt lat="47.74844" lon="7.29839">
        <ele>242</ele>
        <time>2021-06-23T10:40:05Z</time>
      </trkpt>
      <trkpt lat="47.74888" lon="7.29698">
        <ele>243.78</ele>
        <time>2021-06-23T10:40:12Z</time>
      </trkpt>
      <trkpt lat="47.74905" lon="7.29652">
        <ele>246.25</ele>
        <time>2021-06-23T10:40:18Z</time>
      </trkpt>
      <trkpt lat="47.74944" lon="7.29526">
        <ele>242</ele>
        <time>2021-06-23T10:40:25Z</time>
      </trkpt>
      <trkpt lat="47.74952" lon="7.29486">
        <ele>241.79</ele>
        <time>2021-06-23T10:40:32Z</time>
      </trkpt>
      <trkpt lat="47.74953" lon="7.29477">
        <ele>241.46</ele>
        <time>2021-06-23T10:40:38Z</time>
      </trkpt>
      <trkpt lat="47.74973" lon="7.2945">
        <ele>242.04</ele>
        <time>2021-06-23T10:40:46Z</time>
      </trkpt>
      <trkpt lat="47.74982" lon="7.29458">
        <ele>243.98</ele>
        <time>2021-06-23T10:40:50Z</time>
      </trkpt>
      <trkpt lat="47.74982" lon="7.29458">
        <ele>243.98</ele>
        <time>2021-06-23T10:40:50Z</time>
      </trkpt>
      <trkpt lat="47.74973" lon="7.2945">
        <ele>242.04</ele>
        <time>2021-06-23T10:40:53Z</time>
      </trkpt>
      <trkpt lat="47.74953" lon="7.29477">
        <ele>241.46</ele>
        <time>2021-06-23T10:41:01Z</time>
      </trkpt>
      <trkpt lat="47.74952" lon="7.29486">
        <ele>241.79</ele>
        <time>2021-06-23T10:41:08Z</time>
      </trkpt>
      <trkpt lat="47.74944" lon="7.29526">
        <ele>242</ele>
        <time>2021-06-23T10:41:14Z</time>
      </trkpt>
      <trkpt lat="47.74905" lon="7.29652">
        <ele>246.25</ele>
        <time>2021-06-23T10:41:21Z</time>
      </trkpt>
      <trkpt lat="47.74888" lon="7.29698">
        <ele>243.78</ele>
        <time>2021-06-23T10:41:27Z</time>
      </trkpt>
      <trkpt lat="47.74844" lon="7.29839">
        <ele>242</ele>
        <time>2021-06-23T10:41:34Z</time>
      </trkpt>
      <trkpt lat="47.7483" lon="7.29897">
        <ele>243.31</ele>
        <time>2021-06-23T10:41:41Z</time>
      </trkpt>
      <trkpt lat="47.74823" lon="7.2995">
        <ele>245.51</ele>
        <time>2021-06-23T10:41:47Z</time>
      </trkpt>
      <trkpt lat="47.7482" lon="7.30009">
        <ele>245.21</ele>
        <time>2021-06-23T10:41:54Z</time>
      </trkpt>
      <trkpt lat="47.74822" lon="7.30065">
        <ele>243.97</ele>
        <time>2021-06-23T10:42:01Z</time>
      </trkpt>
      <trkpt lat="47.74821" lon="7.30077">
        <ele>243.67</ele>
        <time>2021-06-23T10:42:07Z</time>
      </trkpt>
      <trkpt lat="47.74808" lon="7.30093">
        <ele>243.42</ele>
        <time>2021-06-23T10:42:17Z</time>
      </trkpt>
      <trkpt lat="47.74709" lon="7.30145">
        <ele>247.14</ele>
        <time>2021-06-23T10:42:26Z</time>
      </trkpt>
      <trkpt lat="47.74771" lon="7.30291">
        <ele>245.12</ele>
        <time>2021-06-23T10:42:31Z</time>
      </trkpt>
      <trkpt lat="47.74778" lon="7.30316">
        <ele>245</ele>
        <time>2021-06-23T10:42:35Z</time>
      </trkpt>
      <trkpt lat="47.74784" lon="7.30359">
        <ele>245.7</ele>
        <time>2021-06-23T10:42:40Z</time>
      </trkpt>
      <trkpt lat="47.74781" lon="7.30382">
        <ele>245.97</ele>
        <time>2021-06-23T10:42:44Z</time>
      </trkpt>
      <trkpt lat="47.74778" lon="7.30391">
        <ele>246</ele>
        <time>2021-06-23T10:42:46Z</time>
      </trkpt>
      <trkpt lat="47.74778" lon="7.30401">
        <ele>246.01</ele>
        <time>2021-06-23T10:42:48Z</time>
      </trkpt>
      <trkpt lat="47.74783" lon="7.30408">
        <ele>246.13</ele>
        <time>2021-06-23T10:42:50Z</time>
      </trkpt>
      <trkpt lat="47.74789" lon="7.30411">
        <ele>246.32</ele>
        <time>2021-06-23T10:42:52Z</time>
      </trkpt>
      <trkpt lat="47.74796" lon="7.30407">
        <ele>246.41</ele>
        <time>2021-06-23T10:42:54Z</time>
      </trkpt>
      <trkpt lat="47.74799" lon="7.30398">
        <ele>246.26</ele>
        <time>2021-06-23T10:42:56Z</time>
      </trkpt>
      <trkpt lat="47.74808" lon="7.30394">
        <ele>246.09</ele>
        <time>2021-06-23T10:42:57Z</time>
      </trkpt>
      <trkpt lat="47.74815" lon="7.30385">
        <ele>245.51</ele>
        <time>2021-06-23T10:42:59Z</time>
      </trkpt>
      <trkpt lat="47.74832" lon="7.30379">
        <ele>245.47</ele>
        <time>2021-06-23T10:43:01Z</time>
      </trkpt>
      <trkpt lat="47.74859" lon="7.30375">
        <ele>245.41</ele>
        <time>2021-06-23T10:43:03Z</time>
      </trkpt>
      <trkpt lat="47.74875" lon="7.30377">
        <ele>245.56</ele>
        <time>2021-06-23T10:43:05Z</time>
      </trkpt>
      <trkpt lat="47.74906" lon="7.30392">
        <ele>246.11</ele>
        <time>2021-06-23T10:43:07Z</time>
      </trkpt>
      <trkpt lat="47.74927" lon="7.30411">
        <ele>246.43</ele>
        <time>2021-06-23T10:43:09Z</time>
      </trkpt>
      <trkpt lat="47.74937" lon="7.30424">
        <ele>246.46</ele>
        <time>2021-06-23T10:43:10Z</time>
      </trkpt>
      <trkpt lat="47.7495" lon="7.30448">
        <ele>246.48</ele>
        <time>2021-06-23T10:43:12Z</time>
      </trkpt>
      <trkpt lat="47.74967" lon="7.30487">
        <ele>243.76</ele>
        <time>2021-06-23T10:43:14Z</time>
      </trkpt>
      <trkpt lat="47.75005" lon="7.3057">
        <ele>243.36</ele>
        <time>2021-06-23T10:43:16Z</time>
      </trkpt>
      <trkpt lat="47.75036" lon="7.30519">
        <ele>244.54</ele>
        <time>2021-06-23T10:43:21Z</time>
      </trkpt>
      <trkpt lat="47.75014" lon="7.3053">
        <ele>244</ele>
        <time>2021-06-23T10:43:23Z</time>
      </trkpt>
      <trkpt lat="47.74999" lon="7.3053">
        <ele>243.88</ele>
        <time>2021-06-23T10:43:24Z</time>
      </trkpt>
      <trkpt lat="47.7499" lon="7.30525">
        <ele>243.62</ele>
        <time>2021-06-23T10:43:26Z</time>
      </trkpt>
      <trkpt lat="47.7499" lon="7.30525">
        <ele>243.62</ele>
        <time>2021-06-23T10:43:26Z</time>
      </trkpt>
      <trkpt lat="47.74982" lon="7.3052">
        <ele>243.37</ele>
        <time>2021-06-23T10:43:27Z</time>
      </trkpt>
      <trkpt lat="47.75005" lon="7.3057">
        <ele>243.36</ele>
        <time>2021-06-23T10:43:31Z</time>
      </trkpt>
      <trkpt lat="47.75036" lon="7.30519">
        <ele>244.54</ele>
        <time>2021-06-23T10:43:35Z</time>
      </trkpt>
      <trkpt lat="47.75057" lon="7.30488">
        <ele>245</ele>
        <time>2021-06-23T10:43:40Z</time>
      </trkpt>
      <trkpt lat="47.75074" lon="7.30468">
        <ele>245</ele>
        <time>2021-06-23T10:43:44Z</time>
      </trkpt>
      <trkpt lat="47.75085" lon="7.30457">
        <ele>244.93</ele>
        <time>2021-06-23T10:43:48Z</time>
      </trkpt>
      <trkpt lat="47.75136" lon="7.3042">
        <ele>243.1</ele>
        <time>2021-06-23T10:43:53Z</time>
      </trkpt>
      <trkpt lat="47.75208" lon="7.30342">
        <ele>242.36</ele>
        <time>2021-06-23T10:43:57Z</time>
      </trkpt>
      <trkpt lat="47.75213" lon="7.3035">
        <ele>241.9</ele>
        <time>2021-06-23T10:44:11Z</time>
      </trkpt>
      <trkpt lat="47.75219" lon="7.30351">
        <ele>241.57</ele>
        <time>2021-06-23T10:44:25Z</time>
      </trkpt>
      <trkpt lat="47.75225" lon="7.30346">
        <ele>241.48</ele>
        <time>2021-06-23T10:44:39Z</time>
      </trkpt>
      <trkpt lat="47.75231" lon="7.3036">
        <ele>241.03</ele>
        <time>2021-06-23T10:44:53Z</time>
      </trkpt>
      <trkpt lat="47.75278" lon="7.30507">
        <ele>244.01</ele>
        <time>2021-06-23T10:45:07Z</time>
      </trkpt>
      <trkpt lat="47.75294" lon="7.30567">
        <ele>244.4</ele>
        <time>2021-06-23T10:45:20Z</time>
      </trkpt>
      <trkpt lat="47.75314" lon="7.30657">
        <ele>244</ele>
        <time>2021-06-23T10:45:34Z</time>
      </trkpt>
      <trkpt lat="47.75327" lon="7.30697">
        <ele>243.02</ele>
        <time>2021-06-23T10:45:48Z</time>
      </trkpt>
      <trkpt lat="47.75376" lon="7.30818">
        <ele>244.23</ele>
        <time>2021-06-23T10:46:02Z</time>
      </trkpt>
      <trkpt lat="47.755" lon="7.31115">
        <ele>241.13</ele>
        <time>2021-06-23T10:46:16Z</time>
      </trkpt>
      <trkpt lat="47.75637" lon="7.31406">
        <ele>240.03</ele>
        <time>2021-06-23T10:46:30Z</time>
      </trkpt>
      <trkpt lat="47.7588" lon="7.31938">
        <ele>236.79</ele>
        <time>2021-06-23T10:46:44Z</time>
      </trkpt>
      <trkpt lat="47.76157" lon="7.32534">
        <ele>238.33</ele>
        <time>2021-06-23T10:46:58Z</time>
      </trkpt>
      <trkpt lat="47.76128" lon="7.32665">
        <ele>238.53</ele>
        <time>2021-06-23T10:47:03Z</time>
      </trkpt>
      <trkpt lat="47.7613" lon="7.32675">
        <ele>238.89</ele>
        <time>2021-06-23T10:47:08Z</time>
      </trkpt>
      <trkpt lat="47.76014" lon="7.32798">
        <ele>239.13</ele>
        <time>2021-06-23T10:47:13Z</time>
      </trkpt>
      <trkpt lat="47.75971" lon="7.32849">
        <ele>239.09</ele>
        <time>2021-06-23T10:47:17Z</time>
      </trkpt>
      <trkpt lat="47.75945" lon="7.32885">
        <ele>241</ele>
        <time>2021-06-23T10:47:22Z</time>
      </trkpt>
      <trkpt lat="47.75903" lon="7.32942">
        <ele>237.6</ele>
        <time>2021-06-23T10:47:26Z</time>
      </trkpt>
      <trkpt lat="47.75885" lon="7.32969">
        <ele>237</ele>
        <time>2021-06-23T10:47:30Z</time>
      </trkpt>
      <trkpt lat="47.75868" lon="7.33">
        <ele>237</ele>
        <time>2021-06-23T10:47:35Z</time>
      </trkpt>
      <trkpt lat="47.75852" lon="7.33044">
        <ele>236.33</ele>
        <time>2021-06-23T10:47:39Z</time>
      </trkpt>
      <trkpt lat="47.75848" lon="7.33066">
        <ele>236.29</ele>
        <time>2021-06-23T10:47:44Z</time>
      </trkpt>
      <trkpt lat="47.75843" lon="7.33076">
        <ele>236.38</ele>
        <time>2021-06-23T10:47:48Z</time>
      </trkpt>
      <trkpt lat="47.75839" lon="7.33107">
        <ele>237.43</ele>
        <time>2021-06-23T10:47:53Z</time>
      </trkpt>
      <trkpt lat="47.75869" lon="7.33122">
        <ele>236.11</ele>
        <time>2021-06-23T10:47:59Z</time>
      </trkpt>
      <trkpt lat="47.75926" lon="7.33178">
        <ele>237.42</ele>
        <time>2021-06-23T10:48:06Z</time>
      </trkpt>
      <trkpt lat="47.75953" lon="7.33146">
        <ele>236.17</ele>
        <time>2021-06-23T10:48:17Z</time>
      </trkpt>
    </trkseg>
  </trk>
</gpx>